ECMWFNIL_sfc_dewp_000.txt.gz
Dewpoint
20 20 19 19 19 20 18 18 19 18 17 17 17 17 18 18 20 19 18 19 19 19 20 21 21 21 23 23 23 23 23 23 23 23 22 23 22 22 22 22 21 21
20 21 22 21 22 22 19 18 18 18 17 17 17 17 18 18 19 18 18 19 20 20 21 21 21 22 22 22 22 22 22 22 22 24 23 22 22 22 22 22 22 22
20 20 21 20 19 19 18 18 17 17 17 17 16 16 18 18 18 18 19 19 19 19 21 21 21 22 22 23 22 22 22 22 22 22 23 22 22 22 22 22 21 21
19 19 20 19 18 18 18 18 17 18 18 18 16 17 18 20 18 18 19 21 19 20 21 21 22 22 22 22 22 22 22 22 22 23 23 23 23 22 22 22 22 22
18 19 19 18 18 18 18 17 17 17 17 17 17 18 19 19 18 19 19 19 20 20 21 21 21 21 22 22 22 21 22 22 22 22 22 22 22 22 22 22 22 21
18 19 19 18 18 17 17 17 17 16 16 16 16 18 17 18 18 18 18 19 19 19 19 20 20 20 20 21 21 21 21 20 20 21 21 20 20 21 21 21 20 20
18 17 17 17 17 17 16 16 16 17 16 16 17 17 17 17 17 17 18 18 18 19 18 18 18 18 19 19 19 19 19 19 18 18 18 18 18 18 18 18 18 18
17 16 16 16 16 16 15 16 16 16 17 18 16 17 17 17 17 17 17 17 17 18 18 18 18 18 18 18 18 17 17 17 17 16 15 15 15 15 15 14 14 14
17 15 15 15 15 15 15 16 17 17 18 17 17 17 18 17 17 17 17 17 17 17 18 18 18 17 17 17 17 16 15 15 14 13 13 13 13 13 13 13 12 12
15 15 15 15 15 15 15 16 17 18 19 17 17 17 17 18 18 17 17 16 16 17 16 16 16 16 16 15 14 14 13 12 12 11 11 11 11 11 12 12 12 11
14 14 14 15 14 15 15 17 17 17 18 17 17 17 17 17 17 16 16 16 16 16 16 15 15 15 14 13 13 12 11 11 10 10 9 10 10 11 13 11 11 10
13 14 14 14 14 15 15 16 16 17 17 17 16 16 16 16 16 16 16 15 14 14 13 13 12 12 11 11 10 10 9 9 9 9 8 9 9 10 10 10 10 10
13 13 13 13 14 14 15 15 15 16 16 16 16 16 15 15 14 13 13 12 11 10 9 9 8 8 8 8 8 8 8 8 8 8 7 8 8 8 9 9 10 10
13 13 12 13 13 14 14 14 14 15 16 15 15 14 13 12 11 10 9 9 8 7 7 7 7 7 7 7 7 7 8 7 7 7 7 7 7 9 10 11 11 11
13 13 13 14 15 15 15 14 15 15 15 14 13 12 11 10 9 8 8 7 7 6 6 6 6 6 7 7 7 7 7 7 7 8 7 9 10 11 12 12 12 12
13 13 13 15 15 15 14 14 14 14 13 13 11 10 9 9 8 8 7 7 7 6 6 6 6 7 10 15 14 9 8 9 11 12 12 12 13 13 13 13 13 13
13 13 14 15 15 14 15 14 14 13 12 10 9 9 9 9 8 7 7 7 7 7 7 7 7 7 14 17 18 19 16 14 15 15 14 14 14 14 14 14 13 13
14 14 15 15 14 14 14 13 12 11 10 9 9 9 9 9 7 7 7 7 7 7 7 7 7 13 16 17 18 19 20 17 17 16 16 15 15 14 13 13 13 12
15 15 15 14 14 13 12 11 11 11 10 9 9 9 9 8 8 7 7 7 7 7 7 7 7 13 16 17 18 20 20 19 17 17 16 16 15 14 14 13 12 12
14 15 14 13 12 11 10 10 10 10 9 9 9 9 9 8 8 7 8 8 6 6 6 6 6 11 15 17 18 19 20 21 18 18 18 17 15 13 12 11 11 11
14 13 13 12 11 10 9 9 9 8 9 9 9 8 8 8 8 8 9 9 9 8 8 7 5 12 15 17 18 20 21 21 18 18 16 14 13 12 12 12 12 12
13 12 11 9 9 9 8 8 8 8 8 8 8 8 8 8 8 9 8 9 8 8 7 7 6 13 15 17 18 19 20 19 17 15 14 14 14 13 12 12 12 12
12 10 9 9 8 8 8 7 8 7 7 8 8 8 8 8 8 8 8 8 8 7 7 7 7 9 13 15 17 19 19 17 17 16 15 14 12 13 12 12 12 13
11 9 8 7 8 8 7 8 7 8 7 8 8 7 7 7 7 7 8 7 7 7 7 6 7 8 13 16 17 18 18 17 16 15 15 15 15 14 14 14 15 19
10 9 8 7 6 8 8 7 7 7 7 7 7 8 7 7 7 6 6 7 7 7 8 7 7 9 13 15 15 17 16 16 16 16 15 15 15 14 14 15 15 17
10 10 8 7 7 8 8 8 7 6 6 6 6 6 6 6 5 5 5 6 5 5 5 6 7 8 9 13 15 16 17 15 16 15 14 14 15 16 16 16 15 13

ECMWFNIL_sfc_dewp_003.txt.gz
Dewpoint
18 17 17 18 17 18 18 18 19 18 18 18 19 19 20 20 22 22 21 21 21 20 21 21 21 21 22 22 23 23 23 21 22 21 21 22 22 22 22 22 21 21
17 17 19 19 19 20 18 18 18 18 18 17 18 18 19 20 21 21 21 21 21 20 19 20 20 20 21 21 22 22 22 22 21 24 22 22 22 22 22 22 22 22
18 18 18 18 17 18 18 18 18 17 17 17 17 18 19 20 20 20 20 19 19 18 19 20 20 21 21 22 22 22 22 21 21 22 22 22 22 22 22 22 22 22
18 18 18 18 18 18 18 18 18 17 17 18 17 18 19 21 19 19 19 21 18 19 19 20 20 21 21 22 22 22 22 22 22 22 22 22 23 23 22 22 23 22
18 18 18 18 18 19 18 17 17 17 17 17 17 18 19 19 18 18 18 18 18 19 20 20 21 21 22 22 22 22 22 22 21 21 22 22 22 22 22 22 22 22
17 18 19 19 18 18 17 17 17 17 16 16 16 18 18 17 17 17 18 17 18 19 20 20 21 21 22 22 22 21 21 21 21 21 21 21 22 21 22 22 21 21
17 17 18 18 18 18 17 16 17 17 16 15 17 17 17 16 16 17 17 18 18 19 19 20 20 20 21 21 21 21 20 20 20 20 20 20 19 19 19 18 18 17
16 17 17 18 17 17 16 15 16 17 16 16 15 16 16 16 16 17 17 18 18 19 19 19 19 19 20 19 19 19 19 19 18 18 17 17 16 16 15 15 14 14
17 16 17 17 16 16 15 15 15 16 16 15 15 16 16 16 16 16 17 17 18 18 18 18 18 18 18 18 18 18 17 17 17 16 15 14 14 13 13 13 12 13
17 16 16 16 16 15 15 14 15 15 17 15 15 15 15 16 16 16 16 17 17 18 17 18 18 18 18 18 17 17 16 16 14 13 12 12 12 11 11 11 12 11
17 16 16 16 15 15 14 14 14 14 15 14 15 15 15 16 16 16 16 16 17 17 17 17 17 17 17 16 15 15 14 13 12 12 11 11 10 10 13 12 11 11
17 16 16 15 15 15 14 14 15 15 15 15 15 15 15 16 16 16 16 16 16 16 17 16 16 16 16 15 14 13 12 11 11 11 10 9 9 9 9 10 10 10
16 16 16 15 15 14 14 14 15 15 15 15 16 16 16 16 16 16 16 15 16 16 16 15 15 14 14 13 12 11 10 10 9 9 9 8 8 8 8 9 9 9
17 16 15 15 14 14 15 15 16 16 16 16 17 16 16 16 16 15 15 15 14 14 13 13 12 11 10 10 9 9 9 9 9 9 8 7 7 7 7 7 8 9
16 16 15 16 16 15 16 16 17 17 17 17 17 16 16 16 15 14 14 12 11 11 10 9 9 8 8 8 8 8 8 8 8 9 7 7 7 6 7 7 8 9
16 16 15 16 16 16 16 17 17 17 17 17 16 15 15 14 13 13 12 11 9 8 8 8 8 7 12 16 14 9 8 9 10 10 9 7 7 8 10 10 11 12
16 16 15 16 16 17 18 17 17 17 16 16 14 13 13 13 12 11 11 10 9 8 8 7 7 8 16 19 20 19 11 10 10 10 10 9 10 11 12 12 12 13
16 16 17 17 17 18 17 17 16 15 15 14 13 12 12 12 11 11 10 10 9 9 8 8 8 14 19 21 21 22 19 11 12 12 13 13 13 13 13 14 14 13
18 17 18 18 18 17 17 16 15 15 14 13 13 13 12 13 12 11 10 10 9 9 9 9 8 17 20 21 22 22 23 19 15 16 16 16 15 15 14 13 13 14
18 18 18 17 17 16 15 15 14 14 13 13 12 12 12 11 10 11 10 10 9 9 9 9 9 17 21 22 22 22 22 22 19 19 18 17 16 15 15 14 13 11
18 17 17 17 16 15 14 14 13 13 12 11 11 11 10 10 10 10 11 11 11 11 10 10 9 17 20 21 22 22 22 22 19 19 18 18 16 14 12 11 11 11
18 18 17 16 15 14 13 13 13 12 11 10 10 10 10 10 10 11 11 11 11 11 10 10 9 18 19 20 21 22 22 20 20 19 17 15 14 12 12 12 12 11
18 17 16 15 14 13 13 12 12 10 10 10 10 10 10 9 9 10 11 11 12 11 11 10 10 16 18 19 20 22 22 19 18 17 15 15 14 14 12 11 11 11
17 17 15 14 13 12 12 12 11 10 10 10 9 9 8 9 9 9 10 11 11 11 10 10 9 13 18 19 20 21 20 17 17 16 16 15 13 13 14 14 14 18
17 16 15 13 12 12 11 11 10 9 9 9 8 8 8 8 9 8 9 10 11 10 12 10 9 12 16 17 19 20 20 18 17 15 15 14 14 14 13 13 14 16
16 15 14 13 12 12 11 10 9 8 8 8 8 8 8 8 8 7 7 8 9 9 10 9 8 8 12 18 19 20 20 17 16 15 15 14 14 15 15 16 15 13

ECMWFNIL_sfc_dewp_006.txt.gz
Dewpoint
21 20 20 20 19 21 20 21 21 21 22 22 22 22 23 23 24 23 23 22 22 22 22 22 22 22 23 22 22 22 21 21 22 21 21 22 21 21 22 22 21 21
21 20 21 20 21 21 20 21 20 20 21 21 21 22 22 23 23 23 22 22 22 21 21 21 21 21 21 21 21 21 21 21 21 23 22 21 22 22 22 22 21 21
21 20 20 19 19 19 19 20 20 20 20 20 21 21 22 23 23 23 22 21 21 20 21 21 21 21 21 20 21 21 21 21 22 23 22 22 22 22 22 22 22 21
21 20 19 19 19 18 18 19 19 19 19 20 20 21 22 23 22 22 22 22 20 20 20 20 20 20 20 20 21 21 21 21 22 22 23 23 23 22 22 22 23 22
20 20 19 19 19 19 18 18 18 19 19 19 19 20 21 21 21 21 21 21 20 19 19 19 19 20 20 21 21 21 22 22 22 22 22 22 23 23 22 22 22 21
20 20 20 19 19 18 18 18 18 19 19 18 18 20 20 21 20 20 20 19 19 18 18 18 19 19 20 20 21 21 22 21 22 22 22 21 22 22 23 22 22 21
18 18 18 18 18 18 17 17 18 19 18 18 18 18 19 20 19 19 19 18 18 18 17 18 18 19 20 21 21 21 21 21 21 21 21 21 21 21 21 20 19 18
18 17 17 17 17 17 17 17 17 18 18 18 17 18 18 18 18 18 18 17 17 17 17 17 18 19 20 20 20 20 21 21 20 20 20 19 19 18 17 17 16 15
18 17 17 17 17 17 17 16 17 17 18 17 16 17 18 17 17 17 17 16 16 17 17 17 18 19 20 20 20 20 20 20 20 19 19 18 17 16 15 14 13 14
17 17 16 17 17 16 16 16 16 16 18 16 16 16 16 16 16 16 16 16 16 17 17 17 18 19 19 19 19 19 19 19 19 18 17 17 16 15 14 13 13 12
17 17 16 16 17 16 16 16 15 16 16 15 15 15 16 15 16 15 15 15 15 16 17 18 18 19 19 18 18 18 18 18 17 16 16 15 14 13 16 12 12 12
17 17 16 16 17 17 16 16 15 15 16 15 14 14 15 15 15 15 15 15 15 16 17 17 18 18 18 18 18 17 17 16 16 15 14 13 12 12 13 12 11 11
17 17 17 16 17 16 16 15 15 15 16 15 15 15 14 14 15 15 16 15 15 16 16 17 17 17 17 17 17 16 16 15 14 13 12 11 11 10 10 10 10 10
17 17 17 16 16 16 16 16 15 16 16 15 15 15 15 15 15 15 15 15 16 16 16 17 17 17 16 16 16 15 15 14 13 12 11 10 9 9 9 9 9 9
18 18 17 18 18 17 17 17 17 16 17 16 16 15 15 15 15 15 15 15 16 16 16 16 16 16 16 15 15 14 13 13 12 11 10 9 8 8 8 8 8 8
18 18 18 18 18 18 18 17 17 17 18 18 17 16 16 16 15 15 15 15 15 15 16 15 15 15 18 21 20 14 13 12 12 11 10 9 8 7 7 7 7 8
19 19 19 19 19 19 20 19 19 19 19 18 17 17 17 16 16 15 15 15 15 15 15 14 14 14 22 24 24 22 14 12 11 11 10 8 8 8 7 8 8 9
20 20 20 20 20 21 20 20 19 19 19 18 18 17 17 17 15 15 14 14 14 14 13 13 12 19 24 26 25 24 19 13 12 11 11 8 8 8 9 10 11 11
20 21 21 21 21 20 20 20 19 19 18 18 17 17 16 15 16 15 14 14 13 12 13 12 11 21 25 26 26 25 22 16 12 12 12 11 9 10 11 12 13 13
21 22 21 21 21 20 19 19 18 18 18 18 17 16 16 15 15 14 14 13 12 12 12 11 10 20 26 26 26 26 24 18 12 13 14 14 12 12 12 13 14 14
22 21 21 21 21 20 20 19 18 18 18 18 17 16 16 16 15 14 14 13 13 12 11 11 9 21 26 26 27 27 25 19 13 14 15 16 14 14 14 14 14 14
22 22 21 21 20 20 19 19 19 19 18 17 16 16 16 15 14 14 14 13 12 12 11 10 9 22 25 26 26 27 28 18 17 17 17 17 17 16 15 14 13 11
22 22 21 20 20 20 19 19 19 18 18 16 16 15 15 14 14 13 13 12 12 11 10 10 10 20 26 25 25 27 26 21 19 19 18 18 17 16 14 12 11 11
22 22 22 20 20 19 19 19 18 18 17 16 15 14 14 14 13 12 11 11 11 11 11 10 10 20 25 25 25 26 24 20 19 18 17 16 16 14 14 13 12 16
22 22 22 20 19 19 18 18 18 17 16 15 14 14 13 12 11 10 10 10 10 10 14 11 11 19 25 24 25 26 23 20 18 17 16 16 15 14 13 13 13 16
22 22 22 20 20 19 19 18 16 14 13 13 12 11 11 10 10 9 9 9 10 10 12 11 11 16 20 24 25 25 25 19 18 16 15 15 14 14 14 14 14 13

ECMWFNIL_sfc_dewp_009.txt.gz
Dewpoint
24 24 23 23 23 23 22 23 24 24 24 24 24 25 25 25 25 24 24 24 23 22 23 23 23 23 23 23 22 22 21 21 21 21 22 22 21 21 21 21 21 21
24 23 24 23 24 24 22 22 23 23 23 24 24 24 24 25 25 24 24 23 23 22 22 23 23 22 22 22 22 21 21 21 20 23 21 21 21 21 21 21 21 22
24 23 23 22 22 22 22 22 22 23 23 23 23 24 25 25 24 24 23 23 23 22 22 22 22 22 22 21 21 21 20 20 20 21 21 20 21 21 21 21 21 21
23 23 22 22 22 21 21 21 21 22 22 23 22 23 24 25 24 23 23 24 22 22 22 22 22 21 21 21 21 20 20 20 20 21 21 21 22 21 22 22 22 22
23 23 23 22 22 22 21 20 21 21 21 22 22 23 23 24 23 23 22 22 22 21 21 21 21 21 21 20 20 19 20 20 21 21 21 21 22 22 22 22 22 22
23 23 23 22 22 21 20 20 20 21 21 21 21 22 22 23 22 22 22 21 21 20 20 20 20 20 20 20 19 19 20 20 21 21 21 21 22 22 23 22 22 21
22 22 22 22 21 21 20 19 20 21 21 20 21 21 21 22 22 22 21 21 20 20 19 19 19 19 19 19 19 18 20 20 21 21 20 21 22 22 22 22 21 21
22 21 21 21 20 20 20 19 19 20 20 20 19 20 21 21 21 21 21 20 19 19 18 18 18 18 18 18 18 18 19 20 21 21 20 21 21 21 21 21 21 20
21 21 20 20 20 19 19 18 18 19 20 19 19 19 20 20 20 20 20 20 19 18 18 17 17 17 18 18 18 18 19 20 20 20 20 20 20 20 20 19 18 18
19 19 19 19 19 19 18 18 17 17 20 19 18 18 19 20 19 19 19 19 18 18 17 17 17 17 17 18 17 18 18 19 20 20 20 20 19 19 19 18 17 16
18 18 19 19 19 19 18 18 17 17 18 18 17 17 18 18 19 19 18 18 17 17 16 16 16 16 17 17 17 18 18 19 19 20 19 19 19 18 20 17 16 16
18 18 18 18 18 18 18 17 17 17 17 17 17 16 17 17 18 18 18 17 17 16 16 16 16 16 17 17 17 18 18 19 19 19 19 18 18 17 17 16 15 14
18 18 18 18 18 18 18 17 17 17 17 17 17 16 17 17 17 17 18 17 16 16 15 15 15 16 16 17 17 18 18 18 18 18 18 17 16 16 15 14 14 13
17 18 18 18 17 17 18 17 17 17 17 18 18 16 17 16 16 17 17 16 16 15 15 15 15 16 16 17 17 18 18 18 17 17 16 15 14 14 13 13 12 12
17 18 18 19 19 19 19 19 18 18 18 18 18 17 17 17 17 17 16 16 16 16 15 16 16 16 16 17 17 17 17 17 16 16 15 14 13 12 11 11 11 11
18 18 18 19 19 19 19 19 19 19 19 19 19 18 17 17 17 17 16 16 16 16 16 16 16 16 20 23 22 17 17 16 16 15 14 13 12 11 10 9 9 9
19 19 19 20 20 20 22 21 20 20 21 20 19 19 18 18 17 17 16 17 16 16 16 16 16 16 23 26 26 24 18 16 15 15 13 12 11 10 9 9 8 8
21 21 21 21 22 23 23 23 22 21 21 21 20 19 19 19 17 17 17 16 16 16 16 16 16 21 26 27 27 26 23 16 15 14 13 11 10 10 9 8 7 7
22 22 23 23 23 23 23 23 22 21 21 20 20 20 19 18 18 18 17 17 16 16 16 16 16 23 27 28 28 27 25 19 15 14 13 12 10 9 8 8 8 9
23 24 23 23 23 23 23 23 22 21 21 21 20 20 19 19 18 18 18 17 16 16 16 16 16 23 27 28 28 28 26 21 14 14 13 12 9 9 9 9 10 10
24 23 24 23 23 23 23 22 22 21 21 21 20 20 20 19 18 18 19 18 18 17 17 17 15 24 28 29 29 28 27 22 14 13 12 11 9 9 10 11 12 12
23 23 23 22 22 22 22 22 22 22 21 21 20 19 19 19 18 19 19 18 18 18 17 16 15 24 27 29 29 29 28 17 13 13 12 12 12 11 11 12 13 13
24 23 23 23 22 22 22 22 22 21 21 20 20 19 19 19 19 19 19 18 18 17 16 16 15 22 27 29 28 28 26 14 13 13 13 12 12 13 13 13 14 14
24 23 23 23 23 22 22 22 22 22 21 20 19 19 19 19 19 18 18 18 18 17 17 15 15 21 27 28 28 28 23 14 13 13 13 13 14 14 15 15 15 18
24 24 25 24 23 23 22 22 22 21 21 20 19 19 19 19 17 17 17 17 17 16 18 16 15 19 27 28 28 28 21 15 14 14 14 15 15 15 15 14 13 17
24 25 25 24 24 23 22 22 22 20 20 19 19 18 18 17 16 16 16 15 15 15 16 16 13 15 24 28 28 29 25 16 15 15 15 16 16 15 14 14 13 14

ECMWFNIL_sfc_dewp_012.txt.gz
Dewpoint
27 26 26 26 25 26 25 25 26 26 26 26 26 26 26 26 26 25 25 25 24 23 23 23 24 24 24 23 23 22 22 22 22 22 22 21 20 21 21 21 21 20
26 26 26 26 26 26 25 25 25 25 25 26 26 26 26 26 26 25 25 24 24 23 23 23 24 23 23 22 22 22 21 21 21 23 22 21 21 22 21 21 21 21
26 26 26 25 25 25 24 25 25 25 25 25 25 26 26 27 26 25 25 24 23 23 23 22 23 23 23 22 22 21 21 21 20 22 21 20 21 21 21 21 21 21
26 25 25 25 25 24 24 24 24 25 25 25 25 25 26 27 26 25 25 25 23 22 22 22 22 23 22 22 22 21 21 20 20 21 21 21 21 21 21 21 21 21
25 25 25 25 25 25 24 23 23 24 24 24 25 25 25 26 25 25 24 24 23 22 22 22 22 22 22 22 21 20 20 20 20 21 20 20 20 21 21 21 21 21
25 25 25 25 25 24 23 23 23 23 24 24 24 25 25 25 25 24 24 24 23 22 21 21 21 21 21 21 21 20 20 19 20 20 19 19 20 21 21 21 21 21
24 24 24 25 24 24 23 23 23 23 23 23 24 24 24 24 24 24 24 23 22 22 20 20 20 20 20 20 20 19 19 19 20 20 19 19 20 21 21 21 21 20
24 24 24 23 23 23 23 22 22 22 22 23 22 23 23 24 24 23 23 23 22 21 20 20 19 19 20 19 19 18 18 18 19 19 19 19 20 20 21 21 21 20
23 23 23 23 23 22 22 22 21 21 22 22 21 22 23 23 23 23 23 22 22 21 20 19 19 18 19 18 18 17 17 18 19 19 19 19 20 20 20 21 20 20
22 22 22 22 22 22 22 21 21 21 22 21 21 21 21 22 22 22 22 22 21 21 20 19 18 18 18 18 17 16 16 17 18 19 18 18 19 19 20 20 20 20
21 21 21 22 22 22 22 21 21 20 20 20 20 20 21 21 22 21 21 21 20 20 19 19 18 18 17 17 16 16 15 16 17 18 18 18 19 19 22 20 20 19
20 20 20 20 21 22 21 21 21 20 19 20 20 19 19 20 20 21 21 20 20 20 19 18 18 17 17 16 16 16 15 16 17 17 18 17 18 18 20 20 19 19
20 20 20 20 20 21 21 21 21 20 20 19 20 19 19 19 20 20 21 20 20 19 19 18 17 17 16 16 16 15 15 15 16 17 17 17 18 18 19 19 19 18
20 20 19 19 19 19 20 21 21 21 20 20 21 19 19 19 19 20 20 20 19 19 18 18 17 16 16 16 15 15 15 15 16 17 17 17 17 18 18 18 18 17
21 20 19 20 21 21 21 21 21 21 21 20 20 20 20 19 20 20 20 20 19 19 18 18 17 16 16 15 15 15 15 16 16 17 17 17 17 17 17 17 17 16
22 22 21 21 21 21 21 21 21 22 21 22 21 21 20 20 19 20 20 20 20 19 18 17 17 16 21 23 23 16 16 16 18 18 17 16 16 16 16 16 15 15
24 23 22 22 21 22 24 23 23 24 24 23 22 22 21 20 20 20 20 20 20 19 18 18 17 17 24 26 26 25 18 18 18 18 18 16 16 15 15 15 13 13
25 25 24 24 23 24 24 25 25 24 24 24 23 22 22 22 20 20 20 20 19 19 19 18 17 23 26 27 28 27 25 18 19 19 18 16 15 15 14 13 11 10
26 26 26 25 25 24 24 24 24 24 23 23 22 22 22 21 20 20 20 20 19 19 19 18 18 24 26 28 29 29 27 22 18 19 18 16 14 14 13 13 11 10
26 26 26 26 25 24 24 23 23 24 24 24 23 23 22 22 21 21 21 20 19 19 19 18 18 24 27 28 29 29 29 25 19 19 18 17 14 12 11 10 10 10
26 25 25 25 24 23 22 23 24 24 24 24 23 23 23 22 22 21 22 22 21 21 20 19 17 25 27 29 30 30 30 27 18 18 17 16 12 10 9 9 9 9
25 25 25 24 23 22 21 22 23 23 23 23 22 22 22 22 22 22 22 22 22 21 20 20 18 25 27 29 30 31 31 24 18 17 16 15 14 10 9 9 9 9
24 24 24 24 23 22 22 22 22 22 22 22 22 22 22 21 22 22 22 22 22 21 20 20 19 24 27 29 30 31 30 21 17 16 15 15 13 11 9 9 9 9
25 23 23 23 23 23 22 23 22 22 22 22 22 22 22 22 22 22 22 22 22 21 21 20 19 22 27 29 30 31 28 19 16 15 15 14 14 12 11 11 11 16
25 24 23 23 23 23 23 23 23 23 23 23 22 22 22 22 21 21 21 21 21 21 22 20 19 22 27 29 30 30 27 18 16 14 14 13 13 13 12 12 12 17
27 25 24 23 23 23 23 23 22 20 21 22 22 21 21 21 20 20 20 20 20 20 20 21 19 20 25 29 30 30 28 18 16 14 13 13 13 13 13 14 14 15

ECMWFNIL_sfc_dewp_015.txt.gz
Dewpoint
31 31 31 30 29 31 30 30 30 30 30 29 29 29 29 29 29 29 29 29 29 28 28 27 26 27 26 26 26 25 24 25 24 24 24 23 23 24 23 24 23 20
31 30 30 31 31 30 30 30 30 30 30 30 29 29 30 30 30 29 29 29 28 28 27 27 26 26 26 25 26 24 24 24 24 26 25 25 23 23 23 24 23 22
30 31 30 30 29 30 30 30 30 30 29 30 30 30 30 30 30 29 28 28 28 27 27 27 26 26 25 25 25 24 23 24 24 24 24 24 22 22 22 23 22 24
29 29 29 29 30 29 29 28 29 29 29 29 29 29 29 30 29 29 28 28 27 27 26 26 26 25 25 24 25 23 23 23 23 24 24 23 23 22 22 22 23 22
29 28 28 28 29 29 28 27 27 27 28 28 28 29 28 29 28 28 27 27 27 26 25 25 25 25 25 24 24 22 21 21 23 24 23 22 22 21 21 21 20 20
27 28 28 28 28 28 27 27 26 27 27 27 27 27 27 28 27 27 26 25 25 24 24 23 23 23 23 22 22 21 19 19 20 21 20 20 20 21 20 21 20 19
24 25 26 27 27 27 27 26 26 26 26 26 27 26 27 27 27 26 26 25 24 24 22 22 22 22 22 21 21 19 18 19 20 20 19 19 19 20 19 20 20 19
24 24 25 25 25 25 26 26 25 26 26 26 25 26 26 26 26 26 26 25 24 23 22 21 21 21 21 20 20 19 17 18 20 20 19 19 19 19 19 19 19 19
23 23 23 23 24 24 24 24 25 25 25 24 24 24 25 25 25 25 25 24 24 23 22 21 20 20 20 20 19 18 17 18 19 19 19 18 19 19 19 19 19 19
22 22 22 22 23 23 23 23 24 24 25 24 24 24 23 25 25 25 24 24 24 23 22 21 20 20 19 19 19 18 16 17 17 18 18 18 18 18 19 19 18 18
24 23 22 21 22 22 22 23 23 23 24 23 23 22 23 23 24 24 24 24 23 23 22 22 21 20 19 19 18 18 16 15 16 17 17 17 17 17 20 19 18 18
25 24 23 22 22 21 21 22 22 23 23 23 23 22 22 22 22 23 24 23 23 23 23 22 21 20 19 18 18 17 16 15 15 16 16 15 15 16 18 18 18 18
25 25 25 24 23 22 21 21 21 22 23 23 22 22 22 21 22 22 23 23 23 23 22 22 21 20 19 19 18 17 16 15 15 15 15 14 14 14 16 17 17 17
25 26 26 25 25 24 23 23 22 22 22 23 24 22 22 21 21 22 22 23 23 22 22 22 21 20 19 19 18 17 17 16 15 15 14 14 14 14 15 16 16 17
25 25 25 26 26 26 26 25 24 23 23 23 23 23 23 22 22 22 22 22 22 22 22 22 21 20 20 19 18 18 17 17 16 17 15 14 14 14 15 16 16 17
25 25 26 26 26 27 26 26 26 25 25 25 25 24 24 23 22 22 22 22 22 22 22 22 21 21 24 26 26 20 18 18 20 19 17 15 14 15 15 16 16 16
25 25 25 26 26 27 28 28 27 27 27 27 26 26 25 24 24 23 22 22 22 22 22 22 21 21 27 28 28 27 21 19 21 20 19 15 15 15 15 16 16 17
25 25 25 26 27 27 28 28 28 27 27 27 27 26 25 26 24 23 23 22 22 22 22 22 21 25 28 28 29 29 27 21 21 21 20 17 15 15 15 16 16 16
24 25 25 26 27 27 27 27 27 27 27 27 27 27 26 25 24 24 23 22 22 22 22 22 22 27 28 29 29 30 29 24 21 21 20 20 15 15 15 15 16 16
23 25 25 26 27 27 26 26 26 26 26 26 26 26 26 26 25 25 24 23 22 22 22 22 22 27 28 29 29 30 30 28 22 22 21 20 16 15 14 14 15 15
20 21 25 26 27 26 26 26 26 26 26 26 26 26 26 26 25 25 25 25 25 24 24 23 22 27 28 29 30 31 31 30 23 22 21 21 17 14 14 15 14 14
17 20 25 27 27 26 25 25 25 26 26 26 25 25 25 25 25 25 25 25 25 25 24 24 22 27 28 29 30 31 31 29 25 22 21 20 20 15 14 13 13 13
16 19 25 27 26 25 24 24 25 25 25 25 25 24 24 24 24 25 25 25 25 24 24 23 23 25 27 28 29 31 31 28 27 23 21 20 18 16 13 12 12 12
15 20 26 26 24 23 23 24 24 24 25 25 24 24 24 24 24 23 24 24 24 24 24 23 24 25 27 28 29 30 31 28 26 23 21 20 19 16 13 12 13 19
15 20 23 22 21 21 20 21 22 24 24 24 24 24 24 24 24 23 23 23 23 24 25 24 24 25 26 27 29 30 30 29 26 23 21 19 18 16 13 12 13 18
14 18 20 20 19 18 17 18 21 22 23 23 23 23 23 23 23 23 23 23 23 23 23 24 23 23 24 27 28 30 31 29 26 22 20 19 17 15 14 14 15 15

ECMWFNIL_sfc_dewp_021.txt.gz
Dewpoint
30 30 31 32 31 32 31 32 32 33 32 32 32 32 32 33 34 35 35 35 35 35 35 35 34 34 35 33 32 30 28 29 28 28 27 26 26 26 26 28 30 26
30 30 30 30 31 32 31 32 32 32 32 32 32 32 32 33 35 36 36 36 35 35 35 35 34 34 34 32 33 31 28 27 28 30 27 28 26 26 26 27 27 27
28 29 30 30 29 30 30 31 32 32 31 32 32 32 33 34 35 35 35 36 35 34 35 35 34 34 33 33 33 32 29 28 28 28 28 28 27 25 24 26 25 27
27 27 27 28 29 29 29 29 30 30 30 32 31 32 32 35 34 35 36 35 35 35 35 35 35 34 34 33 33 31 31 29 28 29 29 27 27 26 24 23 25 24
26 26 26 26 27 28 28 28 28 28 29 29 30 31 30 32 33 33 33 34 35 34 34 34 34 34 34 33 33 31 30 30 29 28 27 27 26 26 25 24 23 22
24 24 24 23 24 25 25 27 27 28 28 28 28 28 30 31 31 32 32 32 32 33 33 33 33 33 33 33 32 31 30 29 28 28 27 26 26 25 26 25 23 22
21 22 22 23 23 24 23 24 25 26 27 28 28 28 28 29 30 30 30 31 31 32 32 32 32 32 32 32 31 30 29 28 28 27 26 26 25 25 25 25 22 21
19 19 21 22 22 23 23 25 25 25 27 26 27 28 28 28 27 29 30 30 30 31 31 31 31 31 31 31 30 29 29 30 30 26 25 25 25 23 23 26 23 21
21 19 18 17 18 19 19 23 24 25 25 26 26 26 26 27 27 27 27 28 28 28 29 30 30 29 29 29 28 28 28 28 29 27 26 24 24 24 22 22 22 21
13 18 17 16 16 18 19 21 23 24 26 26 26 25 25 26 26 26 26 25 26 26 26 27 27 28 28 27 27 27 26 26 26 26 26 25 24 23 22 21 20 20
13 11 12 14 16 18 20 21 22 22 24 25 24 25 25 25 25 25 25 24 26 25 25 25 26 26 26 26 26 26 26 25 25 24 24 24 24 23 25 21 20 19
16 15 15 12 12 14 17 21 23 23 22 23 22 24 24 25 24 24 25 24 24 24 24 24 24 24 25 25 24 24 24 24 24 24 23 22 22 22 22 22 21 20
14 16 16 16 16 15 16 19 22 24 24 23 23 23 23 23 23 24 25 25 24 24 24 24 24 24 25 25 25 25 24 23 23 23 23 22 21 21 21 21 21 21
15 16 17 18 17 16 17 19 21 22 24 24 25 23 23 23 23 24 24 24 24 24 24 25 24 24 24 24 24 25 25 24 23 23 22 22 22 21 21 21 20 20
15 16 18 17 17 17 17 17 20 22 24 24 23 23 24 23 23 23 24 24 24 24 24 25 26 26 26 25 25 25 25 24 24 24 23 23 22 22 21 21 21 21
13 15 16 16 17 16 16 18 19 22 24 25 25 23 21 22 23 23 23 24 24 23 23 26 27 27 29 30 31 27 26 27 26 25 24 23 23 22 21 20 20 20
13 14 16 17 17 16 21 19 18 20 25 27 27 25 24 22 21 21 21 21 21 21 21 24 26 28 30 32 33 33 30 28 28 28 27 25 24 23 22 22 20 18
14 16 17 19 20 21 21 20 20 22 25 27 27 26 24 23 22 21 20 20 22 23 23 23 23 27 30 31 32 32 32 30 29 29 28 26 25 24 23 22 21 20
14 18 20 21 21 20 20 20 20 20 22 24 25 24 24 23 21 22 21 21 21 20 21 22 22 26 28 30 31 31 32 31 30 30 29 28 26 25 24 23 22 21
15 19 19 20 20 20 20 19 18 18 18 19 22 23 23 22 21 21 21 22 23 22 21 20 21 26 27 29 30 30 31 31 31 31 30 30 28 27 25 24 23 22
17 19 18 19 20 19 19 19 18 18 18 18 20 21 20 20 19 19 20 22 23 22 21 20 20 26 27 28 28 30 31 31 30 31 30 30 29 28 27 26 25 23
17 18 18 19 18 18 18 18 17 17 16 16 18 19 21 19 18 19 20 21 21 22 21 21 20 24 26 28 29 30 31 30 30 30 30 30 30 29 28 27 26 24
15 15 16 18 18 17 17 16 16 15 14 15 15 17 18 18 17 17 17 18 19 20 20 20 21 24 26 28 29 29 29 29 29 29 29 29 29 29 29 28 27 25
15 17 17 17 18 16 15 16 14 14 14 14 13 15 16 16 15 15 15 15 16 17 18 19 21 23 25 26 27 28 29 28 27 27 27 28 28 28 28 28 27 28
14 15 16 16 16 15 14 13 13 13 13 13 13 15 15 14 13 13 12 13 14 15 17 17 19 22 24 25 26 27 27 27 27 27 27 27 27 27 27 27 27 28
13 14 14 15 15 15 14 13 13 12 11 11 12 13 12 11 10 10 10 10 12 12 13 13 13 15 19 22 23 25 27 27 26 26 26 26 26 27 27 28 28 27

ECMWFNIL_sfc_dewp_024.txt.gz
Dewpoint
28 29 30 30 31 32 31 32 32 33 33 33 33 33 33 33 35 35 36 36 36 36 36 36 35 35 36 35 34 33 31 30 29 29 28 27 25 24 25 23 23 22
26 27 28 29 30 30 30 31 30 31 31 31 32 33 33 34 34 35 36 36 36 36 36 36 35 35 34 34 33 33 32 30 29 31 29 27 26 25 24 23 23 24
26 26 26 26 27 27 28 29 30 30 30 30 31 31 33 34 34 34 35 35 35 36 35 35 34 34 34 32 32 32 32 31 30 28 28 28 27 26 24 23 22 22
23 24 24 24 26 25 25 26 26 27 28 29 29 29 31 32 32 32 32 32 33 33 34 33 33 33 32 32 31 32 31 31 31 30 28 28 27 27 26 24 24 23
22 22 23 23 24 25 24 25 25 25 27 26 27 28 29 29 29 30 30 31 31 32 33 33 32 32 31 31 30 32 31 31 30 30 29 28 28 27 27 26 25 24
20 21 21 22 23 25 22 25 25 25 26 25 26 27 27 27 28 28 28 29 30 31 31 32 32 31 31 31 31 31 31 31 30 30 29 28 28 27 28 27 26 25
20 20 19 21 19 23 21 24 24 25 25 25 26 25 25 25 26 26 27 27 28 29 29 30 31 31 31 30 30 31 31 30 30 29 29 28 28 27 27 26 26 25
21 20 20 20 18 19 19 22 22 24 25 25 24 24 24 25 25 26 26 26 26 27 27 28 29 30 31 31 31 30 30 31 30 30 29 28 28 27 27 27 26 25
16 19 18 17 17 18 19 21 21 22 24 24 24 23 24 24 25 25 25 25 25 25 26 26 27 27 28 29 30 30 29 29 30 29 29 28 28 27 26 26 26 25
16 16 13 13 14 17 17 20 22 22 23 23 23 23 23 24 25 25 25 25 25 24 24 24 25 25 26 27 28 28 28 28 28 28 28 28 28 27 26 26 25 25
14 16 17 17 15 15 15 17 20 22 23 23 23 22 22 23 23 23 23 24 25 24 23 23 24 24 25 25 25 26 27 27 27 27 26 26 27 27 28 26 25 25
14 14 16 16 17 17 16 17 17 19 20 22 23 23 23 22 22 22 22 22 23 23 23 23 24 24 24 24 25 25 25 25 25 25 25 25 25 25 25 25 25 25
14 14 15 16 17 17 17 17 17 17 19 20 22 23 23 22 22 21 21 22 22 23 23 23 23 24 24 25 25 25 25 25 25 25 25 24 24 24 24 23 24 24
14 14 15 17 18 18 17 16 16 17 17 18 21 22 23 22 22 21 21 22 22 22 22 23 23 23 24 24 24 25 25 25 25 26 25 25 24 24 24 23 23 23
15 15 15 15 16 17 17 17 17 16 17 17 18 20 23 23 23 22 21 21 21 21 21 21 22 23 24 24 24 24 25 25 26 26 26 26 26 25 24 24 23 23
14 14 14 14 15 16 17 17 17 17 17 17 17 19 21 23 23 22 21 20 19 19 19 21 21 22 25 28 30 28 27 27 27 27 27 27 27 26 26 25 24 24
14 14 14 14 15 16 18 18 17 17 17 17 17 17 18 19 20 20 19 19 19 19 19 19 20 22 27 28 29 29 28 27 28 28 28 27 27 27 27 26 26 25
14 14 15 16 16 18 18 18 18 18 17 17 16 16 16 17 16 17 17 17 18 18 18 18 18 24 26 26 27 27 28 26 26 27 27 27 27 27 27 27 27 26
15 16 16 17 17 17 18 18 18 17 17 16 15 15 16 15 14 15 15 16 16 16 16 17 17 23 25 26 26 26 27 27 26 26 26 26 27 27 27 27 27 27
15 17 17 17 17 17 18 18 17 17 16 16 16 16 15 14 14 14 15 15 15 15 15 15 16 21 23 24 25 26 26 26 26 26 26 26 26 27 27 27 26 26
16 16 16 16 17 17 17 17 16 17 16 16 15 15 14 14 13 13 14 15 16 16 16 15 14 21 23 23 25 26 26 26 25 25 26 26 26 27 27 27 27 27
15 15 15 15 15 16 16 16 16 16 16 15 15 14 14 13 13 13 13 13 14 15 15 15 14 21 22 23 24 25 26 24 24 25 26 26 26 26 26 27 27 27
13 13 13 14 14 14 14 13 13 13 14 14 14 13 13 12 12 12 12 12 13 13 14 14 14 18 21 22 23 24 24 22 23 24 25 25 24 24 24 25 26 26
10 12 12 12 12 11 11 11 11 12 12 13 12 12 11 12 11 11 11 12 12 12 13 13 14 16 20 21 22 23 23 21 21 21 22 23 22 22 22 22 24 27
9 10 10 10 10 10 9 8 8 8 9 10 10 10 10 10 10 10 10 11 11 12 16 14 13 16 19 20 21 21 19 18 18 18 20 21 22 21 21 21 22 25
7 7 7 6 5 5 4 4 5 6 6 6 6 6 7 7 8 9 9 9 10 10 10 10 10 10 12 18 19 20 21 16 16 15 15 16 18 19 20 21 21 21

ECMWFNIL_sfc_dewp_027.txt.gz
Dewpoint
24 25 26 26 26 28 26 27 27 27 27 28 28 29 29 30 31 31 31 32 33 34 35 35 35 35 35 35 35 35 34 33 32 31 30 30 29 28 28 25 23 23
21 23 25 24 24 25 25 26 26 27 26 26 27 28 27 28 29 29 29 30 31 31 32 33 34 34 34 34 34 33 33 33 32 32 31 29 28 28 27 27 25 25
18 19 21 22 23 22 24 24 25 25 26 24 26 26 28 28 28 28 28 28 29 29 30 31 32 32 33 33 32 33 32 32 32 32 31 30 29 28 27 27 26 25
18 18 19 20 22 21 22 22 22 23 24 23 24 25 26 27 26 26 26 27 27 28 29 29 30 31 32 32 32 32 32 32 32 31 31 30 30 29 28 27 27 26
20 19 19 20 21 20 20 21 21 22 22 23 22 23 23 23 24 25 25 25 26 26 27 28 29 29 30 31 31 31 32 32 32 31 31 31 30 29 29 28 27 27
21 21 20 20 20 21 18 22 21 23 22 22 22 22 22 22 22 23 23 24 24 25 26 26 27 27 28 29 30 31 31 31 31 31 31 30 30 30 30 29 28 27
20 21 19 21 17 20 18 20 21 23 22 24 22 21 22 22 21 22 23 23 23 23 23 24 25 26 26 27 28 28 29 30 31 31 30 30 30 30 29 29 28 28
17 18 19 18 17 18 20 19 21 21 22 23 22 22 22 22 22 22 22 23 23 22 22 22 22 22 23 25 26 26 27 29 30 30 30 30 30 29 29 29 28 28
17 17 15 15 15 16 17 17 19 20 22 22 23 22 23 22 22 22 22 22 21 21 21 22 22 22 22 22 22 24 25 26 28 28 29 29 29 29 29 29 28 28
15 17 16 16 16 17 16 16 18 19 21 22 22 22 22 22 23 22 22 21 21 20 20 20 21 21 22 22 22 22 22 23 24 26 26 27 28 28 28 28 28 27
14 14 14 15 15 16 17 17 17 18 19 21 21 21 21 22 22 23 22 22 22 21 20 20 20 20 21 21 21 22 22 23 23 23 24 25 26 26 28 27 27 27
14 14 14 14 15 16 16 17 17 17 17 18 18 18 18 20 20 21 22 21 21 21 21 21 21 21 20 20 20 21 22 22 22 23 23 23 24 25 25 25 25 25
12 12 13 13 14 14 16 17 17 16 16 16 17 17 17 16 16 18 19 20 21 21 21 21 21 21 21 21 21 21 21 20 21 21 22 23 24 24 24 24 24 24
13 13 14 14 15 14 14 14 15 15 16 16 16 16 15 15 16 17 18 20 20 20 20 20 20 20 19 20 21 21 21 21 21 21 21 22 22 23 24 24 24 24
14 14 15 15 15 14 15 15 15 15 15 16 16 16 17 16 16 17 18 18 18 18 18 18 18 18 18 18 19 19 20 20 21 21 22 22 22 22 23 24 24 25
14 14 14 14 15 15 15 15 15 15 16 16 16 16 16 16 16 16 16 16 16 15 15 15 15 16 20 23 24 22 21 22 22 22 23 23 23 22 22 23 23 24
14 14 15 15 15 16 17 17 17 17 17 17 17 17 16 16 15 14 14 14 13 13 13 12 12 14 20 22 23 25 23 22 22 23 22 22 22 22 21 21 21 22
15 16 16 17 17 18 18 18 18 18 18 17 17 17 17 17 16 15 14 13 13 12 12 11 11 18 21 22 23 24 24 22 23 23 23 22 21 21 21 21 21 21
16 17 17 17 17 17 17 17 17 16 16 16 16 16 17 16 15 15 14 14 13 12 12 12 11 18 20 21 22 23 24 23 21 22 22 22 21 20 20 19 20 20
16 16 16 16 15 15 15 14 14 14 14 15 16 16 15 14 14 13 14 13 12 12 12 11 11 17 20 21 22 23 24 24 21 21 22 21 21 20 19 19 19 20
14 13 13 13 12 12 12 12 12 13 13 13 13 12 12 12 12 12 13 13 13 13 12 11 10 18 20 21 22 23 24 24 20 20 20 20 19 19 20 20 20 20
11 10 9 9 9 9 9 10 10 10 10 10 11 10 10 10 10 10 10 10 11 11 11 10 10 18 19 21 21 22 23 18 18 18 18 18 18 18 18 19 19 20
6 6 6 7 7 7 7 6 7 7 6 7 5 5 5 5 6 7 8 9 9 9 8 8 9 13 18 19 21 22 21 16 17 17 17 17 16 16 16 15 16 16
5 5 5 4 4 3 3 3 3 3 2 3 3 2 3 4 4 5 5 5 5 5 6 6 6 11 16 17 18 19 18 13 14 14 14 15 14 14 14 14 14 18
3 2 2 1 0 1 1 1 0 0 1 2 1 1 1 1 2 1 1 2 3 3 8 4 2 5 12 14 16 17 13 11 11 12 13 13 14 13 13 12 12 15
0 0 -0 -1 -1 -1 -0 -1 -0 -0 -1 -1 -1 -1 -1 -1 -1 -0 -1 -1 0 0 0 0 -0 -0 4 13 15 16 17 11 11 11 11 12 13 13 14 15 15 13

ECMWFNIL_sfc_dewp_030.txt.gz
Dewpoint
20 21 21 20 22 24 23 22 22 21 21 22 22 23 23 24 25 25 25 25 26 26 28 29 30 30 31 31 32 32 32 32 32 33 32 31 30 29 30 29 29 27
19 21 22 20 21 22 22 23 22 22 20 21 22 23 23 23 23 24 24 24 23 24 25 26 27 28 29 29 30 30 31 31 31 32 31 31 31 30 30 29 28 28
18 19 20 20 20 21 22 22 23 23 22 22 22 23 24 24 23 23 24 24 23 23 23 24 24 25 26 27 28 29 29 30 30 30 30 31 31 30 30 30 29 28
18 19 18 19 20 18 19 18 19 20 21 21 20 21 22 23 23 22 23 24 23 23 23 24 24 24 24 25 26 27 28 28 29 30 30 30 30 30 30 30 30 29
20 19 20 19 20 18 18 19 18 20 20 22 22 20 20 21 20 20 21 21 22 21 22 22 23 23 24 23 25 24 24 26 27 28 29 29 30 30 30 30 30 29
21 21 21 20 20 20 17 20 20 21 20 21 23 21 21 21 20 20 21 21 20 20 20 20 20 21 22 23 24 24 24 24 24 26 27 27 28 29 29 30 29 29
18 19 17 20 17 20 18 18 21 22 20 22 23 20 22 21 20 20 21 21 21 21 20 19 19 19 19 21 21 21 22 23 24 24 24 25 26 27 27 28 29 29
17 18 18 18 16 17 19 18 19 20 20 21 20 21 21 21 20 20 21 21 21 21 20 20 19 19 18 18 18 18 19 22 23 23 23 23 24 24 24 26 27 27
17 17 16 16 15 16 17 17 17 19 20 20 19 19 21 21 20 21 21 21 21 20 20 20 19 19 19 18 18 17 17 17 19 20 21 21 22 23 24 25 25 25
14 16 14 15 14 15 16 16 17 18 19 20 19 20 19 19 20 20 20 20 20 20 19 19 19 19 19 19 19 18 17 17 16 16 17 18 19 20 22 23 24 24
13 14 14 13 14 14 15 16 16 17 18 18 17 17 17 17 18 18 19 19 19 18 18 18 18 19 19 19 19 18 18 18 17 17 17 16 16 17 21 21 22 23
13 13 13 13 13 14 14 15 16 16 16 16 17 16 16 16 15 15 16 15 16 17 18 18 18 18 18 18 18 18 18 18 17 17 17 17 16 16 16 16 18 20
12 12 13 13 13 14 14 14 14 14 14 14 15 15 15 15 14 14 14 14 14 15 15 16 17 17 18 18 17 17 17 16 16 17 17 17 17 17 16 16 16 17
15 14 15 15 15 15 15 15 15 15 15 15 15 15 15 14 14 14 14 14 14 14 14 15 15 14 14 14 14 15 15 15 15 16 16 16 16 17 17 17 17 17
15 15 16 15 15 15 15 16 16 16 16 16 16 15 15 14 14 13 13 13 13 14 13 13 12 12 12 12 13 13 15 15 16 17 17 17 18 18 18 18 19 19
14 15 15 15 15 16 16 16 16 16 16 15 14 14 13 13 12 13 13 13 13 13 13 12 12 11 15 18 20 18 17 18 18 18 18 18 18 19 19 19 19 19
14 14 15 15 15 16 16 15 15 14 14 13 12 12 12 12 13 13 12 12 13 12 11 11 10 11 18 21 23 24 20 18 18 19 19 18 18 18 18 19 19 19
14 14 14 14 14 14 13 13 12 11 11 11 11 11 12 12 11 11 11 10 10 10 10 10 10 16 19 21 22 23 23 19 19 19 19 19 18 18 18 18 18 18
13 13 12 12 11 10 10 9 9 9 9 9 9 10 10 10 9 9 9 9 9 8 8 8 8 14 17 20 21 22 23 21 18 19 19 19 18 17 17 17 17 18
11 9 8 8 7 7 7 7 7 7 7 8 8 8 8 8 7 7 7 6 6 5 5 5 5 11 17 19 19 20 21 20 16 17 17 17 16 16 15 15 15 15
7 6 5 5 5 5 5 5 5 5 5 5 5 5 5 5 4 4 4 5 5 5 4 5 3 13 16 17 18 19 20 19 14 13 12 13 13 13 14 15 15 15
4 4 3 3 3 3 2 2 2 2 2 3 3 2 3 3 3 3 3 3 3 3 3 2 1 12 14 15 17 18 19 12 10 9 8 8 8 7 7 9 12 13
2 1 1 1 1 0 -0 -0 0 0 0 1 1 1 1 1 1 1 2 2 1 1 0 0 0 7 13 15 16 17 15 8 8 9 9 8 7 7 6 6 6 6
0 -1 -0 -1 -1 -2 -2 -1 -1 -1 -1 0 -0 -1 -1 -1 -0 -0 -0 0 -0 -1 -0 -1 0 5 12 14 15 16 14 9 8 7 7 7 7 6 6 6 7 14
-1 -2 -2 -2 -2 -2 -3 -3 -2 -2 -1 -1 -1 -1 -1 -1 -1 -1 -2 -2 -1 -1 3 0 -1 3 10 12 14 15 11 9 9 8 8 7 7 6 5 4 4 8
-2 -3 -2 -3 -3 -3 -3 -3 -2 -2 -3 -2 -3 -2 -3 -3 -3 -3 -3 -3 -3 -2 -3 -2 -3 -2 1 12 13 15 15 9 8 8 7 7 7 7 7 8 7 5

ECMWFNIL_sfc_dewp_033.txt.gz
Dewpoint
20 19 19 20 21 22 20 20 20 19 19 20 20 20 21 22 22 22 22 22 22 21 22 22 22 22 24 23 25 26 27 28 27 29 29 29 29 29 30 30 29 29
20 21 21 19 21 21 21 21 21 21 20 20 20 21 21 22 21 22 22 22 21 21 22 22 22 22 22 22 23 23 23 24 24 28 28 27 28 28 28 28 28 28
18 19 18 17 18 19 19 21 21 21 21 21 21 20 21 22 20 20 21 21 20 20 21 21 21 21 21 22 22 22 22 22 22 25 26 25 27 27 27 27 28 27
19 19 19 19 18 18 19 18 18 18 19 20 20 20 21 21 20 19 20 22 20 19 20 20 20 20 20 20 21 20 21 21 22 24 24 23 23 25 26 26 28 28
19 19 19 19 19 18 17 18 18 18 17 18 19 19 20 19 18 17 18 17 18 18 19 19 19 19 20 19 19 18 18 19 19 21 21 21 21 23 24 25 25 26
18 19 19 18 19 18 15 17 18 19 18 18 20 19 20 19 18 17 18 17 17 17 17 16 16 17 18 19 19 18 18 18 18 19 18 18 18 20 22 23 23 23
16 17 17 18 15 18 16 17 17 19 18 20 19 17 19 19 18 18 18 18 18 18 17 17 16 16 16 16 16 15 16 17 18 18 17 16 17 17 17 18 20 21
17 18 19 18 16 18 17 18 17 17 18 19 17 17 18 19 18 18 18 17 17 17 16 16 15 16 16 16 15 15 15 16 16 15 15 15 15 15 16 17 17 17
17 16 16 15 13 15 15 15 17 17 19 18 17 17 18 18 18 18 18 18 17 17 16 16 15 15 15 15 15 15 15 15 16 15 14 14 13 13 14 15 16 16
13 14 13 14 13 13 14 15 16 17 18 18 17 17 17 17 17 17 17 17 16 16 16 15 15 15 15 16 16 16 16 16 15 15 14 14 14 13 13 13 13 14
12 14 13 13 13 13 13 14 15 16 17 17 16 16 16 16 16 15 15 15 14 14 14 14 14 15 16 16 16 16 16 16 15 14 14 14 13 13 17 14 13 13
13 13 13 13 13 13 14 14 15 15 15 15 15 15 15 15 14 14 14 13 13 12 12 12 13 14 14 15 15 15 15 14 14 13 13 13 13 13 13 13 14 14
13 13 13 13 14 14 15 15 15 15 15 15 15 15 14 14 13 12 11 11 11 11 12 12 12 13 13 13 12 12 12 12 12 12 13 13 13 14 14 14 15 15
15 14 15 15 15 15 15 15 15 15 15 15 14 13 12 10 10 9 10 10 11 11 11 12 11 10 10 10 10 11 12 13 14 15 15 16 16 16 16 16 16 16
14 16 15 14 15 14 14 13 13 12 11 10 9 8 9 8 9 9 9 9 9 9 9 9 8 8 8 10 12 15 16 16 17 17 17 17 17 17 17 17 17 17
14 14 14 13 13 12 11 10 9 8 8 7 7 7 7 8 8 8 8 8 7 7 7 7 6 6 11 16 19 16 15 15 16 16 16 16 16 16 16 16 17 17
12 12 12 11 10 9 9 7 7 7 7 7 7 7 6 7 7 6 6 6 6 5 5 4 4 5 13 17 19 20 16 15 16 16 15 15 15 15 15 15 15 16
11 9 8 7 7 7 6 6 6 5 5 6 5 5 5 6 5 4 4 4 3 3 3 3 2 9 14 17 19 20 20 15 15 15 15 14 13 13 12 12 12 13
8 6 5 5 5 4 4 4 4 4 3 3 3 4 4 3 3 3 2 2 2 1 1 1 1 9 14 17 18 19 20 18 14 13 13 13 12 10 10 10 9 8
4 3 2 2 2 3 3 2 2 1 1 2 2 3 3 2 2 2 2 1 1 1 0 0 -0 7 15 17 18 19 19 19 14 13 12 11 9 8 6 5 5 4
2 1 1 1 1 1 1 -0 -0 -0 0 1 1 2 1 1 1 0 0 1 0 0 -0 -1 -2 10 15 16 17 19 19 19 13 12 10 9 7 6 5 5 5 6
0 0 -0 -1 0 -1 -2 -1 -1 -1 -1 -0 0 0 0 0 0 -0 -1 -1 -1 -1 -1 -2 -2 11 14 15 17 18 20 13 10 9 8 7 7 6 5 5 4 4
-0 -1 -2 -2 -2 -2 -3 -3 -2 -2 -2 -1 -2 -1 -1 -2 -2 -2 -1 -1 -2 -2 -2 -2 -2 5 13 15 16 18 16 10 9 8 8 7 5 5 4 4 4 4
-1 -3 -3 -3 -4 -4 -4 -2 -3 -3 -3 -2 -2 -3 -2 -3 -3 -2 -2 -2 -2 -3 -3 -3 -2 4 12 14 16 16 15 10 8 7 7 7 6 6 5 5 5 10
-3 -3 -4 -5 -5 -4 -5 -4 -4 -4 -3 -3 -3 -3 -3 -3 -3 -3 -4 -3 -4 -3 1 -0 -2 2 10 13 14 16 12 10 9 9 8 7 7 6 5 4 3 7
-4 -4 -5 -6 -4 -4 -5 -4 -4 -4 -5 -4 -4 -4 -4 -4 -4 -4 -5 -5 -4 -4 -4 -4 -4 -3 -0 12 14 15 16 10 9 9 7 7 7 7 7 7 7 6

ECMWFNIL_sfc_dewp_036.txt.gz
Dewpoint
19 19 19 20 20 21 19 19 19 18 19 19 19 19 20 20 21 19 20 19 20 19 20 20 20 20 21 20 21 20 21 22 20 24 23 24 23 25 24 24 25 26
18 20 21 19 20 20 20 19 19 19 19 19 19 20 20 20 19 19 19 19 18 18 19 19 19 19 19 18 20 18 18 19 18 23 22 21 22 23 22 23 24 25
18 18 17 17 17 18 18 20 19 19 19 20 20 20 21 21 19 18 18 19 17 17 18 18 17 17 18 17 18 16 17 17 16 19 20 19 21 21 21 22 23 24
18 18 18 17 18 18 19 18 18 18 18 18 18 19 21 21 18 17 18 19 17 17 17 17 18 17 18 18 18 17 17 17 17 18 17 16 17 19 18 21 22 22
17 18 19 19 18 18 17 17 17 17 18 18 18 19 19 18 17 17 17 16 17 16 16 16 16 16 17 16 17 16 16 17 17 18 17 15 15 16 17 18 17 17
18 18 19 18 18 16 16 17 18 17 18 17 17 18 18 17 17 16 17 16 16 15 15 14 14 15 15 15 15 15 15 15 15 16 15 14 14 15 16 16 15 15
16 16 16 17 17 18 16 17 18 19 18 19 17 17 18 17 17 17 17 17 16 16 15 15 15 14 14 15 14 14 14 14 15 15 14 13 14 13 13 14 14 13
16 18 18 15 14 16 15 17 17 17 19 17 17 17 18 17 17 17 17 17 16 16 16 15 15 15 15 15 14 14 14 14 14 14 14 13 13 12 12 13 12 12
16 15 14 14 12 14 14 14 16 17 19 17 17 17 17 17 17 17 17 16 15 15 14 13 14 13 14 14 14 14 14 14 14 14 13 13 12 12 12 12 12 12
14 14 13 13 13 13 13 14 15 16 17 17 17 16 16 16 16 16 14 14 13 12 12 12 12 12 13 14 14 14 14 13 13 13 13 12 12 12 12 12 12 12
13 14 13 13 13 13 13 14 14 15 15 15 15 14 14 14 13 13 12 11 10 10 10 10 11 12 12 12 12 13 13 12 12 11 11 11 12 12 16 13 13 13
13 13 13 13 13 14 14 14 15 15 14 14 14 13 12 12 11 9 10 9 9 9 10 10 10 10 10 10 10 10 10 10 11 11 12 13 13 14 14 14 14 14
13 13 13 14 15 15 15 15 14 14 13 12 13 11 10 8 7 7 8 9 8 8 8 8 8 8 7 8 8 8 10 12 13 14 14 14 14 14 15 15 15 15
14 14 15 15 15 15 14 13 12 10 9 9 9 7 7 6 7 7 7 7 7 7 7 7 6 5 5 6 7 10 12 13 13 13 13 13 13 13 14 14 14 14
14 15 14 14 14 13 10 8 7 7 6 6 6 6 6 6 6 5 5 5 5 4 4 4 3 3 3 5 10 13 14 14 14 14 13 13 13 13 13 13 13 12
14 14 13 12 9 8 6 6 5 5 5 4 4 4 4 5 5 4 4 3 3 3 2 2 2 1 6 14 18 15 15 15 14 14 14 13 13 13 12 12 12 12
12 11 10 8 7 5 4 3 4 3 2 2 2 2 2 3 3 2 2 2 1 1 1 0 0 1 11 16 18 20 17 15 15 15 14 13 12 11 11 11 10 10
10 8 6 5 4 3 3 2 1 1 1 1 0 1 2 1 1 1 1 1 0 0 -0 -0 -0 7 13 16 18 20 21 17 16 15 14 12 12 11 11 10 9 8
6 3 3 1 1 1 0 -0 -1 0 -0 -0 -0 0 -0 -0 0 0 -0 0 -0 -1 -1 -1 -1 7 13 17 19 20 21 19 15 14 13 13 12 11 9 8 6 5
3 1 0 0 -0 -1 -1 -2 -2 -1 -2 -2 -1 0 -0 -1 -2 -0 -0 -1 -1 -1 -1 -2 -2 6 14 18 19 20 20 19 15 14 13 11 10 8 7 6 5 5
1 -0 -1 -1 -2 -2 -3 -3 -3 -3 -2 -1 -1 -0 -1 -1 -1 -2 -2 -2 -2 -2 -2 -2 -3 10 15 17 18 19 20 19 14 12 10 9 7 6 6 6 5 4
-1 -2 -2 -3 -2 -4 -4 -3 -3 -4 -3 -2 -2 -2 -4 -2 -2 -4 -3 -3 -2 -3 -3 -3 -3 10 14 16 18 19 20 13 11 9 9 9 8 6 5 5 4 4
-1 -3 -3 -4 -4 -4 -6 -4 -3 -4 -3 -4 -4 -3 -2 -3 -4 -4 -3 -3 -3 -4 -4 -4 -3 4 13 15 17 18 16 10 10 9 9 8 7 6 6 5 5 5
-1 -3 -4 -5 -6 -7 -6 -3 -5 -6 -6 -6 -4 -4 -4 -5 -4 -4 -4 -4 -4 -4 -4 -4 -2 3 12 14 16 16 15 11 10 9 9 8 8 7 6 6 6 11
-3 -4 -5 -5 -6 -5 -7 -6 -7 -7 -6 -7 -6 -7 -5 -5 -4 -5 -5 -5 -5 -5 0 -1 -3 1 9 13 15 16 13 11 11 10 10 10 9 7 6 5 5 9
-4 -4 -5 -6 -5 -6 -8 -7 -7 -7 -8 -7 -7 -7 -6 -6 -5 -5 -6 -6 -6 -5 -5 -5 -5 -4 -1 12 14 16 17 12 11 11 10 9 9 9 8 8 8 8

ECMWFNIL_sfc_dewp_039.txt.gz
Dewpoint
20 20 20 20 20 20 19 19 19 19 19 18 18 19 19 19 20 19 19 19 19 19 19 19 19 19 20 19 20 18 18 18 18 20 20 20 19 22 21 21 22 21
21 21 21 21 21 21 20 20 19 19 19 19 19 19 20 20 20 20 20 19 19 19 19 19 18 19 18 18 19 17 17 17 17 22 19 19 18 19 19 20 21 21
20 20 20 19 19 20 20 21 20 20 19 20 21 20 21 21 20 20 19 19 18 18 18 18 18 18 18 18 19 17 17 17 17 18 18 17 17 17 17 18 18 20
20 20 19 20 20 20 20 20 20 20 20 20 19 21 20 21 19 18 18 19 17 17 17 17 17 16 17 17 18 15 17 16 16 18 17 16 16 16 16 16 17 17
20 20 20 20 20 20 20 20 19 19 19 19 20 20 18 18 18 18 17 17 16 16 15 15 16 15 16 16 16 15 15 15 16 16 15 15 15 15 15 15 14 14
20 20 20 20 19 19 18 19 19 19 19 18 19 19 19 19 17 17 17 16 15 15 15 15 14 14 15 15 15 14 13 13 13 14 13 12 13 14 15 15 14 12
16 17 17 18 18 18 18 18 20 20 19 19 18 19 18 18 17 18 17 16 14 14 14 13 13 13 13 13 12 12 12 12 12 12 12 11 11 11 12 11 11 11
15 15 14 14 14 14 16 17 18 19 19 18 18 18 18 17 17 17 16 15 13 13 13 12 12 13 12 12 11 11 11 12 11 11 11 11 11 11 11 11 11 11
13 13 13 13 13 13 14 14 15 17 18 16 16 15 16 16 14 15 13 12 11 10 10 9 10 10 10 10 10 10 10 10 10 10 10 10 10 10 11 11 11 11
13 13 13 13 13 13 14 14 15 15 16 15 14 13 11 12 12 10 9 9 8 8 8 8 9 9 9 9 9 9 9 9 9 9 9 10 10 11 11 12 12 12
13 13 13 13 13 14 14 14 15 14 14 13 11 10 10 9 8 7 7 7 6 7 7 7 7 6 6 6 6 7 7 7 8 9 10 11 11 11 14 12 12 11
13 13 13 14 14 14 14 14 14 13 10 10 10 7 7 6 6 6 6 6 5 6 6 5 5 5 4 4 4 4 5 7 10 11 11 11 11 11 11 11 11 11
13 13 14 14 15 14 14 12 10 10 7 7 7 6 5 5 5 5 4 5 5 4 3 3 3 2 2 2 2 3 7 10 12 12 12 12 12 11 11 11 11 11
14 14 15 15 14 13 10 9 7 6 5 5 6 4 4 4 3 3 3 4 3 2 2 2 1 1 1 0 2 7 11 12 13 13 13 12 12 12 11 11 11 11
15 14 14 14 12 9 7 6 5 4 4 4 3 3 3 3 2 3 3 1 1 1 1 0 -0 -0 -1 1 8 13 14 15 14 14 14 13 13 12 11 10 10 10
14 14 12 10 8 6 5 4 3 3 3 2 2 2 2 2 2 1 1 0 0 -0 -1 -1 -1 -1 4 13 18 16 16 16 16 16 15 14 13 12 11 10 10 9
13 12 9 8 6 4 6 4 2 3 3 2 1 1 1 1 1 -0 -1 -0 -1 -1 -1 -2 -1 -1 11 17 19 20 18 17 17 16 15 14 13 11 11 10 10 9
11 9 7 6 4 5 5 4 3 3 1 1 0 1 1 1 -1 -1 -1 -1 -1 -2 -2 -2 -2 6 13 16 18 20 21 18 18 16 15 14 12 11 10 9 8 8
7 7 6 5 4 4 3 3 1 1 0 -0 -0 0 1 -1 -1 -1 -2 -2 -2 -2 -2 -2 -2 7 12 16 19 20 21 20 17 17 15 14 11 10 8 7 6 6
5 5 4 4 2 2 1 1 -1 -0 -1 0 -0 0 -0 -1 -1 -1 -1 -2 -3 -3 -3 -3 -3 5 14 17 19 19 21 21 18 16 13 11 9 8 6 6 6 5
4 3 2 2 1 0 -0 -1 -2 -1 -1 -0 -0 -1 -0 -1 -1 -1 -2 -2 -2 -2 -3 -3 -4 10 15 16 18 19 21 21 16 12 10 9 7 7 7 6 6 5
2 2 2 1 0 -1 -2 -1 -1 -2 -3 -2 -2 -1 -1 -1 -1 -2 -2 -2 -2 -2 -3 -3 -4 9 13 15 17 19 20 16 13 11 10 10 9 7 6 6 6 6
2 1 0 -0 -1 -1 -3 -2 -1 -3 -3 -2 -3 -2 -2 -3 -3 -3 -3 -3 -3 -3 -3 -3 -3 4 12 15 17 19 17 13 13 11 10 9 8 7 7 7 7 6
1 0 -0 -1 -2 -3 -3 -1 -3 -3 -3 -3 -3 -3 -3 -4 -4 -4 -4 -4 -4 -4 -4 -3 -2 3 11 14 16 17 17 14 12 11 11 11 10 9 8 8 8 13
-0 -1 -1 -3 -3 -1 -4 -3 -4 -4 -3 -4 -4 -5 -5 -5 -5 -5 -6 -5 -5 -4 -0 -1 -2 1 8 12 15 16 15 13 13 12 11 10 10 9 9 9 9 12
-1 -1 -2 -4 -2 -4 -4 -4 -4 -5 -6 -5 -6 -6 -6 -6 -6 -6 -7 -7 -6 -5 -5 -4 -5 -4 -1 12 14 16 17 14 13 12 11 11 11 11 11 12 12 11

ECMWFNIL_sfc_dewp_042.txt.gz
Dewpoint
20 20 20 19 18 21 19 19 18 19 18 17 16 16 16 19 20 20 20 19 20 19 20 20 20 21 23 20 21 19 18 20 19 20 21 20 20 22 23 21 23 19
21 20 19 19 20 20 19 20 19 18 18 18 18 18 19 19 20 20 20 20 19 20 20 20 20 19 19 18 20 19 17 18 20 22 20 21 18 19 19 21 20 20
20 22 21 20 20 21 21 21 21 19 18 19 19 18 20 20 20 19 19 19 19 18 19 19 19 18 19 19 20 18 17 19 18 19 19 19 18 18 18 19 18 20
21 21 21 21 21 20 20 20 20 19 20 19 19 20 19 22 20 19 19 19 18 18 19 19 19 18 19 19 19 16 18 17 18 19 18 16 17 17 17 17 17 17
20 20 20 20 20 20 21 21 20 20 19 20 21 19 17 19 19 17 17 17 17 17 16 17 17 17 17 16 17 15 14 14 16 17 15 15 16 16 17 16 16 16
20 19 19 20 20 20 19 20 20 20 20 19 20 17 18 18 16 16 16 14 13 13 13 14 14 14 15 15 14 13 10 10 10 13 11 10 13 14 17 17 15 13
19 19 19 19 20 21 19 19 19 19 18 18 17 15 14 14 13 13 12 13 12 12 11 12 12 12 12 11 9 10 8 9 10 9 8 8 9 10 13 13 10 10
15 17 18 18 19 19 18 18 17 17 16 13 13 14 13 13 12 13 11 10 10 9 10 9 10 11 9 7 6 6 6 12 11 7 7 7 8 7 8 12 10 10
13 13 13 12 12 12 12 13 13 13 11 9 8 9 11 9 9 9 8 7 6 7 7 7 8 6 6 5 5 5 4 5 7 6 7 7 8 8 8 9 9 9
12 12 12 12 12 12 11 11 11 9 9 8 8 7 7 8 9 6 5 5 4 5 5 5 5 4 4 4 4 4 3 4 4 5 6 7 8 8 9 9 9 9
12 12 12 12 12 12 11 10 8 7 6 5 4 6 6 4 4 4 4 5 4 5 4 4 3 3 2 2 1 2 2 3 4 7 8 9 9 9 12 10 9 9
12 12 12 12 12 12 11 9 7 5 4 5 4 6 3 3 3 2 4 2 3 4 3 2 2 1 1 0 0 0 2 4 7 9 10 11 11 11 11 10 10 9
12 13 13 13 13 12 10 7 5 4 4 4 4 3 2 3 2 2 2 3 2 2 1 1 0 -0 -1 -1 -1 0 4 8 11 12 12 12 12 11 11 11 10 10
13 13 13 13 12 10 8 5 4 3 3 3 4 2 2 3 1 2 2 2 1 0 0 0 -1 -2 -2 -2 0 6 11 13 14 14 13 13 13 12 12 11 10 9
13 13 14 14 11 9 7 5 4 3 4 4 3 2 3 2 1 2 2 1 0 0 -0 -1 -1 -2 -2 0 9 13 15 16 15 15 14 14 14 13 12 11 10 9
14 14 13 12 10 7 5 4 3 4 4 4 4 3 3 2 2 2 1 0 1 -0 -1 -1 -1 -2 3 12 19 18 17 17 16 16 16 15 14 13 12 10 9 9
14 14 12 12 9 7 11 8 5 7 9 7 5 4 4 3 3 1 0 1 0 -0 -1 -1 -1 -1 9 17 20 21 19 18 18 18 17 15 14 12 11 11 9 8
15 14 13 12 10 12 11 11 10 9 8 8 7 6 4 4 2 1 -0 -0 -0 -1 -1 -1 -1 6 13 17 19 20 21 19 19 18 18 16 15 13 10 9 8 6
15 14 15 14 13 11 11 10 10 10 8 8 7 6 5 4 2 2 1 0 -1 -1 -1 -1 -1 6 12 16 18 20 21 20 19 18 18 17 14 11 9 6 6 5
15 17 15 14 11 10 9 10 9 9 8 6 6 5 6 5 4 3 3 0 -1 -1 -1 -1 -1 5 12 17 19 20 21 21 19 18 17 15 11 9 7 6 5 5
15 15 14 11 10 10 9 9 7 8 7 6 6 7 7 6 5 5 4 3 3 2 -1 -0 -1 8 14 17 18 19 21 21 18 17 15 12 10 9 8 7 6 5
15 15 13 11 8 8 9 9 8 8 7 6 4 4 4 3 4 4 4 4 3 2 0 1 -1 9 13 16 17 19 20 18 15 14 13 13 12 9 8 7 7 6
13 13 11 10 9 9 9 9 9 7 5 4 4 5 5 4 4 3 3 2 2 2 1 1 2 5 11 15 17 18 18 15 15 14 13 13 10 10 9 8 8 7
12 14 13 11 10 10 9 8 7 6 5 3 4 4 5 4 2 2 1 1 1 1 1 0 2 5 11 15 16 17 17 15 14 13 13 12 13 11 10 9 9 14
12 12 12 11 10 10 8 9 7 5 4 3 2 3 3 2 0 0 1 0 0 0 2 3 3 5 9 12 15 16 16 15 14 13 12 12 12 12 10 10 11 14
11 12 11 11 10 9 6 5 5 2 2 2 1 0 -0 0 -1 -1 -0 -1 -1 -1 -0 0 -0 0 3 11 14 16 17 15 14 13 12 12 12 12 12 14 14 13

ECMWFNIL_sfc_dewp_045.txt.gz
Dewpoint
21 20 20 19 19 21 18 19 18 17 15 15 15 16 18 20 21 21 20 21 21 21 22 21 20 22 23 20 22 19 18 21 19 20 22 21 21 23 24 22 23 20
20 19 19 19 20 20 19 20 19 18 17 17 17 17 19 20 20 22 22 21 20 20 21 21 20 20 20 19 22 19 17 19 20 22 21 22 19 20 20 21 21 20
20 20 19 19 20 22 21 21 21 20 19 19 18 18 22 20 20 20 20 21 20 20 20 21 21 20 20 20 21 19 18 21 19 19 20 21 20 20 19 20 19 22
21 21 21 22 23 22 22 20 20 20 20 20 19 21 22 23 22 21 20 20 20 20 20 20 20 19 20 20 21 17 19 17 19 19 19 17 19 19 19 19 18 18
22 21 21 21 22 21 22 21 21 20 20 20 21 21 20 22 20 19 18 18 18 17 17 17 17 17 17 17 18 15 14 14 16 16 14 14 16 17 18 18 17 17
22 22 22 22 22 22 21 21 21 21 21 20 20 19 20 19 17 16 16 15 14 13 14 14 15 14 15 15 14 13 12 14 12 13 12 12 13 14 18 18 16 14
21 21 21 22 22 22 21 21 21 21 20 19 17 17 16 15 14 14 13 13 13 13 12 13 13 13 12 11 11 10 8 11 13 10 8 8 10 11 13 14 12 12
20 20 21 22 21 20 20 20 19 19 18 16 15 16 15 15 14 15 12 11 11 10 11 10 11 10 10 8 6 7 5 14 14 8 6 6 7 7 8 14 10 10
19 19 20 20 20 19 18 17 16 15 14 13 13 13 13 12 12 11 10 9 8 8 7 8 8 6 6 5 5 5 4 4 8 4 4 5 6 7 8 9 9 9
16 16 15 15 14 14 13 14 13 12 13 12 12 11 10 11 11 8 8 6 5 5 4 4 5 4 3 2 4 2 2 4 3 3 4 6 7 8 8 8 9 9
13 13 12 12 12 11 11 10 8 8 8 7 7 7 8 5 6 5 3 6 8 5 5 3 2 2 3 2 1 0 0 1 2 4 6 8 9 9 12 10 9 9
12 12 12 12 12 11 9 8 6 6 6 6 7 7 3 3 2 2 3 1 2 2 1 1 1 0 -0 -1 -1 -1 -1 1 4 7 9 10 11 11 11 10 10 10
12 12 13 12 12 10 8 6 4 4 4 4 3 3 1 2 2 1 2 2 1 1 0 -0 -0 -0 -0 -1 -1 -1 1 5 9 11 12 13 12 12 11 11 11 10
13 13 13 13 12 10 8 5 4 3 4 4 4 2 1 2 1 1 1 1 1 0 0 1 -1 -1 -1 -2 -2 1 7 12 13 14 14 14 14 13 13 12 12 11
13 13 13 14 12 10 8 6 5 3 5 4 3 3 4 2 2 2 2 1 0 0 -0 -1 -1 -1 -2 -2 4 10 14 16 16 16 15 14 14 14 14 13 12 10
14 14 14 14 12 10 8 7 5 6 6 5 6 4 3 3 2 2 2 1 2 0 -0 -1 -1 -0 3 9 14 16 18 18 17 17 17 16 15 14 13 12 11 10
15 15 15 14 13 11 15 11 7 10 12 10 8 7 7 5 4 2 2 2 2 0 0 0 -0 -0 8 13 17 21 20 18 18 18 18 17 16 15 13 12 11 10
16 17 17 16 16 18 17 16 14 14 14 13 11 9 8 7 4 4 3 1 1 1 0 1 0 6 11 15 18 21 22 20 20 19 18 17 16 15 14 13 11 7
17 18 20 20 19 18 18 17 16 15 14 13 12 12 10 8 5 5 2 2 1 1 1 1 1 7 12 16 18 20 22 21 20 19 18 18 16 16 15 12 9 7
20 22 22 21 20 19 16 16 15 15 14 13 12 11 10 8 8 7 6 3 1 1 1 1 1 7 12 15 18 20 22 22 20 18 18 17 17 16 13 9 7 6
22 22 21 21 20 18 16 15 14 14 13 12 11 11 11 11 9 9 9 8 7 5 1 2 2 9 14 16 19 21 21 21 19 18 18 17 15 12 10 9 8 7
23 22 21 20 17 16 16 15 15 15 14 11 11 10 10 10 9 9 9 8 7 7 5 5 3 11 14 16 19 20 21 19 18 17 15 15 14 12 12 10 8 7
22 21 21 19 17 17 16 16 15 13 12 11 10 10 10 9 9 8 8 8 7 6 5 5 6 8 13 15 17 19 20 17 16 14 14 14 13 13 11 10 10 9
21 22 21 19 17 16 16 16 15 13 12 10 10 10 10 10 9 7 7 6 6 6 5 4 5 7 12 15 17 19 19 16 15 15 14 14 13 12 12 12 12 15
20 21 21 19 17 16 15 15 14 13 11 9 8 9 10 8 6 6 5 5 5 5 6 6 5 7 12 15 16 17 17 16 15 14 13 13 13 13 12 12 11 13
21 21 21 19 18 17 15 14 13 10 9 8 7 6 6 5 3 4 4 4 4 4 3 4 4 4 6 12 14 16 18 16 15 14 13 13 13 13 13 14 14 14

ECMWFNIL_sfc_dewp_048.txt.gz
Dewpoint
23 22 21 21 21 22 18 17 17 16 17 19 19 21 22 23 24 23 23 23 23 23 23 22 22 22 24 23 24 21 22 23 22 22 21 23 21 21 23 21 21 21
21 22 23 22 23 22 20 20 18 18 18 19 20 21 22 23 24 24 23 22 23 23 23 23 23 22 22 22 23 20 20 21 19 24 21 21 20 20 20 20 20 20
21 20 20 20 20 21 21 21 20 20 20 20 21 22 24 23 23 23 23 23 22 22 23 23 22 22 22 21 22 20 20 20 19 19 21 20 20 19 19 19 19 20
21 22 22 22 22 21 22 21 21 20 20 21 22 24 24 24 23 22 22 24 22 21 22 22 21 20 20 19 20 18 18 19 19 18 18 18 19 19 19 19 20 19
23 23 23 23 22 22 21 20 21 21 21 21 22 23 24 23 23 22 22 21 20 19 19 19 19 18 19 18 18 15 17 16 17 16 16 15 16 18 18 18 18 17
23 23 23 23 22 22 22 22 21 21 22 22 22 23 23 22 21 19 19 17 17 17 17 18 17 16 17 15 16 14 14 15 15 14 13 12 13 15 18 18 16 15
22 22 22 23 23 22 22 22 22 23 22 21 21 20 19 18 18 17 17 17 17 17 16 16 15 13 15 13 13 11 10 14 14 12 9 9 12 12 13 14 14 13
21 22 23 23 22 22 22 22 21 20 20 19 17 19 18 18 17 17 15 15 15 14 13 14 12 12 11 8 8 9 8 16 15 9 6 6 8 8 11 15 12 11
21 22 22 21 21 21 20 20 19 18 18 17 16 16 17 16 15 15 14 13 12 13 12 10 9 7 7 7 7 6 6 5 11 5 5 5 6 7 9 11 10 11
20 21 20 19 19 19 18 17 17 16 17 16 15 15 14 15 13 12 12 10 10 8 8 6 6 4 4 3 6 3 2 5 3 3 4 5 7 8 8 9 10 10
19 19 18 17 17 16 14 13 13 13 14 13 12 12 12 11 11 8 6 8 10 8 6 4 3 4 5 3 2 0 0 3 1 3 6 7 9 9 18 13 10 10
16 16 15 14 13 12 11 11 10 10 10 11 11 9 7 7 6 7 4 3 4 4 2 2 1 0 0 0 -0 -0 -0 0 3 5 8 10 11 11 11 11 11 11
14 14 13 13 12 10 9 8 8 8 7 8 8 4 2 2 1 2 6 1 2 2 2 1 1 0 1 1 1 0 0 2 6 10 12 13 14 13 13 12 12 11
13 13 13 13 11 9 7 6 6 6 6 6 6 3 3 2 2 1 4 2 2 1 1 3 2 2 0 -0 -0 1 7 12 14 15 15 15 14 14 14 14 13 13
14 14 14 15 12 10 8 7 7 6 6 6 6 5 5 2 2 2 2 2 1 1 0 1 0 -1 -1 -1 5 11 15 16 16 16 15 15 15 15 15 15 14 13
14 16 15 14 12 11 9 8 7 8 8 8 8 6 5 4 2 3 2 2 2 1 0 0 0 0 8 12 15 14 17 17 17 15 15 15 16 15 15 15 14 13
15 16 15 15 14 12 14 11 10 12 13 12 10 8 7 6 3 3 3 2 2 1 1 1 1 2 10 15 17 20 19 18 17 16 17 16 15 15 15 15 15 13
16 17 17 16 16 16 15 15 15 15 14 13 12 10 9 8 5 4 3 2 2 1 1 2 1 10 13 16 19 20 21 19 18 18 18 17 16 15 15 15 15 14
17 17 18 18 17 15 15 15 14 13 14 13 12 11 11 9 6 5 4 3 2 2 1 2 2 9 15 17 19 20 21 21 20 19 18 17 16 16 16 15 15 12
18 20 19 18 17 16 15 15 14 14 14 14 13 12 11 8 6 6 5 3 3 2 2 2 2 9 14 17 18 20 21 21 20 19 18 17 16 16 16 15 13 9
19 20 19 18 17 16 15 15 14 14 15 14 13 12 10 9 8 8 7 6 4 2 2 2 2 10 14 16 18 20 21 22 20 18 17 17 17 16 15 12 10 9
20 20 20 19 17 16 15 15 15 15 14 13 11 10 7 8 7 7 8 7 5 3 2 3 3 13 16 17 18 20 22 20 18 17 16 16 15 14 13 12 11 10
20 20 20 19 18 17 16 16 16 14 13 11 10 11 10 10 9 8 8 7 5 4 4 4 3 10 15 17 18 21 21 18 17 16 14 13 13 12 12 12 12 11
20 21 20 19 18 17 16 16 14 12 12 11 10 10 10 9 8 7 6 6 6 5 5 3 3 8 14 16 18 20 20 17 15 14 13 13 14 13 13 13 12 15
21 21 21 20 18 18 16 15 14 13 12 11 9 9 9 8 8 6 4 3 4 4 9 6 3 7 14 17 18 19 20 18 15 14 13 13 12 13 13 13 12 14
21 22 21 20 19 18 16 15 14 11 10 10 8 9 8 7 6 6 4 4 3 3 3 6 5 3 6 16 18 20 22 17 15 13 12 12 13 13 13 13 13 13

ECMWFNIL_sfc_dewp_051.txt.gz
Dewpoint
21 19 18 16 16 16 14 15 17 17 18 19 19 20 21 22 23 22 22 21 21 21 21 21 22 22 23 22 22 21 21 22 22 21 22 22 20 20 21 20 20 20
21 21 22 20 21 21 18 17 17 18 19 20 21 22 23 22 22 21 21 22 22 22 22 21 22 21 21 21 20 20 19 17 18 23 21 21 20 19 19 19 19 19
22 22 21 19 18 17 18 18 19 19 20 21 22 22 23 23 22 22 22 21 21 21 22 22 21 21 21 22 21 21 19 17 16 19 20 19 20 19 19 18 19 19
21 20 20 19 19 18 19 19 20 21 21 21 21 22 22 23 22 22 22 23 21 21 21 20 20 20 19 19 18 19 18 17 17 18 17 17 19 19 18 19 21 18
20 21 21 20 20 20 19 19 19 20 20 21 21 21 21 21 21 21 21 21 21 20 19 19 18 17 18 17 15 16 17 16 17 16 14 14 15 17 18 19 17 15
22 22 22 21 20 19 18 19 19 20 21 20 20 21 21 21 20 20 19 19 18 17 17 16 16 15 15 15 14 14 14 14 15 14 12 11 11 15 18 17 16 14
21 21 21 21 19 19 19 19 20 20 19 20 22 21 21 20 19 18 17 17 16 17 15 15 13 13 14 13 12 12 14 14 13 10 7 9 12 10 14 14 14 12
21 21 21 21 20 19 19 19 20 20 21 21 20 20 18 17 16 17 16 15 14 15 14 14 13 12 11 9 7 6 9 14 9 6 6 6 7 7 10 13 11 11
21 21 21 20 19 19 19 20 20 20 20 19 18 17 17 15 15 15 15 14 13 13 12 11 11 8 7 6 6 5 5 6 6 5 5 6 6 7 8 10 9 10
21 21 20 19 19 19 19 19 19 19 18 17 16 16 15 15 14 13 13 11 10 10 9 8 7 5 4 5 4 3 3 3 3 3 5 6 6 8 9 9 10 10
20 20 19 19 18 19 18 18 17 17 16 15 14 13 13 12 12 9 8 8 7 7 6 5 4 3 3 3 3 2 1 2 2 4 5 7 8 9 17 14 11 11
20 19 18 18 18 18 17 16 15 15 14 14 13 12 10 8 7 6 6 6 6 6 4 3 3 3 2 1 0 0 0 1 3 5 6 9 11 12 11 11 11 11
19 18 18 18 17 16 15 14 13 13 13 12 12 10 7 6 5 5 6 5 5 4 2 2 1 1 0 0 -0 0 -0 1 4 8 11 13 13 13 13 13 13 12
18 18 17 17 15 14 13 12 11 12 11 11 10 7 6 5 5 4 4 4 4 2 2 3 1 1 1 0 0 0 5 9 12 14 14 14 14 14 14 14 14 14
18 17 16 16 14 13 12 11 10 10 11 10 8 7 6 5 5 5 4 3 2 2 2 2 1 1 0 -0 1 9 11 15 15 14 14 14 14 14 14 14 14 14
17 17 15 15 13 12 11 11 10 10 10 10 9 8 6 6 5 5 4 3 2 1 1 1 1 -0 8 12 16 13 16 16 16 14 14 14 14 14 14 14 14 14
16 16 15 15 14 13 14 13 12 13 13 14 12 9 9 8 6 5 5 3 3 2 1 1 0 2 11 15 17 18 17 16 15 13 14 14 14 14 14 14 14 14
16 17 16 16 16 17 16 16 15 15 15 15 13 12 10 9 6 5 5 4 3 2 2 2 1 12 14 17 21 21 22 17 14 13 13 15 15 14 14 14 14 14
17 18 18 19 19 18 17 17 17 16 16 14 13 12 10 9 6 5 5 5 4 3 2 3 2 14 16 19 21 22 25 21 15 15 16 16 16 15 14 14 14 14
18 20 20 20 19 19 17 17 16 16 14 13 11 11 10 8 7 7 7 5 4 3 4 3 3 14 18 19 21 23 24 23 17 17 18 17 16 15 15 15 14 13
19 19 19 19 20 19 18 16 15 14 13 12 11 11 10 9 8 8 8 8 7 5 4 3 3 15 17 20 22 23 25 23 18 18 18 17 16 16 15 15 14 14
19 21 21 20 19 18 16 16 14 13 13 12 11 11 9 9 9 10 10 8 7 5 4 5 3 16 18 19 22 23 25 19 19 19 17 16 15 15 15 15 13 12
19 20 20 19 18 17 16 15 15 13 13 13 11 12 11 10 9 9 8 8 6 5 5 5 4 14 18 20 22 23 24 19 19 17 16 15 14 14 13 13 13 12
19 21 20 19 18 17 16 16 15 14 14 13 12 11 11 10 9 8 7 7 6 6 6 5 5 11 19 21 23 23 23 18 18 15 14 13 12 13 13 13 13 15
20 20 20 19 18 18 17 17 16 15 14 13 12 11 11 9 8 7 6 5 6 6 10 7 5 9 18 21 23 23 22 17 16 14 13 12 11 11 12 13 12 15
21 21 21 20 19 18 18 17 16 13 12 12 11 11 10 8 8 7 6 6 5 5 5 8 5 4 9 21 22 23 24 18 16 13 11 11 11 11 10 10 12 12

ECMWFNIL_sfc_dewp_054.txt.gz
Dewpoint
13 11 11 10 11 13 13 14 15 15 15 16 16 18 19 21 23 21 21 21 21 22 22 22 22 22 23 22 22 21 21 21 21 21 20 20 19 20 20 20 19 19
13 14 15 13 16 17 15 15 15 15 16 17 19 20 22 22 21 21 21 21 21 21 21 21 21 20 20 19 19 18 19 20 21 23 19 19 19 19 19 19 19 19
16 16 14 13 13 14 15 16 17 17 18 19 21 21 22 21 21 20 20 20 20 20 21 21 20 20 19 19 18 18 17 17 18 20 20 19 19 18 18 19 18 18
17 16 15 14 15 15 17 18 18 19 20 21 20 21 21 22 20 20 20 22 20 20 20 20 20 20 20 20 18 16 15 16 17 18 19 19 19 18 18 19 20 17
18 17 16 16 16 17 18 17 19 19 20 20 20 21 21 20 19 20 19 19 19 19 19 19 18 18 19 18 16 14 15 15 16 15 15 15 17 18 18 17 15 15
20 19 18 17 18 17 17 18 19 19 19 19 19 20 19 19 18 18 19 18 18 18 17 17 16 16 16 16 15 14 13 11 13 13 11 11 13 16 18 16 14 13
19 19 18 18 18 17 17 18 19 19 19 18 20 19 19 18 18 18 18 18 17 17 15 14 14 14 14 13 13 12 11 10 8 8 8 10 11 12 15 13 11 11
19 19 19 18 17 17 17 18 19 19 18 19 18 19 19 18 18 18 18 17 16 15 14 13 12 12 11 10 10 11 11 9 7 6 6 7 7 8 11 11 10 10
19 18 18 17 16 16 16 18 18 18 19 18 18 19 19 18 17 17 17 16 15 14 13 11 11 9 7 6 7 9 9 7 6 5 5 6 6 7 9 10 10 11
19 18 17 16 15 16 16 17 18 18 19 18 18 18 17 17 17 16 15 14 13 12 10 9 7 6 5 5 4 5 5 5 4 4 5 6 6 7 9 10 10 10
18 18 16 16 15 15 16 17 17 18 18 17 17 16 16 15 15 14 13 12 10 9 8 7 5 5 4 4 4 3 3 3 3 4 5 6 7 8 15 11 11 10
18 17 16 15 15 15 16 16 17 18 17 17 16 15 14 13 13 12 11 9 8 7 6 5 4 3 3 3 3 2 1 1 3 4 6 8 9 11 14 12 11 11
18 17 16 16 16 15 16 16 17 17 16 15 15 14 13 12 11 10 10 7 6 6 5 4 3 3 2 2 1 1 1 1 3 4 7 9 11 12 12 12 11 11
18 17 16 16 16 16 16 16 16 16 16 15 14 12 11 10 9 8 7 6 5 5 4 4 3 2 2 1 0 0 1 1 4 7 10 13 14 14 14 14 13 13
18 17 17 17 17 17 17 16 16 16 15 14 14 12 11 9 8 7 6 6 5 5 4 3 2 1 1 1 0 0 2 3 7 11 14 14 14 14 14 14 13 13
18 18 17 18 18 17 17 16 16 16 15 15 14 12 10 9 7 7 6 6 6 4 3 3 2 1 10 15 13 4 5 10 13 14 15 15 15 14 14 14 14 13
18 18 18 18 18 17 19 18 16 17 17 17 15 13 11 10 9 8 7 7 7 5 4 3 2 3 16 19 18 18 11 12 14 15 15 15 15 14 14 14 14 14
18 19 18 19 19 20 20 20 19 19 18 18 17 14 13 12 10 8 7 6 6 5 4 3 2 12 19 21 21 21 20 14 14 14 14 15 15 14 14 14 14 14
19 19 19 20 20 20 20 20 20 19 19 18 16 15 14 12 10 10 8 7 6 5 4 4 3 15 21 22 23 23 23 19 14 14 14 14 15 15 14 14 14 14
19 21 20 21 20 21 20 20 19 19 18 18 17 16 15 13 13 12 11 8 6 5 5 4 3 14 22 23 24 25 25 23 14 14 14 14 15 15 15 14 14 14
20 20 21 20 21 21 20 20 18 19 19 18 17 15 15 14 13 13 13 12 10 7 5 4 4 16 22 24 25 26 27 27 16 15 15 15 15 15 15 14 14 14
20 21 21 21 20 20 19 19 19 19 19 17 16 15 15 14 13 13 12 11 9 8 6 6 4 17 22 24 25 26 28 24 17 16 15 15 15 15 15 15 14 14
19 20 21 21 21 21 20 20 20 19 18 17 15 15 14 13 13 11 10 10 9 8 7 7 6 15 22 24 26 27 27 21 17 16 16 15 15 15 15 15 14 14
19 22 22 22 22 21 21 20 20 19 18 16 15 14 14 13 11 10 9 9 9 8 8 7 8 12 21 24 26 27 27 20 18 16 16 16 15 15 14 14 14 17
22 22 23 23 22 22 22 21 21 19 18 16 15 14 13 10 9 9 8 7 8 8 12 9 8 11 19 24 26 26 26 19 17 16 15 14 14 13 13 13 13 16
22 23 23 23 23 22 22 21 20 17 16 14 13 12 11 9 9 9 8 8 7 6 7 9 7 6 11 23 25 26 27 20 17 16 14 13 12 11 9 10 11 11

ECMWFNIL_sfc_dewp_057.txt.gz
Dewpoint
20 18 16 14 13 14 12 13 14 13 14 15 14 16 17 19 22 21 21 21 21 21 22 21 22 21 22 20 20 20 20 21 21 20 20 20 20 19 20 19 19 19
17 16 16 14 15 16 13 14 13 13 14 14 15 17 20 21 22 21 21 21 21 21 21 21 21 21 20 20 20 19 20 19 20 22 19 19 19 19 19 19 19 19
15 14 13 11 12 13 13 14 14 14 14 15 17 19 21 22 21 21 21 20 20 20 20 20 20 20 19 19 19 19 18 18 19 19 19 18 18 18 18 18 17 17
13 13 12 11 13 13 14 15 15 16 17 18 18 20 21 22 21 21 21 21 19 19 20 19 19 19 19 19 18 18 18 18 19 19 19 19 18 17 17 18 19 18
13 13 13 13 14 15 15 15 15 16 17 17 19 21 21 21 20 20 20 19 19 19 19 19 19 19 18 17 16 16 17 18 19 18 17 17 18 17 17 15 14 14
15 14 14 14 15 15 15 15 15 17 17 18 19 20 20 20 19 19 19 19 18 18 18 18 18 18 16 15 15 15 15 16 16 15 14 15 16 18 15 13 13 13
15 15 14 15 16 16 15 15 16 18 18 17 19 19 19 18 18 18 18 18 18 18 17 17 17 16 14 13 13 12 12 13 13 12 11 12 15 15 14 11 11 12
15 15 15 16 15 15 15 16 17 18 18 19 18 18 18 17 17 17 17 17 17 16 15 15 16 15 13 11 10 10 10 10 9 9 9 10 11 12 11 10 10 11
16 15 16 15 14 15 14 16 17 17 18 17 16 17 17 16 16 16 16 16 15 15 14 13 14 13 11 10 9 8 8 7 8 8 8 8 9 10 10 10 9 10
15 15 14 14 13 14 14 16 17 17 18 16 16 16 15 16 16 16 15 14 14 13 12 11 11 11 9 9 8 8 7 6 6 6 7 7 8 9 10 9 9 9
15 14 13 13 12 13 13 15 16 16 17 15 15 15 15 15 16 15 13 13 12 12 11 10 9 8 7 7 7 8 6 5 5 5 6 6 7 8 13 9 10 9
15 14 13 12 12 13 13 15 16 16 16 15 15 15 15 15 14 14 12 11 10 10 10 9 8 7 6 5 5 5 5 4 4 4 5 6 7 8 11 10 10 10
14 14 13 12 12 12 13 15 15 15 16 15 15 14 14 14 13 13 13 10 9 9 8 7 6 5 4 4 3 3 3 3 4 4 5 6 8 9 12 11 11 11
15 14 13 13 12 12 14 15 15 16 16 15 16 14 14 13 13 12 12 9 8 7 6 6 4 4 3 3 3 2 3 3 4 4 5 7 9 10 12 11 11 11
16 15 14 14 14 14 15 15 16 16 16 16 16 15 14 13 13 12 10 8 7 6 5 5 3 3 3 2 2 2 2 3 4 5 5 7 10 12 13 13 13 13
16 17 15 15 15 14 15 16 16 17 17 17 17 16 14 14 12 11 10 8 7 6 5 4 3 2 11 14 13 5 3 4 5 7 8 9 11 13 14 14 14 14
17 17 17 16 16 16 19 18 18 19 19 19 18 17 15 15 12 10 9 8 7 6 5 4 4 4 16 20 20 17 7 6 7 9 10 11 13 13 14 14 15 15
18 19 19 18 19 21 21 21 21 21 21 21 20 18 17 15 12 11 9 8 7 7 6 5 4 14 19 23 23 22 18 9 12 12 12 12 13 14 14 14 15 15
19 20 20 22 21 21 22 22 22 21 21 20 20 19 17 15 12 12 10 9 8 7 7 7 5 16 21 24 25 25 23 15 13 13 13 13 13 14 14 14 14 14
20 22 22 22 22 23 22 22 21 21 21 20 20 19 18 16 15 14 14 10 9 8 8 7 6 16 22 25 25 26 26 21 12 13 13 13 14 14 14 14 14 13
21 22 22 22 23 23 22 22 21 21 21 21 20 19 18 17 16 16 16 15 14 12 9 8 7 17 22 25 27 26 27 27 13 12 12 13 13 13 14 14 14 14
21 22 23 23 22 22 22 21 21 21 21 20 19 19 18 17 17 17 17 17 16 15 13 12 8 18 22 24 26 28 27 26 17 13 12 12 12 13 14 14 14 14
21 22 23 23 23 22 22 22 21 21 21 20 19 19 18 17 17 17 17 17 16 15 13 13 12 17 22 24 26 28 28 25 19 16 14 13 12 13 14 14 14 14
22 24 24 24 23 23 22 22 21 22 21 20 19 19 18 18 17 16 16 16 16 15 15 13 14 15 21 24 26 28 28 24 21 18 17 16 15 15 14 14 14 17
24 24 24 24 23 23 23 22 22 22 21 20 19 19 19 18 16 16 16 15 15 16 17 14 13 14 19 23 25 27 27 24 21 18 18 17 16 15 15 14 14 16
24 24 25 24 24 24 23 23 22 21 21 19 19 18 18 17 15 15 16 15 13 12 12 13 11 11 13 21 24 26 28 25 20 19 18 17 16 16 15 13 13 13

ECMWFNIL_sfc_dewp_060.txt.gz
Dewpoint
27 25 24 22 20 20 16 16 16 17 16 16 16 15 16 17 21 20 18 19 18 19 21 21 21 21 22 20 19 18 18 18 19 19 19 19 19 19 19 18 17 17
25 25 24 21 20 19 15 15 15 15 15 15 15 15 17 20 20 19 19 19 20 20 21 21 20 20 19 19 19 18 19 18 19 22 19 18 19 19 18 18 18 18
25 24 22 19 17 15 14 14 15 14 14 14 15 16 19 21 20 20 20 19 19 20 20 20 20 19 19 18 18 18 17 18 18 19 18 18 18 18 18 18 17 17
23 22 21 18 17 14 13 14 14 14 15 16 15 18 20 22 20 20 20 21 19 20 20 20 19 19 19 19 18 17 18 18 18 18 18 18 18 18 17 17 18 18
23 22 20 17 16 15 14 13 13 14 15 15 17 20 21 20 19 19 19 19 19 19 19 19 19 18 19 18 17 17 17 18 18 17 16 16 17 17 17 17 16 15
22 22 20 17 15 14 13 13 13 14 15 16 17 20 20 19 19 18 18 18 18 18 18 18 18 18 18 17 16 16 17 17 16 15 15 15 16 16 14 14 14 14
19 18 16 16 14 14 13 12 13 15 15 16 19 19 19 19 18 18 18 17 17 18 17 17 17 16 16 15 15 15 15 15 15 14 14 15 15 14 12 12 13 13
17 16 15 15 13 13 13 13 14 15 16 18 17 19 19 18 18 18 17 17 16 16 16 16 16 15 14 13 13 14 14 14 13 12 13 14 14 12 11 11 12 13
16 15 14 13 13 13 12 13 14 15 17 16 17 18 18 18 17 17 17 16 15 14 15 15 15 13 12 11 12 13 13 12 12 11 12 13 12 11 10 10 11 12
15 14 12 12 11 12 11 12 14 15 18 16 17 17 17 17 17 17 16 15 14 13 13 13 13 12 10 9 10 11 12 11 10 10 11 11 11 11 10 9 9 10
14 12 11 11 10 11 10 12 14 15 16 15 15 16 16 15 16 16 15 14 13 12 12 12 13 11 9 8 8 9 10 10 9 8 8 9 10 10 14 9 9 9
13 12 11 10 10 10 10 12 14 15 15 14 14 15 14 14 14 14 14 13 12 12 11 11 12 11 8 7 7 7 7 7 8 7 7 7 8 9 11 9 9 9
13 12 11 10 10 10 11 13 14 14 15 14 14 14 13 13 13 13 14 12 11 11 10 10 10 10 8 7 6 6 5 5 6 6 6 6 7 8 10 9 9 9
14 13 11 11 10 10 12 13 14 15 15 14 15 13 13 12 12 12 12 11 10 11 10 10 8 8 7 6 5 5 5 4 6 6 5 6 7 8 10 10 9 10
15 13 13 12 13 12 13 14 15 15 15 15 15 13 13 12 12 12 12 10 9 9 9 8 7 6 6 5 4 4 4 5 6 7 6 6 7 8 10 11 11 10
15 15 14 13 13 13 13 15 15 16 16 16 16 15 14 14 13 13 12 11 9 8 8 7 6 5 13 16 14 6 5 6 7 8 6 5 7 8 10 12 11 11
16 16 15 15 14 14 18 17 17 18 19 19 18 17 17 16 14 13 12 11 10 8 7 6 6 6 17 19 20 18 8 7 9 9 8 6 7 8 8 10 12 13
18 18 17 17 18 19 21 21 20 21 21 21 20 19 19 18 15 14 13 11 9 8 7 7 6 14 18 21 22 22 18 9 11 13 13 11 8 8 8 10 11 13
20 20 19 21 21 21 22 22 21 21 21 21 20 20 19 18 15 15 13 12 10 9 8 8 6 16 20 22 24 25 22 14 13 14 14 13 8 9 9 10 12 13
21 23 22 22 21 22 21 22 21 21 21 21 21 21 20 18 18 17 16 12 10 9 9 8 7 16 21 23 25 26 26 21 14 15 15 13 10 10 10 10 11 13
22 23 23 22 23 23 23 22 21 22 22 22 22 21 20 19 18 18 17 17 16 14 10 10 8 17 21 24 26 28 28 26 16 15 15 14 11 10 10 11 12 12
23 24 24 24 23 23 23 22 22 22 22 22 21 21 20 19 18 19 19 18 18 16 14 11 9 19 21 24 27 29 28 28 21 16 15 14 13 11 11 11 13 12
23 23 24 24 24 23 24 23 23 22 22 22 21 21 20 19 20 19 20 19 19 17 15 14 14 18 22 24 27 28 29 28 25 20 17 14 11 11 10 11 13 13
23 25 25 25 25 24 24 24 23 23 22 22 21 21 21 20 20 19 19 19 19 18 17 16 17 18 22 24 26 28 30 27 26 22 20 17 15 12 11 11 12 17
24 25 26 25 24 25 24 24 24 23 23 23 22 22 22 22 20 20 20 19 19 19 20 18 17 20 21 24 26 27 28 28 25 23 21 20 18 17 15 13 13 16
25 25 26 25 25 25 25 25 25 24 24 24 23 23 23 22 21 20 20 19 19 18 18 18 17 17 18 23 24 26 28 27 25 23 21 21 20 19 18 17 16 15

ECMWFNIL_sfc_dewp_063.txt.gz
Dewpoint
36 33 33 32 33 32 32 32 31 30 29 28 25 22 22 21 23 23 23 23 23 23 24 24 24 24 25 23 23 21 20 22 20 21 23 22 22 24 25 22 21 19
35 33 33 34 33 31 30 32 31 30 29 27 26 23 21 22 23 23 23 23 23 23 24 24 23 23 23 22 23 21 20 21 22 23 23 23 22 22 22 22 21 20
33 32 32 32 31 30 29 27 27 27 27 25 24 21 22 23 23 22 22 23 22 23 23 23 23 22 22 22 22 20 19 22 22 21 21 22 21 20 21 20 19 21
32 32 31 30 29 28 26 25 25 24 23 24 21 20 20 24 23 22 23 23 22 22 23 22 22 21 21 22 22 19 21 20 21 21 20 19 19 20 19 19 19 18
32 32 31 29 26 25 22 22 22 22 21 22 21 22 22 22 22 21 21 21 21 21 21 21 21 21 21 20 19 19 18 19 19 18 17 17 17 17 17 16 15 16
31 31 30 28 25 22 21 21 22 22 22 20 19 21 22 22 20 20 20 19 20 19 20 19 19 19 18 17 16 16 16 16 16 15 15 16 16 16 16 15 14 15
29 29 27 26 22 21 20 20 21 21 23 20 20 20 21 20 19 20 19 18 18 18 17 17 17 16 15 14 14 15 15 15 15 14 15 15 15 14 14 14 13 14
28 28 26 24 21 19 18 18 17 18 18 19 18 19 20 19 19 19 18 18 17 18 15 16 16 16 14 13 14 14 14 14 14 14 14 15 14 13 13 13 13 13
26 26 25 22 20 18 17 16 16 16 17 16 16 19 19 18 17 17 16 16 15 15 15 14 15 14 13 12 13 13 13 13 13 13 14 14 13 12 12 12 12 13
24 23 22 20 19 18 16 16 20 18 17 16 16 18 17 17 16 16 15 14 14 14 13 14 13 13 12 11 12 12 12 12 11 12 13 13 12 11 11 11 12 12
22 21 20 19 18 17 15 14 16 15 15 14 16 16 17 16 16 15 14 13 13 13 13 13 12 11 10 10 11 12 11 10 10 10 11 12 11 11 13 10 10 11
21 19 18 17 16 15 13 13 13 13 14 15 15 17 15 15 15 14 13 12 11 11 11 12 11 10 9 9 9 10 11 10 9 8 9 10 10 10 11 9 10 9
20 18 18 16 16 14 12 11 12 13 14 14 16 15 15 14 14 14 14 11 10 10 10 11 10 9 8 7 8 8 9 9 9 8 8 8 9 9 10 9 9 9
19 17 16 16 15 15 14 15 14 14 14 14 16 15 14 14 14 14 14 12 11 10 10 11 10 8 7 7 7 7 7 8 9 8 6 6 7 8 10 9 8 9
19 17 16 16 15 14 14 14 15 15 15 15 15 15 14 14 14 14 13 12 11 10 10 10 9 8 7 6 6 6 6 7 9 9 6 6 6 7 9 9 9 9
19 18 16 15 14 13 14 14 15 16 16 16 16 15 14 14 14 14 13 12 12 11 10 10 9 8 16 18 15 8 7 8 9 10 8 6 7 8 8 10 10 10
18 17 16 15 15 15 16 18 17 19 17 18 18 17 17 16 15 14 13 12 12 11 10 9 9 10 21 22 21 19 9 8 10 12 9 6 7 7 7 9 11 11
19 18 17 18 17 19 21 22 21 21 21 21 19 19 18 17 15 14 13 12 12 11 10 10 8 19 23 24 23 23 19 11 13 15 14 7 6 6 7 9 10 11
20 19 19 20 21 21 22 23 23 22 22 22 20 20 19 19 15 15 14 13 12 11 10 10 9 22 24 26 26 25 23 16 15 16 16 13 7 7 7 9 11 12
21 23 23 23 22 23 22 23 22 22 22 22 22 22 20 20 18 18 17 14 12 11 11 10 9 22 25 26 27 27 26 21 16 17 17 14 10 8 8 9 10 12
22 23 24 23 23 24 23 23 22 23 23 23 22 22 21 20 19 19 19 19 18 15 11 11 9 23 26 26 27 27 28 26 18 17 17 15 12 10 9 11 12 13
23 24 25 24 23 24 23 23 23 24 23 23 23 22 22 21 21 21 20 20 19 18 15 11 12 22 25 26 27 29 29 29 23 18 16 16 16 14 13 13 13 12
23 24 24 24 24 24 24 24 24 24 24 24 24 24 24 22 21 21 22 21 20 18 16 16 17 22 25 27 28 30 30 29 27 22 19 17 14 14 14 14 13 12
23 25 25 25 25 24 24 24 25 26 25 25 24 24 23 22 22 21 21 20 20 18 18 18 18 22 24 26 27 30 30 28 28 25 23 21 20 18 16 15 14 21
26 27 27 26 26 26 26 26 26 25 26 25 24 24 23 22 22 21 21 21 21 21 23 20 20 21 24 26 27 28 30 29 28 27 25 24 23 22 21 18 15 17
26 27 27 27 27 27 27 26 26 25 25 24 24 23 23 22 22 22 21 21 21 21 22 21 20 21 23 25 27 28 29 29 28 26 25 25 24 24 23 23 21 17

ECMWFNIL_sfc_dewp_066.txt.gz
Dewpoint
47 43 43 43 43 44 40 41 40 39 38 38 34 34 33 28 26 25 25 26 27 28 30 30 31 33 34 33 33 31 31 34 30 29 31 29 29 30 30 27 25 20
45 44 42 42 43 42 41 43 43 41 38 37 37 36 32 28 27 26 26 26 26 28 28 29 29 30 31 30 31 29 28 28 29 30 29 29 27 28 28 28 26 24
44 42 41 40 40 41 40 40 41 40 41 40 39 35 33 30 27 25 25 26 25 26 27 28 28 28 28 28 29 27 26 27 26 25 26 26 24 23 25 24 24 26
41 40 40 39 39 38 38 38 38 38 38 40 38 36 32 30 26 25 26 24 25 25 26 26 27 26 27 27 27 24 27 25 24 25 24 22 24 23 22 22 22 21
40 39 38 38 37 36 36 36 36 35 37 38 37 32 28 26 24 23 24 25 24 24 23 25 25 24 24 24 24 23 23 22 24 23 21 21 21 21 19 17 13 13
40 38 37 36 36 35 33 34 35 35 35 34 32 26 26 25 23 22 23 22 21 22 23 22 22 22 22 22 22 20 16 16 17 20 15 13 16 17 18 17 10 9
38 37 36 36 35 34 32 32 32 33 32 31 28 27 25 23 22 22 21 20 20 21 21 20 21 19 17 16 15 14 12 13 12 12 11 12 12 12 12 10 9 10
37 36 36 34 33 31 31 31 31 30 30 29 27 27 25 23 21 22 22 20 21 20 18 18 18 17 14 13 11 11 12 19 13 11 12 12 12 11 10 12 10 11
37 34 34 33 32 30 29 28 28 28 28 27 27 26 26 25 22 20 20 20 21 19 17 16 17 13 11 10 10 9 10 13 14 11 12 12 11 11 11 11 10 11
36 34 33 31 30 28 26 26 25 24 26 25 26 25 25 26 23 19 18 17 17 16 14 14 12 10 9 9 11 9 9 10 10 11 11 11 12 11 11 11 10 11
34 33 32 30 28 27 24 23 21 20 21 22 22 21 22 22 24 18 15 15 17 14 13 12 11 10 10 9 9 9 9 9 9 10 10 11 11 11 17 11 12 12
31 30 30 28 26 24 21 21 20 20 20 21 20 19 17 16 16 14 13 13 13 13 12 10 10 9 8 8 9 9 8 8 9 9 10 10 10 11 12 11 11 11
30 28 28 26 24 22 20 19 19 19 19 18 18 18 17 15 14 13 13 12 12 11 11 10 10 9 8 9 9 8 8 7 8 8 9 9 9 10 11 10 10 10
29 28 27 26 25 22 21 18 18 18 19 19 20 18 17 16 15 14 13 12 12 11 10 11 9 8 8 9 9 8 9 9 9 9 8 8 9 9 10 9 9 10
28 26 26 25 24 23 22 19 19 17 18 18 20 20 20 16 16 14 13 11 11 11 11 10 8 8 7 8 8 9 10 10 10 9 7 7 8 8 9 9 9 10
27 26 25 24 24 22 21 19 19 19 18 18 18 17 16 16 15 14 13 13 12 11 11 10 8 8 16 22 19 11 10 13 12 11 8 7 7 8 9 10 10 10
26 24 22 22 22 21 20 20 21 22 19 21 20 21 20 18 16 15 14 14 13 12 12 11 9 9 22 23 24 22 13 13 15 14 10 8 9 10 9 11 11 11
25 23 22 22 22 21 23 25 24 25 24 24 23 22 23 23 20 18 16 13 12 12 11 11 9 21 25 26 26 25 21 16 18 20 18 9 10 10 11 11 12 12
24 23 22 22 22 24 25 25 26 26 26 25 24 23 23 21 18 17 15 15 13 12 11 11 9 23 26 27 27 26 24 18 19 20 19 16 11 11 11 11 13 14
24 26 25 24 24 26 25 26 27 26 26 25 25 25 24 23 22 22 20 16 13 13 12 11 11 24 27 28 28 27 25 19 21 21 21 19 13 12 12 12 13 15
25 25 25 26 26 26 27 27 26 26 26 25 25 25 24 23 22 22 22 21 20 18 14 13 12 25 28 28 28 27 25 20 21 21 21 20 14 13 13 14 14 16
25 24 26 26 26 27 26 27 26 26 26 25 25 26 25 24 24 24 23 22 21 21 18 13 13 25 28 29 29 28 27 21 21 21 21 21 21 17 16 15 15 15
25 26 26 27 26 27 27 27 26 26 26 26 27 26 26 24 25 25 25 24 22 21 19 19 20 25 28 29 29 29 27 22 23 21 22 22 21 19 18 17 16 15
25 28 28 28 27 27 27 27 27 28 27 27 27 27 26 27 24 23 23 22 21 20 20 19 21 26 28 28 29 30 30 28 25 25 25 23 22 21 19 18 18 22
27 29 28 29 28 28 29 28 27 28 27 27 27 26 25 25 24 24 24 24 22 22 24 21 22 26 27 28 29 30 30 29 29 28 27 26 25 24 21 20 18 22
29 29 29 29 28 29 29 28 28 27 26 27 26 25 24 24 24 24 24 23 24 22 22 21 21 24 27 28 29 30 31 29 28 28 28 28 28 27 26 27 26 24

ECMWFNIL_sfc_dewp_069.txt.gz
Dewpoint
50 51 49 48 47 48 46 45 45 45 43 42 43 42 41 42 38 36 36 36 36 37 39 40 40 43 43 44 44 46 46 42 41 41 41 41 38 38 37 34 32 27
48 50 48 48 47 46 45 45 44 45 43 42 42 41 39 37 38 36 35 34 33 35 36 38 38 40 41 41 42 42 40 40 39 39 38 37 36 36 35 34 33 29
48 49 46 46 46 46 45 44 46 46 44 44 43 43 43 40 37 33 32 32 32 33 34 35 36 38 39 39 40 39 37 37 37 35 36 35 33 32 33 31 29 31
47 48 47 45 45 45 45 45 46 46 45 44 45 43 42 40 38 36 33 32 32 32 32 33 34 35 36 36 37 36 35 36 34 33 33 30 30 30 28 28 28 25
46 47 47 45 44 45 43 44 44 44 44 45 45 43 39 35 34 33 31 29 30 30 30 31 32 33 34 34 35 34 34 32 31 31 29 28 28 28 27 26 25 24
45 45 44 44 43 43 43 43 42 43 43 43 44 39 38 35 32 30 28 26 26 27 28 29 30 30 31 31 32 31 31 30 28 29 28 26 25 25 25 23 20 17
45 44 42 42 42 42 42 41 41 41 41 41 39 36 35 34 32 29 27 25 25 25 26 27 28 28 28 29 29 29 26 26 26 26 23 20 20 21 22 18 11 13
44 44 42 41 41 40 40 39 40 40 39 37 36 34 32 32 30 29 26 25 24 24 24 25 26 27 26 26 26 25 21 27 24 19 16 15 14 12 12 19 10 11
43 42 42 41 41 41 39 38 37 37 36 35 34 32 30 29 28 28 27 24 23 22 23 23 26 26 25 23 22 20 20 22 22 15 14 12 11 10 11 10 9 10
42 41 40 39 39 39 39 38 36 35 34 34 32 31 30 28 27 27 25 23 23 22 21 21 22 22 22 18 20 17 18 18 14 14 13 11 10 9 8 8 8 9
41 39 38 38 37 36 38 38 34 32 32 32 31 29 29 27 27 25 23 23 24 21 21 21 20 19 19 20 18 14 15 14 11 11 10 11 11 9 14 6 8 9
41 39 38 37 36 35 35 35 31 30 30 30 30 29 29 28 27 26 25 23 22 22 21 20 19 18 19 19 16 12 11 10 10 9 10 10 10 9 9 9 10 11
40 39 38 37 36 34 34 33 29 28 28 28 29 28 27 26 25 25 24 23 23 22 20 18 17 16 17 16 16 13 9 7 8 9 9 10 9 9 9 10 11 12
40 38 37 36 35 34 32 31 29 26 26 26 26 25 24 23 23 23 22 21 21 21 21 21 20 16 15 14 12 11 9 7 8 8 8 10 9 9 9 9 11 13
38 36 35 34 33 32 30 29 27 24 25 24 25 25 25 22 21 20 19 18 17 16 14 15 15 14 14 10 10 9 9 8 9 10 8 9 9 9 9 9 10 12
36 35 33 33 32 29 27 26 23 22 22 22 24 24 24 21 19 19 17 16 15 12 12 16 15 18 21 23 21 11 10 14 13 11 9 9 10 9 8 9 10 11
35 33 32 31 31 29 26 25 23 22 22 24 24 22 23 22 21 20 19 17 16 13 12 12 13 16 25 26 27 25 15 12 13 13 10 9 10 10 10 10 11 14
34 32 31 30 29 27 27 27 25 26 26 27 27 25 24 22 21 21 21 19 16 14 12 11 9 22 27 29 29 29 23 15 15 18 16 9 10 11 12 12 12 13
33 31 30 29 27 27 28 28 28 27 27 28 27 27 27 25 22 23 20 20 19 16 13 12 11 27 27 29 29 27 25 21 20 20 18 14 10 10 11 12 14 18
31 31 30 28 28 28 27 28 28 28 28 28 28 28 27 27 27 26 24 21 17 15 14 12 11 25 27 28 29 28 27 24 22 20 19 13 10 10 12 14 16 18
30 30 28 28 28 29 28 28 28 28 28 28 28 27 27 27 26 26 26 25 24 22 19 17 14 26 27 28 29 28 27 24 24 23 21 19 12 12 14 16 19 21
30 29 28 27 27 28 28 28 30 29 28 28 28 27 27 27 27 27 27 26 26 24 23 21 19 26 28 29 29 28 26 23 24 22 22 20 19 14 17 21 22 22
29 29 29 29 28 28 28 28 28 28 28 28 28 28 28 26 27 27 27 26 25 24 22 21 22 27 29 29 29 29 24 22 23 22 21 21 20 19 19 19 20 22
28 29 29 29 29 28 28 28 29 29 29 28 29 27 28 28 27 27 27 25 24 23 22 22 24 28 30 30 29 27 24 23 22 22 22 22 22 21 21 19 20 25
29 30 30 29 29 29 29 29 29 29 29 28 28 27 27 28 26 26 25 26 24 24 27 22 25 29 30 30 30 27 25 25 24 24 23 23 23 22 22 22 21 25
30 30 30 30 29 29 30 29 29 29 28 28 28 27 26 26 25 25 26 25 25 24 23 23 25 28 30 30 31 29 28 27 26 24 24 25 25 25 25 25 24 23

ECMWFNIL_sfc_dewp_072.txt.gz
Dewpoint
49 50 51 51 51 50 48 49 49 49 48 48 47 45 44 43 42 41 41 42 43 45 46 47 47 48 48 48 47 47 47 47 46 46 45 45 44 43 42 40 39 38
49 49 49 50 50 49 48 48 48 49 48 48 48 47 46 45 43 41 41 42 42 43 44 44 46 47 47 47 46 46 46 46 45 45 45 43 41 41 39 37 33 28
48 48 49 49 49 49 48 47 47 47 47 47 47 47 46 45 44 41 40 40 40 41 42 43 44 45 46 46 46 45 45 44 44 42 42 41 38 39 37 36 35 32
46 47 47 47 48 49 48 46 46 46 46 45 46 45 44 43 43 41 40 38 40 40 41 41 42 42 43 43 43 44 43 43 43 40 40 38 38 37 36 35 33 31
45 46 46 46 46 47 47 46 46 46 45 45 45 44 42 41 40 38 37 37 37 37 37 38 39 39 40 40 40 41 39 40 38 38 38 37 37 37 36 35 31 29
45 46 46 47 46 47 46 46 46 46 46 45 45 43 42 40 39 37 35 35 36 36 36 36 37 37 38 38 38 39 37 37 37 37 37 36 35 36 35 34 32 28
44 44 45 46 46 46 46 46 45 45 45 44 42 41 40 39 38 37 35 35 34 35 35 36 36 37 36 36 37 37 37 36 35 36 35 35 34 33 33 32 31 27
43 42 43 42 42 42 44 45 43 43 43 41 41 40 39 38 37 35 34 34 34 33 33 34 34 35 34 35 35 35 35 35 34 35 33 31 33 30 29 25 25 24
42 42 41 39 39 39 40 41 42 42 41 41 40 37 37 37 36 34 33 32 31 31 32 32 32 32 31 32 33 34 33 33 33 32 32 30 27 23 19 18 18 18
41 41 39 39 39 39 39 39 39 40 39 39 39 35 34 34 34 33 32 30 30 28 28 29 30 31 31 31 32 33 32 32 32 32 30 28 26 21 17 15 14 14
40 39 39 39 39 38 38 38 38 38 37 38 37 35 33 31 31 31 30 29 29 27 26 26 27 28 29 30 31 31 30 30 29 29 28 27 24 17 16 10 10 11
39 39 39 39 38 38 38 37 37 35 35 35 35 34 32 31 30 29 29 27 27 26 25 25 25 26 27 27 28 27 28 29 29 27 25 19 16 12 9 9 9 9
39 39 39 38 38 37 37 37 35 34 33 33 33 33 31 30 29 28 28 27 26 25 25 24 24 24 25 25 26 25 26 26 24 22 18 15 10 8 7 8 8 9
39 38 37 38 37 36 36 36 34 32 32 32 31 31 31 29 29 29 28 27 27 25 25 23 22 21 22 22 22 22 24 24 23 18 15 15 15 13 10 8 8 8
38 38 37 37 37 36 35 35 33 31 31 31 30 30 31 29 29 28 27 26 26 26 25 25 25 23 22 19 20 20 22 21 20 18 14 14 15 12 10 9 8 9
38 37 37 36 36 36 35 34 32 30 30 29 29 29 28 27 26 27 25 25 24 24 23 24 24 25 26 27 26 22 22 22 19 16 14 11 12 12 9 9 9 12
37 37 35 35 35 34 33 32 31 29 28 28 28 27 27 25 24 24 24 23 23 22 21 21 23 24 27 29 29 28 22 18 17 15 12 11 11 10 9 10 12 17
37 35 34 34 33 32 31 30 29 28 28 28 27 27 27 26 25 24 24 22 20 18 17 17 17 26 29 30 30 30 26 17 16 19 17 10 9 9 10 11 14 19
36 35 34 33 33 32 30 28 28 28 28 28 28 27 26 26 25 25 24 24 22 18 16 16 13 29 30 30 30 30 29 20 20 16 18 14 10 10 10 12 16 20
35 34 33 32 32 31 29 28 27 27 28 28 28 28 27 27 27 26 26 23 21 20 19 16 15 30 31 31 31 31 29 24 22 21 20 14 10 10 10 12 17 20
34 33 32 31 30 30 29 28 28 27 28 29 28 28 28 28 27 27 27 27 26 25 25 24 20 31 31 32 32 31 28 26 24 22 20 18 12 11 12 14 18 21
33 32 31 30 29 29 29 28 28 28 29 29 29 29 29 29 29 28 28 27 27 26 25 22 24 30 32 32 31 30 29 24 23 22 20 19 18 14 15 17 19 21
32 31 30 29 29 29 28 28 28 29 29 29 29 28 28 28 28 28 28 27 26 25 24 23 26 30 31 31 30 28 27 24 23 21 20 19 18 18 18 19 22 24
31 31 30 29 29 28 28 28 29 29 29 29 28 28 28 28 28 27 27 26 26 25 24 23 26 30 31 31 30 27 25 24 22 20 20 20 21 21 21 22 24 27
31 31 30 29 28 28 28 28 28 29 29 29 29 28 28 27 27 26 26 26 25 25 26 25 27 29 31 31 30 27 25 24 22 21 21 21 21 21 21 22 24 27
31 30 29 29 28 27 28 28 29 29 29 28 28 27 26 26 26 25 25 24 25 25 25 25 27 29 31 31 29 27 26 23 22 20 21 22 22 23 23 23 23 25

ECMWFNIL_sfc_dewp_075.txt.gz
Dewpoint
49 49 49 49 49 49 49 49 49 49 48 48 48 48 48 48 47 45 45 47 48 50 51 52 52 52 52 52 50 49 48 47 46 45 45 45 45 44 43 43 43 42
48 48 48 48 48 48 48 49 49 49 48 48 48 47 47 47 46 45 45 45 46 47 48 49 50 51 51 50 50 49 48 48 47 46 46 45 45 44 44 43 43 42
47 46 47 47 48 48 48 47 48 49 48 48 47 47 47 46 46 45 45 45 45 46 47 47 47 48 49 49 48 48 47 47 46 45 45 45 44 44 43 42 40 38
47 47 47 47 47 47 47 46 46 47 48 48 48 47 46 46 46 45 44 42 44 44 44 45 46 46 46 47 46 47 46 46 46 44 44 41 41 42 40 39 37 36
46 46 47 47 46 47 46 46 46 46 46 47 47 47 46 45 45 43 42 41 41 41 41 42 42 43 43 44 44 45 44 43 42 42 42 41 40 39 38 37 35 34
45 46 46 46 46 46 47 46 46 45 45 45 47 46 46 45 44 42 41 41 40 40 39 39 39 39 40 41 40 41 41 41 40 40 40 40 38 37 37 36 35 33
45 44 44 45 44 45 46 46 45 45 45 45 44 44 44 43 42 42 41 40 39 39 39 39 39 39 38 39 39 39 39 39 38 39 39 38 37 36 35 34 33 31
43 42 43 43 43 43 43 43 42 43 43 43 41 42 41 41 41 40 39 39 38 38 38 37 38 38 37 38 38 38 38 39 38 38 38 37 37 35 34 33 33 31
41 41 41 40 41 40 40 40 39 39 41 42 42 41 40 41 40 39 38 37 37 37 36 36 37 37 37 37 38 38 37 37 38 38 38 36 36 35 34 33 32 31
41 40 39 39 39 39 39 38 38 38 38 40 41 41 40 39 39 38 37 36 36 35 35 35 35 36 36 37 37 38 37 37 36 37 37 36 36 35 33 32 31 30
39 38 39 38 38 38 38 37 37 37 37 39 39 39 39 38 37 36 36 35 35 34 34 34 34 35 35 36 36 37 37 37 36 36 36 35 35 33 32 31 31 30
38 38 39 39 38 37 37 37 36 37 37 36 39 39 37 37 36 35 34 34 34 33 33 33 33 33 34 34 35 35 36 36 35 35 35 34 33 32 31 30 30 28
39 39 39 38 38 37 36 36 36 36 36 37 37 38 36 35 34 34 33 33 32 32 31 31 31 32 33 33 33 34 34 34 34 34 33 33 31 29 28 27 26 25
40 39 38 38 37 37 37 36 36 35 35 35 35 36 36 34 33 33 32 32 31 30 30 29 29 30 30 31 31 32 33 33 33 32 32 31 30 27 25 23 22 21
39 37 37 37 36 36 36 36 36 35 34 34 33 34 34 34 33 32 30 29 28 28 27 27 28 28 29 29 29 29 30 31 30 30 29 27 24 20 19 19 18 18
38 37 37 36 36 36 36 35 35 34 33 33 32 33 33 32 31 31 30 29 28 27 26 27 27 27 28 30 31 29 30 30 28 26 24 22 20 17 15 14 14 12
38 38 37 36 36 36 35 35 34 33 33 32 32 32 32 31 30 30 29 29 29 27 26 26 27 27 29 32 33 33 30 29 28 27 25 22 20 18 14 11 9 11
38 37 36 36 35 36 35 34 33 32 32 31 31 30 30 30 30 29 29 28 28 27 26 26 26 29 31 33 33 33 31 27 25 26 24 19 16 15 12 10 11 18
36 36 36 35 35 35 34 33 33 32 31 30 30 29 28 28 29 28 28 27 27 26 26 25 24 30 31 32 32 33 32 27 25 23 23 19 15 16 15 15 19 23
36 36 35 35 34 33 33 33 32 32 30 30 29 29 28 28 29 28 27 26 25 24 25 22 21 28 32 32 32 32 32 28 25 24 23 18 16 16 14 16 21 23
36 36 35 34 33 33 32 32 31 30 29 29 29 28 29 29 29 29 28 28 27 25 22 21 20 29 32 32 33 32 33 28 25 23 22 21 15 14 13 18 23 24
35 35 34 32 32 31 31 30 29 29 28 28 28 28 29 29 29 29 29 29 28 27 25 23 24 31 31 32 33 34 32 25 24 23 21 20 18 12 14 20 23 25
34 34 33 32 32 31 30 29 28 27 27 28 28 28 29 29 29 29 29 28 28 27 25 24 27 31 32 33 33 34 30 24 24 22 21 19 18 15 16 21 24 25
34 34 33 32 30 31 30 29 28 28 28 28 28 28 29 29 29 28 28 28 27 27 26 25 27 30 31 32 33 31 27 24 22 21 20 19 18 16 18 21 24 28
33 33 32 31 30 30 29 29 28 28 28 29 30 30 29 29 28 28 27 27 27 27 27 26 28 30 31 32 32 30 27 24 21 20 19 19 18 19 20 23 25 28
32 32 31 30 30 29 28 28 28 27 28 28 29 29 28 27 27 27 26 26 26 26 26 26 28 29 31 32 32 29 27 23 20 19 19 20 20 20 22 25 26 26

ECMWFNIL_sfc_dewp_078.txt.gz
Dewpoint
50 49 50 50 50 50 49 48 48 48 48 48 49 49 49 50 49 49 49 49 50 51 52 52 52 53 53 53 52 52 50 50 49 49 47 47 46 46 45 44 44 44
48 48 48 48 48 47 48 48 48 48 48 48 48 48 47 47 47 48 48 48 48 49 50 51 51 52 52 52 52 51 50 50 49 49 48 47 47 46 45 45 45 45
47 47 47 47 48 47 47 47 47 47 48 48 47 47 47 46 47 46 47 47 47 47 49 50 50 51 51 51 51 50 50 49 49 48 47 47 47 46 46 46 45 44
47 47 48 47 47 47 46 46 46 46 46 46 46 46 46 46 46 46 46 46 47 47 48 48 48 49 49 50 49 50 49 49 49 48 47 46 46 46 46 45 44 43
46 46 46 46 46 46 45 46 46 46 46 47 45 45 44 44 45 45 45 45 45 45 46 46 46 47 47 47 47 48 48 47 46 46 46 45 45 44 44 42 41 41
45 46 46 46 45 45 46 46 46 45 45 44 45 44 45 44 44 44 43 43 42 42 42 43 43 43 44 44 44 45 43 43 42 43 43 42 42 40 41 40 40 40
44 43 44 44 44 44 45 45 45 44 44 44 42 43 43 43 42 43 43 42 42 41 42 42 42 42 41 42 42 42 42 42 41 41 42 42 41 39 39 39 40 40
43 41 43 42 43 43 43 44 44 43 42 40 41 41 41 42 42 42 42 41 41 41 41 41 41 42 41 41 41 41 41 42 41 41 41 41 39 39 38 38 38 38
40 41 41 40 41 42 41 42 41 40 39 40 39 38 37 40 41 42 42 41 41 40 40 40 40 40 40 40 41 41 41 40 41 40 40 40 39 39 38 37 36 36
41 40 39 39 40 41 40 39 39 39 37 39 39 37 38 38 39 41 41 41 41 40 40 39 39 38 38 39 40 40 41 41 40 40 40 40 39 39 37 36 36 35
40 39 39 39 39 39 39 38 37 37 36 38 37 38 38 37 38 38 39 40 40 40 39 39 39 38 38 38 38 39 40 40 39 39 39 39 39 39 36 36 35 35
39 38 39 39 39 39 38 38 37 37 37 37 38 39 37 37 38 38 39 39 39 39 39 38 38 38 38 38 38 38 38 38 38 38 38 38 38 37 36 35 35 34
40 40 41 40 39 39 37 37 37 37 37 38 36 38 38 37 37 37 37 39 38 38 37 37 37 37 37 37 37 37 37 37 37 37 37 37 37 36 35 35 34 33
41 41 40 40 40 39 38 37 37 37 37 37 36 37 37 37 37 37 37 37 38 37 37 36 36 36 36 36 36 36 37 37 37 36 36 35 35 34 34 34 33 32
42 40 39 38 37 37 37 37 36 36 35 36 36 36 37 36 36 36 36 36 36 36 35 34 34 35 35 35 35 35 36 36 36 36 35 35 34 33 33 32 32 31
40 37 37 36 35 37 36 35 35 35 35 35 35 36 36 35 34 34 35 36 35 34 33 33 33 33 33 34 35 34 34 35 35 35 34 34 32 31 30 30 30 29
38 38 35 36 36 34 34 35 35 35 35 35 35 34 34 34 34 34 34 34 34 33 32 32 32 32 33 35 36 36 34 34 33 33 33 32 31 29 27 26 25 24
38 37 36 36 35 36 36 35 35 35 35 35 34 34 33 32 33 33 33 33 33 32 31 31 30 32 34 35 36 36 35 32 32 32 31 30 28 27 25 25 25 24
37 36 37 36 36 36 35 34 34 35 35 34 34 33 32 32 33 32 32 32 32 31 30 29 29 31 33 35 35 36 36 32 31 30 30 29 27 25 24 24 24 23
36 36 36 36 35 34 34 34 34 34 34 34 33 31 32 31 31 31 31 31 31 31 30 30 29 30 34 34 34 35 36 34 30 30 29 28 25 24 22 20 20 21
35 35 35 35 34 34 34 34 34 34 32 32 32 31 31 31 31 30 30 30 30 31 30 30 29 31 33 34 34 34 36 34 30 29 28 27 23 21 19 18 19 21
34 35 35 34 34 33 33 34 33 33 33 31 30 30 30 29 29 29 30 29 30 30 29 29 27 31 33 33 34 34 35 31 29 28 26 25 23 19 18 19 21 21
34 34 34 34 33 33 33 33 33 32 31 29 29 29 29 29 29 29 30 30 30 29 29 29 28 29 32 34 34 34 35 29 28 26 25 24 22 19 18 20 21 22
33 33 34 34 33 33 33 33 32 31 30 29 30 29 29 28 28 28 29 30 30 29 29 28 28 28 31 33 34 34 32 28 26 25 24 23 21 19 19 22 23 27
33 33 34 34 33 33 33 32 30 30 29 28 29 29 28 27 28 28 27 29 30 29 29 28 27 28 32 33 34 34 31 28 25 24 23 22 20 20 22 24 25 28
32 33 33 33 33 32 31 31 29 27 27 27 27 28 27 27 27 28 28 28 29 28 28 28 27 28 31 33 33 34 32 26 24 22 21 21 21 22 23 25 27 28

ECMWFNIL_sfc_dewp_081.txt.gz
Dewpoint
50 50 51 50 51 50 50 49 48 49 49 49 49 49 50 51 51 52 52 52 51 52 53 53 53 54 54 54 55 55 55 54 53 52 50 49 48 47 46 46 46 45
48 48 48 48 48 47 48 48 49 49 49 48 48 48 48 47 47 48 49 49 49 49 50 50 51 52 53 53 53 54 54 53 53 52 51 49 49 48 47 47 46 47
47 47 47 47 48 48 48 47 47 48 48 48 47 46 46 45 46 46 47 47 48 47 47 48 49 50 51 52 52 52 52 52 51 51 50 49 49 48 48 48 47 46
46 46 47 47 47 47 46 46 46 46 45 46 46 46 45 45 44 45 45 45 46 46 46 46 47 48 49 50 50 50 51 51 51 50 49 49 48 48 48 47 46 46
45 45 45 46 46 45 44 45 46 45 45 46 44 43 43 43 43 43 43 44 44 45 45 45 46 47 47 48 49 49 49 49 49 48 48 48 48 47 47 47 45 44
43 44 45 45 45 45 45 45 46 45 45 44 44 43 44 43 43 43 42 43 42 43 44 44 45 46 46 46 47 48 48 46 45 46 46 46 45 45 46 45 44 43
43 43 43 44 44 44 45 45 45 44 44 44 40 43 41 42 42 42 43 42 42 42 43 43 44 44 43 44 44 45 44 44 43 43 43 43 42 42 41 42 42 43
42 41 43 42 42 43 43 44 43 42 42 39 41 42 41 42 42 42 41 41 41 41 41 41 42 44 42 41 41 42 42 44 43 42 42 42 41 42 40 41 41 41
39 40 40 40 41 41 41 41 41 39 38 41 41 40 38 40 41 40 40 40 40 40 40 40 41 41 41 40 41 41 42 41 42 42 42 42 41 41 41 40 40 40
39 39 37 38 39 41 40 40 40 40 38 39 40 39 39 38 38 40 39 39 40 39 39 39 39 39 40 39 40 41 41 41 41 41 41 41 42 41 41 40 39 39
39 38 38 38 39 40 40 40 39 39 38 40 39 39 39 37 37 37 38 39 40 40 39 39 39 39 40 39 39 39 40 41 41 41 40 40 41 41 39 40 39 39
39 37 38 39 39 39 39 38 37 37 38 38 39 40 38 37 38 37 38 39 39 39 39 39 38 39 39 40 39 38 38 39 40 40 40 40 40 40 39 39 39 39
39 39 40 39 38 38 37 37 37 36 37 38 36 37 38 38 37 37 36 37 38 38 38 38 38 38 39 39 38 38 38 39 39 39 39 39 39 39 39 38 38 38
40 39 38 38 37 36 37 36 36 36 36 35 35 36 37 38 38 37 37 36 37 37 37 37 37 38 38 38 38 37 37 38 38 38 38 38 37 37 37 37 37 37
40 38 36 36 36 37 37 36 36 36 35 35 36 36 37 37 37 37 37 37 36 36 36 36 36 38 38 38 38 37 37 37 37 37 37 37 37 36 36 36 36 35
38 37 37 35 36 37 37 36 35 35 35 35 36 36 36 36 36 36 37 37 37 36 35 36 36 37 36 37 37 37 37 37 37 37 36 36 36 35 35 34 34 34
36 36 35 36 36 36 35 35 35 34 34 35 35 35 35 35 35 36 36 36 36 36 35 35 36 35 36 38 38 38 37 36 36 36 36 36 36 35 35 34 33 33
36 35 35 36 35 36 35 35 34 34 34 34 35 34 35 34 34 35 35 35 35 35 35 35 35 35 37 38 38 38 37 36 36 36 35 36 35 35 35 33 32 31
34 35 35 35 35 35 34 34 34 34 34 34 35 35 32 34 35 34 35 34 34 34 35 35 35 36 37 37 38 38 38 36 35 35 34 34 35 34 33 32 31 30
34 34 34 35 35 34 33 33 33 34 34 34 34 33 34 34 33 34 34 34 34 34 34 34 33 34 36 37 36 37 37 37 34 33 33 33 33 32 32 30 30 29
33 33 34 34 34 34 33 34 34 34 34 34 34 34 34 34 34 34 33 33 33 33 33 33 33 34 35 36 36 37 37 37 34 33 32 32 32 31 30 29 28 28
32 33 33 33 33 33 33 34 34 34 34 34 33 33 33 32 33 32 33 32 32 32 31 32 32 34 35 35 36 36 36 35 33 32 32 31 31 29 28 27 27 27
32 32 33 33 33 33 33 34 34 34 34 32 32 33 32 32 32 32 32 32 31 30 31 31 31 33 34 34 35 36 36 34 32 31 31 30 29 27 26 25 25 26
32 32 32 33 33 33 33 34 33 33 33 32 33 33 32 32 31 31 30 30 30 30 30 30 30 31 33 34 34 35 35 33 32 31 30 29 28 25 26 26 26 28
32 31 31 32 32 33 33 33 33 33 32 28 31 31 32 30 29 30 29 28 28 29 30 30 29 30 32 33 34 35 34 33 31 30 29 27 26 25 25 25 26 27
31 31 31 31 32 32 32 32 32 30 29 29 29 29 30 27 27 28 28 28 26 27 28 29 28 29 31 33 34 35 35 32 30 28 27 26 25 24 24 25 27 27

ECMWFNIL_sfc_dewp_084.txt.gz
Dewpoint
49 49 51 51 51 51 51 50 49 49 50 49 49 50 50 51 51 53 54 54 55 55 56 56 55 55 55 55 55 54 54 54 53 53 52 51 50 49 48 47 47 46
48 48 48 49 49 47 49 49 49 49 49 49 49 49 47 46 47 49 52 53 53 53 54 54 54 54 54 54 54 54 54 54 53 52 53 51 51 50 49 48 47 47
46 46 47 48 49 48 48 47 48 48 48 48 46 45 47 45 46 46 47 49 50 51 52 52 52 52 52 53 52 52 52 52 52 52 51 51 51 51 51 50 50 49
44 45 46 46 46 47 46 46 46 45 44 45 46 46 45 44 44 44 45 44 47 47 48 49 49 49 49 50 51 51 51 51 51 51 51 51 51 51 51 51 50 49
43 44 44 45 45 45 44 45 46 45 45 46 44 43 43 43 43 42 42 42 43 44 44 44 44 45 45 47 48 49 49 49 49 49 49 49 49 49 49 49 48 48
41 42 43 44 44 44 44 45 45 45 45 43 44 44 43 42 42 42 41 42 41 42 43 43 43 43 43 45 46 47 48 48 48 48 48 48 48 48 48 47 47 46
41 40 41 42 42 43 44 44 44 44 44 45 40 42 41 41 42 42 42 42 41 41 42 43 43 43 43 44 45 46 46 47 46 45 46 45 44 44 44 44 44 44
40 38 40 39 40 41 42 42 42 42 41 38 41 42 40 42 42 42 41 41 41 41 41 41 42 43 42 43 44 44 44 45 44 43 42 42 42 43 42 42 42 42
37 37 37 36 38 39 39 40 40 38 37 40 41 39 36 39 40 39 39 39 40 40 40 40 41 41 41 42 42 42 42 42 43 42 42 42 42 42 42 41 41 41
36 36 35 35 36 38 38 38 38 37 36 37 39 36 37 36 36 38 38 38 39 40 40 40 41 40 40 40 42 41 41 42 41 41 41 41 42 42 41 41 41 41
36 34 34 35 36 36 37 36 36 36 35 37 36 37 37 36 36 36 37 38 40 40 40 40 40 40 40 40 40 40 40 41 41 41 41 41 41 41 40 41 40 40
36 35 35 35 36 36 36 36 36 35 36 35 35 38 37 36 37 36 37 39 40 40 41 41 40 40 40 40 40 39 39 39 39 40 40 40 40 40 40 40 40 40
36 36 36 35 35 36 36 36 36 35 35 36 35 36 36 37 36 37 36 37 39 40 40 40 40 40 39 39 39 39 39 38 38 38 39 39 39 39 39 39 40 40
36 35 35 36 36 35 35 35 35 35 35 35 34 35 36 36 37 37 37 36 37 38 38 38 39 39 39 38 38 38 38 37 37 37 38 38 38 38 38 39 39 39
36 36 35 35 35 35 35 35 35 35 34 34 34 35 35 35 36 36 36 37 36 36 37 36 37 38 38 38 37 37 37 37 36 36 37 37 38 37 37 38 38 38
34 34 34 34 34 35 35 35 35 34 34 34 34 34 34 34 34 35 36 36 37 37 37 37 37 38 37 38 39 37 36 36 36 36 36 37 37 37 37 37 37 36
33 34 33 34 34 34 34 34 35 34 34 34 34 34 34 34 34 35 35 36 37 37 37 37 37 37 37 39 40 40 37 36 36 36 36 36 36 36 37 36 36 35
33 33 33 33 33 33 33 33 33 33 33 34 33 33 34 32 33 35 36 36 36 36 36 37 37 37 39 39 40 40 39 36 35 36 36 36 36 36 36 36 35 35
32 32 32 33 33 33 33 33 32 33 33 33 34 34 31 33 34 34 35 35 36 36 36 37 37 38 39 39 39 39 40 38 36 36 36 36 36 36 36 35 35 34
32 32 32 32 32 33 32 32 32 33 33 32 33 32 32 33 33 33 34 34 34 35 36 36 36 36 38 39 39 39 39 39 37 36 35 36 36 36 36 35 34 34
32 31 31 32 32 32 32 32 32 33 33 33 33 33 33 34 34 34 34 33 33 34 34 35 35 36 37 38 38 39 39 38 36 35 35 34 35 35 35 35 34 34
31 31 31 31 31 31 31 32 32 32 33 33 32 33 32 31 32 32 33 33 33 33 33 34 34 36 36 37 38 38 38 36 35 35 34 34 33 34 33 33 33 33
30 30 30 30 30 31 31 31 32 32 32 31 32 33 33 33 33 33 33 33 32 32 32 33 33 34 36 36 37 37 37 35 34 34 34 33 33 33 32 32 31 31
30 30 30 30 30 30 31 31 31 31 31 31 32 33 33 33 32 32 32 31 31 32 32 32 33 32 34 35 36 36 36 33 33 33 33 33 32 32 31 30 30 30
29 29 29 29 29 30 30 30 31 32 32 30 31 31 31 31 31 31 31 30 29 30 30 31 31 31 33 35 35 36 35 33 33 33 33 32 32 31 29 28 28 29
29 28 28 28 28 29 29 30 30 30 30 30 30 30 30 30 28 29 29 30 28 28 28 29 29 29 30 34 35 35 35 33 33 32 32 32 31 30 28 27 28 28

ECMWFNIL_sfc_dewp_087.txt.gz
Dewpoint
51 52 53 53 54 54 54 54 53 53 53 53 53 53 54 55 55 56 56 57 57 57 58 58 58 58 57 57 57 57 56 56 55 55 54 53 52 51 50 50 49 48
49 50 50 51 52 51 52 52 53 53 53 52 52 53 52 52 52 53 55 55 56 56 56 56 57 57 56 56 55 55 55 55 55 54 54 53 53 52 51 51 50 50
47 47 48 49 50 51 51 51 51 51 51 52 51 50 51 50 50 50 51 53 54 54 55 55 55 55 55 55 55 55 54 54 54 53 52 52 53 52 52 52 51 51
45 46 47 47 48 48 49 49 49 49 48 49 50 50 50 49 49 49 49 48 50 52 52 53 53 53 53 53 53 53 54 54 54 53 52 52 51 51 51 51 51 50
44 44 44 45 46 46 47 47 48 48 48 49 48 48 47 47 47 47 47 47 47 48 49 50 50 51 50 51 51 51 52 52 52 51 51 51 52 51 51 51 50 50
42 42 43 44 45 45 46 46 47 47 47 46 47 47 47 46 46 46 46 46 46 46 46 47 47 48 48 48 49 49 50 50 50 50 50 50 50 50 50 50 50 49
42 41 42 42 43 43 44 45 46 45 46 46 44 45 44 44 45 45 45 45 45 45 45 45 46 46 46 46 47 47 48 48 48 48 48 49 48 48 48 49 49 48
40 40 40 40 41 42 42 43 43 43 43 42 43 44 43 44 44 44 44 44 44 44 44 44 45 45 45 45 45 46 46 47 47 47 46 46 46 45 45 46 44 44
37 38 38 38 39 40 40 41 41 41 40 41 43 43 41 42 43 43 42 42 42 42 43 43 44 44 44 44 44 45 45 45 46 45 45 44 44 44 44 44 43 43
37 37 36 37 37 38 38 39 39 39 39 39 41 40 40 40 39 41 40 41 41 41 42 42 42 42 42 42 44 44 44 44 44 44 44 44 44 44 44 43 42 42
37 37 37 37 37 38 37 37 37 38 37 38 39 39 39 39 39 38 39 40 41 41 42 41 41 42 42 42 42 42 43 43 43 43 43 43 43 43 41 43 42 42
37 37 37 37 37 37 37 37 37 37 37 38 37 38 38 38 38 39 39 39 39 40 41 41 41 41 41 41 42 41 41 41 41 42 42 42 42 42 42 42 42 42
36 36 37 36 37 37 36 37 37 37 36 37 37 37 37 38 38 38 38 38 39 39 40 40 41 41 41 41 41 41 41 41 40 40 41 41 41 41 41 41 41 41
36 36 36 36 36 35 36 36 36 36 36 36 36 36 37 37 37 38 38 38 38 38 39 39 39 39 40 40 41 41 40 40 40 40 40 40 40 40 40 40 41 41
35 35 35 35 35 35 35 36 36 35 35 35 35 36 36 36 36 37 37 37 37 38 38 38 39 39 40 40 40 40 40 40 40 40 39 39 40 40 39 39 40 40
35 34 34 34 34 34 35 35 35 35 35 35 35 36 35 35 35 36 36 36 37 37 37 38 38 39 37 38 39 40 40 40 40 39 39 39 39 39 39 39 39 39
34 33 33 33 33 34 34 34 34 34 34 34 35 35 35 35 35 35 36 36 36 37 37 38 38 39 38 39 40 40 40 39 39 39 38 38 38 38 38 38 38 38
33 32 32 33 33 33 33 33 33 33 33 34 34 34 35 35 35 35 35 36 36 37 37 37 38 37 39 39 40 40 40 39 39 39 38 38 38 38 38 38 38 38
32 32 32 32 32 32 32 32 32 32 33 33 33 33 33 34 34 35 35 35 35 36 36 36 37 37 38 39 39 40 40 39 39 39 38 38 38 38 38 38 38 37
32 31 31 31 32 32 32 32 32 32 32 33 33 33 33 33 33 34 34 34 35 35 35 36 36 36 38 38 39 39 39 39 39 39 38 38 38 38 38 38 37 37
31 31 31 31 31 31 31 31 31 32 32 32 33 33 33 33 34 33 34 33 34 34 34 35 35 36 37 38 38 39 39 39 39 38 37 37 38 38 37 37 37 37
31 30 30 30 30 30 30 30 31 31 31 32 32 32 32 33 33 33 33 33 33 33 34 34 35 36 36 37 37 38 38 37 37 37 36 36 36 37 36 37 37 36
30 30 29 29 29 29 29 30 30 30 31 31 31 31 32 32 32 32 33 33 33 33 33 33 34 34 35 36 36 37 37 36 36 35 36 36 36 36 36 36 35 35
29 29 28 28 28 28 28 29 29 30 30 30 30 30 30 31 31 32 32 32 32 32 32 32 33 33 34 35 36 36 36 35 35 35 35 35 35 35 35 35 34 33
28 28 27 27 27 27 27 28 28 28 29 29 29 29 30 30 30 30 30 30 30 31 30 31 31 32 33 34 35 35 35 34 34 34 34 34 34 34 34 34 33 32
27 26 26 26 26 27 27 27 27 27 27 27 28 28 28 29 29 29 28 29 29 29 29 30 30 30 31 32 33 34 35 34 34 33 33 33 34 34 33 33 33 32

ECMWFNIL_sfc_dewp_093.txt.gz
Dewpoint
55 55 55 55 55 55 55 55 55 54 54 54 53 53 53 53 55 55 55 55 56 56 57 57 57 58 59 59 60 60 59 59 59 59 58 57 56 55 54 54 53 52
53 53 52 52 52 53 53 53 53 53 53 53 53 52 53 53 53 53 54 54 55 55 55 56 56 56 56 56 57 57 57 57 58 59 58 57 56 56 56 55 54 54
49 50 50 51 51 52 52 52 52 52 52 52 52 52 52 52 52 53 53 53 53 53 54 54 55 55 55 56 56 56 56 56 56 57 57 57 57 57 57 56 55 54
48 48 48 48 49 49 50 49 50 50 51 51 51 52 51 52 51 51 51 51 52 52 52 53 53 53 54 54 55 55 55 55 55 55 56 56 56 56 56 56 56 55
46 46 47 47 48 48 49 49 49 50 50 50 50 50 50 50 50 50 50 50 50 51 51 51 51 52 52 52 53 53 53 53 54 54 54 54 54 54 55 54 54 54
45 45 45 46 46 47 47 47 48 47 48 48 48 48 48 49 49 49 49 49 49 49 49 50 50 50 50 51 51 51 52 52 52 52 52 52 52 53 53 53 53 52
43 44 44 44 45 45 45 45 45 45 46 45 45 46 47 47 47 47 47 48 48 48 48 48 49 49 49 49 49 49 49 50 50 50 50 50 50 51 51 51 51 51
41 41 42 43 43 42 42 43 43 43 44 44 44 45 45 46 45 46 46 46 46 46 47 47 47 47 48 48 48 48 48 49 49 49 49 49 49 48 49 50 49 49
40 40 40 40 40 40 40 40 40 41 41 42 43 43 43 44 44 44 44 44 44 45 45 45 45 45 46 46 46 46 46 46 47 47 47 47 47 47 47 48 47 47
39 39 39 38 39 39 39 39 39 40 40 41 41 41 42 42 43 43 43 43 43 43 44 44 44 44 44 44 44 44 45 45 45 45 45 46 46 46 46 46 46 46
38 38 38 38 38 38 38 38 39 39 38 39 39 40 40 40 41 41 42 42 43 42 42 43 43 43 43 43 43 43 43 43 43 43 44 44 44 44 42 44 44 44
36 37 37 36 37 37 38 38 38 38 38 38 38 38 39 40 39 40 40 40 41 41 41 41 42 42 42 42 42 43 43 43 43 43 43 43 43 43 43 43 43 43
36 36 36 36 36 36 37 37 37 37 37 37 38 38 38 38 39 39 39 39 40 40 41 41 41 41 41 41 41 41 41 42 42 42 42 42 42 42 42 42 42 42
35 36 35 36 35 35 35 35 36 35 36 36 36 37 38 38 38 38 38 38 39 39 40 40 40 40 40 40 40 40 40 41 41 41 40 40 40 41 41 41 41 41
35 35 35 35 35 35 34 34 35 34 35 35 35 35 37 36 37 37 37 38 38 39 39 40 41 41 41 40 40 39 39 39 39 39 40 39 39 40 40 40 40 41
34 34 34 34 34 33 33 34 33 33 34 34 34 34 34 35 35 35 36 37 37 37 38 40 41 41 39 38 38 38 38 38 38 39 39 39 39 39 39 39 40 40
33 33 33 33 33 33 33 33 33 33 33 33 33 33 34 34 34 34 35 35 36 36 36 38 39 40 37 38 39 39 38 38 37 38 38 38 39 39 39 39 39 40
32 33 32 33 32 31 32 32 32 32 32 32 32 32 32 32 33 34 34 34 35 35 35 36 36 36 37 38 38 38 38 37 37 37 37 38 38 39 39 39 39 39
32 32 31 31 31 31 31 31 31 32 32 31 31 31 32 32 32 32 32 33 33 34 33 34 34 35 36 37 37 37 37 37 36 36 36 36 37 37 38 38 39 39
31 30 30 30 30 31 30 30 31 31 31 31 31 31 31 31 31 31 32 32 32 32 32 32 32 34 35 36 36 37 37 37 35 35 35 36 36 36 37 37 38 38
30 29 29 29 29 29 30 30 30 31 31 31 30 30 30 30 30 30 31 32 31 31 31 31 33 34 35 36 36 36 36 36 35 35 34 35 35 36 36 36 37 37
28 28 28 28 29 29 30 30 30 30 30 30 30 30 30 30 30 31 31 31 31 31 31 30 30 33 34 34 35 36 36 34 33 33 33 34 34 34 35 35 36 36
27 28 28 28 28 29 29 29 29 29 29 30 30 30 30 29 30 30 30 31 30 30 30 29 29 30 32 33 34 35 35 32 32 32 32 32 33 33 34 34 35 35
27 27 28 28 28 28 28 28 28 29 29 29 29 29 29 29 30 30 30 30 30 30 29 29 29 29 31 32 33 35 34 32 32 32 32 32 32 32 33 34 34 33
27 26 27 27 27 27 27 27 27 28 28 29 29 29 29 29 29 29 29 28 29 29 29 29 29 29 30 31 33 33 33 32 31 31 31 31 31 31 32 32 33 33
26 26 26 26 25 26 26 26 27 27 27 27 27 28 28 28 28 28 27 27 28 28 28 28 28 29 29 31 31 32 34 32 31 30 30 30 31 31 31 31 32 32

ECMWFNIL_sfc_dewp_096.txt.gz
Dewpoint
55 55 54 54 53 53 52 52 50 50 49 50 51 49 50 50 51 51 51 52 52 52 53 53 53 54 55 55 54 54 54 55 55 54 55 55 56 55 55 55 55 55
52 51 49 50 50 49 49 50 50 49 49 49 49 49 49 50 50 49 50 50 51 51 52 53 54 54 55 55 55 55 55 55 55 55 54 54 55 55 55 55 55 55
48 48 48 48 48 48 48 49 49 49 49 49 48 48 49 48 48 48 48 48 48 49 50 50 51 52 53 53 54 54 54 54 54 54 54 54 54 54 54 54 54 54
46 46 46 46 47 47 47 47 47 48 48 48 47 48 48 48 47 46 47 46 46 46 47 48 48 50 51 51 51 52 52 52 52 53 52 52 53 53 53 53 53 53
45 45 45 46 45 45 45 46 46 46 46 46 47 46 47 46 46 45 45 44 44 44 45 45 45 47 48 49 49 49 49 50 50 51 50 50 50 51 51 51 51 51
44 44 44 44 44 45 45 45 45 45 45 44 44 44 44 43 42 42 42 42 42 43 42 42 43 44 45 45 46 47 48 48 48 48 48 48 48 49 49 49 49 49
42 42 43 44 43 43 43 43 43 43 43 42 41 42 41 41 41 41 41 41 41 42 42 42 42 43 43 44 43 43 44 45 46 46 46 46 46 46 47 47 47 47
40 40 41 40 40 40 40 40 40 40 40 39 39 39 39 40 40 40 39 40 40 40 40 40 40 42 40 41 41 42 43 44 45 44 44 44 44 45 45 45 45 45
39 39 39 38 38 38 38 38 38 37 37 37 37 38 39 39 39 40 39 39 38 39 39 38 39 38 38 39 40 40 42 43 43 43 43 43 43 43 43 44 44 44
38 37 37 37 37 37 36 35 35 35 36 37 37 38 38 38 38 38 37 37 37 36 36 36 37 36 36 37 38 38 40 41 41 42 42 42 42 42 42 42 42 42
36 35 36 36 36 36 35 35 35 36 36 36 36 36 36 36 36 35 35 36 37 36 37 36 36 36 37 36 36 36 37 39 40 41 41 41 41 41 40 41 41 41
35 35 35 35 35 35 35 35 35 35 34 34 33 35 34 34 34 34 34 35 34 35 35 36 35 35 35 35 35 34 35 36 37 37 38 39 40 40 40 40 40 40
35 35 35 34 34 34 34 34 34 32 32 32 32 32 32 33 33 32 33 33 34 34 35 35 36 35 35 35 35 34 34 35 35 35 36 37 37 38 38 38 39 39
34 33 34 34 33 32 33 32 32 31 31 31 31 31 32 31 32 33 32 32 33 34 35 35 35 35 35 35 34 34 35 34 34 35 35 35 35 35 36 36 37 37
33 33 33 33 31 31 30 30 30 30 30 30 30 30 32 31 31 32 33 34 33 34 34 35 35 36 36 37 36 35 34 34 34 34 34 34 34 34 34 35 35 36
32 31 31 30 30 30 30 29 29 29 29 29 30 30 30 31 31 32 32 32 32 33 33 34 34 35 34 36 37 36 34 34 34 33 33 33 33 33 34 34 34 35
30 30 30 30 30 29 29 30 30 30 30 30 30 30 30 31 31 31 31 31 31 32 32 33 33 34 34 37 37 37 35 33 32 32 32 32 32 33 33 34 34 34
30 29 29 29 29 30 30 30 30 30 30 29 29 29 30 30 30 29 30 30 31 30 30 31 31 33 35 36 36 36 36 34 33 32 32 32 32 32 33 33 33 34
29 29 28 29 29 29 29 29 28 29 29 29 29 29 28 28 29 29 29 29 29 29 29 30 30 32 34 35 35 35 36 35 33 32 32 31 31 31 32 32 33 33
28 28 28 28 28 28 28 28 27 28 27 27 27 27 27 27 27 27 27 28 28 28 28 28 29 31 33 34 34 35 35 35 32 32 31 31 31 31 31 31 32 32
28 27 27 27 27 27 26 26 26 26 26 26 26 26 26 27 27 27 27 27 27 27 27 28 28 31 32 33 33 34 34 34 31 31 30 30 30 30 30 31 31 32
26 26 26 26 26 25 25 25 24 24 25 25 25 25 25 25 26 24 26 26 26 26 27 26 25 30 31 31 32 34 34 31 30 29 29 29 28 28 28 28 30 31
26 25 25 25 24 23 22 23 23 24 24 24 25 25 25 25 25 25 26 26 26 26 25 25 25 27 30 31 32 32 33 29 28 28 28 28 27 26 27 27 28 29
25 24 22 23 21 21 22 22 22 22 23 25 24 25 24 24 25 26 26 24 25 25 24 24 25 27 29 31 31 32 31 29 28 28 27 27 26 25 25 25 26 28
23 23 21 21 20 20 20 20 21 22 24 24 23 22 23 25 26 25 25 24 22 24 25 25 25 26 28 29 30 31 30 28 28 28 27 26 26 25 24 24 24 26
22 21 20 20 18 18 19 19 21 21 20 21 21 21 23 24 23 23 22 23 23 23 24 24 24 24 26 29 29 30 30 28 27 26 25 25 26 26 26 26 26 25

ECMWFNIL_sfc_dewp_099.txt.gz
Dewpoint
54 54 53 53 52 52 50 49 47 47 46 46 48 47 47 47 47 47 46 48 47 47 48 49 50 50 51 52 53 54 53 53 53 54 54 53 54 54 54 54 54 54
53 51 50 49 48 48 48 47 47 47 46 46 46 46 47 47 46 47 46 47 46 46 46 47 47 48 49 50 50 51 51 52 51 52 51 52 52 52 52 53 53 53
49 48 47 47 47 46 46 46 46 46 46 45 46 46 46 45 45 45 45 45 45 45 46 46 46 47 47 46 47 48 47 47 48 48 48 49 50 50 50 51 50 50
45 45 45 45 45 45 45 45 44 44 44 44 43 43 44 43 44 43 43 42 43 43 43 43 44 44 45 46 46 46 47 47 47 48 48 48 48 48 48 48 48 49
44 44 44 44 44 44 44 43 43 42 42 41 43 43 43 43 42 41 40 39 40 39 41 41 41 41 41 42 42 42 42 42 44 46 45 45 46 46 47 47 46 46
42 42 42 43 42 42 42 41 41 41 41 41 41 41 41 40 39 38 37 37 36 37 37 37 38 38 38 38 37 38 37 38 40 42 42 43 43 43 44 44 44 44
40 40 40 40 40 40 40 39 39 39 39 38 38 38 37 37 37 36 36 36 36 36 36 36 37 36 35 36 35 35 36 38 40 41 41 41 41 41 42 42 42 42
38 38 38 38 38 38 37 37 37 37 36 36 36 34 35 36 36 35 34 34 34 35 35 35 36 37 35 35 36 36 36 39 37 39 40 40 40 39 40 40 40 40
37 37 37 36 36 36 36 35 35 34 33 35 35 34 34 34 34 34 33 33 34 33 34 35 35 34 34 35 35 35 35 34 34 36 37 38 38 39 39 39 39 39
36 35 35 35 35 35 34 33 33 33 32 33 32 32 34 33 32 32 33 33 34 34 34 34 34 34 34 33 34 34 34 34 34 33 34 35 36 36 36 36 37 38
34 34 34 34 34 33 33 32 32 32 32 32 32 33 32 33 33 32 33 34 34 34 34 34 33 32 33 32 32 32 33 33 33 33 33 33 33 34 35 35 35 35
33 33 33 32 32 32 32 32 32 31 31 32 31 32 32 32 32 32 32 32 31 31 31 31 31 31 32 32 32 32 31 31 31 31 31 32 32 33 33 33 33 34
32 32 32 32 32 31 31 31 31 30 31 31 30 30 31 31 30 30 30 30 30 30 31 31 31 31 31 31 32 31 31 32 31 31 31 31 32 32 32 32 32 33
32 31 31 31 31 30 30 30 30 30 30 29 29 30 30 29 29 29 29 29 30 30 30 30 30 30 30 30 30 30 31 31 31 31 31 31 31 31 31 32 32 32
31 30 30 30 30 30 30 30 30 29 29 29 28 29 29 29 29 29 29 29 29 29 30 30 30 31 30 30 31 32 31 32 31 31 31 31 31 31 31 31 32 32
30 29 30 29 30 30 29 29 29 29 28 28 28 28 28 28 28 28 28 29 29 29 29 29 29 29 30 33 35 33 32 31 31 31 30 30 30 30 30 30 30 30
30 29 29 29 29 29 28 28 28 28 27 26 27 27 27 27 27 27 27 27 27 27 28 28 28 28 31 34 35 35 33 31 30 30 30 30 30 30 29 29 29 30
29 28 28 28 27 27 27 26 26 25 25 25 25 26 26 25 26 26 26 26 27 26 27 27 27 30 33 35 35 34 34 32 31 30 30 29 29 29 29 29 29 29
27 27 27 27 26 25 25 25 23 24 23 24 25 26 25 25 25 25 25 25 25 26 26 27 26 30 33 35 35 34 34 33 30 29 29 29 28 28 28 27 27 27
26 26 26 25 25 24 24 24 23 23 23 23 24 24 24 24 24 24 25 25 25 25 26 26 26 28 32 33 33 33 33 32 29 29 28 28 27 27 26 26 26 26
25 25 25 25 24 23 23 22 23 21 22 23 24 25 25 25 25 24 25 23 24 24 24 25 25 29 31 32 32 33 33 33 28 27 27 26 25 25 25 25 24 25
25 25 25 24 23 22 22 22 22 22 22 23 24 24 23 23 23 21 22 23 23 23 23 22 22 28 30 31 31 31 30 27 26 25 24 24 23 23 23 23 23 23
24 24 24 23 22 21 21 21 21 22 22 23 24 24 23 22 20 21 23 22 21 21 21 21 22 26 28 29 28 28 29 26 25 24 24 23 22 22 22 22 22 22
24 23 22 21 20 20 20 20 20 19 19 22 23 23 21 20 21 21 20 19 19 19 20 21 21 23 26 27 26 27 28 25 25 24 23 23 23 22 23 23 23 25
22 22 21 20 19 19 19 19 19 19 22 22 21 18 19 19 20 19 18 18 17 18 22 21 19 21 24 25 25 26 25 24 24 23 23 22 23 23 23 24 24 25
22 20 20 19 18 18 18 19 21 21 20 19 18 16 17 17 16 15 14 16 16 16 18 18 18 19 21 23 24 25 26 24 23 22 22 23 23 23 23 23 23 23

ECMWFNIL_sfc_dewp_102.txt.gz
Dewpoint
52 52 52 51 50 50 49 49 48 48 45 45 47 45 46 44 44 45 43 44 44 45 45 45 46 46 47 47 47 49 49 49 48 48 48 49 49 49 49 48 49 49
50 49 49 49 48 48 47 48 49 48 45 45 45 44 43 43 43 44 44 44 44 44 44 45 45 45 45 45 44 45 45 46 46 47 47 47 47 47 47 47 47 48
48 47 48 48 48 47 46 46 46 45 44 43 43 43 43 41 42 42 42 42 42 42 42 42 43 43 43 42 43 44 45 46 46 47 46 46 47 46 47 46 47 46
46 45 46 45 46 45 44 44 43 43 43 43 42 41 42 40 40 40 40 39 40 40 40 41 40 40 40 40 40 40 40 41 42 42 43 43 44 43 43 43 43 43
44 44 44 43 43 43 43 42 42 42 42 40 40 40 40 40 39 38 36 36 37 36 37 38 38 38 37 38 37 38 37 39 40 40 40 41 42 42 42 41 40 40
41 42 42 42 41 41 41 40 40 40 39 39 38 38 38 37 36 36 35 35 34 35 34 33 34 33 34 34 34 35 33 34 35 36 36 38 38 38 38 38 36 35
40 40 39 39 39 39 39 38 38 37 37 37 36 35 34 34 34 34 34 33 34 33 33 33 33 33 32 32 33 33 32 33 33 34 35 35 35 34 35 35 34 35
38 37 38 38 37 37 36 36 35 35 34 34 34 31 33 33 33 32 32 32 33 33 32 32 33 34 31 31 32 32 32 33 32 32 32 33 32 33 32 32 33 35
36 35 35 34 35 34 34 34 33 32 32 33 33 32 31 32 32 32 32 32 32 31 32 32 32 31 30 31 32 32 32 31 30 31 32 33 33 32 32 31 32 31
34 34 33 33 33 33 33 32 32 32 31 32 31 31 32 31 31 31 32 31 32 31 31 31 31 31 31 30 31 32 32 31 31 31 31 31 31 32 31 31 31 31
33 33 33 32 32 32 31 31 31 31 31 30 31 31 30 31 31 31 31 31 32 31 31 31 31 31 31 31 30 29 30 31 31 30 30 30 30 30 32 30 31 31
32 32 32 31 31 31 31 31 31 30 30 30 29 30 30 30 30 30 30 30 31 30 29 30 30 29 30 31 31 30 29 30 29 29 29 29 30 30 30 30 30 30
31 31 31 31 31 30 30 30 30 30 30 29 29 29 29 29 29 29 29 29 29 29 30 30 30 30 29 28 29 28 29 29 29 29 29 29 29 30 30 29 29 29
31 31 30 30 30 30 30 29 29 29 29 28 28 29 29 29 29 29 28 28 28 28 28 28 28 28 28 28 28 28 29 29 29 29 29 29 29 29 29 29 29 29
30 30 30 29 29 29 29 29 28 28 28 28 28 28 29 28 28 28 28 28 27 28 28 28 28 28 27 28 30 29 28 29 29 29 28 28 28 28 28 28 28 28
29 29 29 28 28 28 28 27 27 27 27 27 28 28 27 27 27 27 27 27 27 27 27 27 27 26 28 33 34 31 30 29 29 29 28 28 28 28 27 27 28 27
28 28 28 27 27 27 26 26 26 26 26 26 26 26 26 26 26 26 26 26 26 26 26 26 26 26 31 33 33 33 30 28 28 28 28 28 27 27 26 26 26 26
28 27 27 26 26 26 26 25 25 25 25 25 25 25 25 25 25 25 25 25 26 25 25 25 25 29 31 32 31 31 32 30 27 27 27 26 26 26 25 25 25 24
26 26 26 26 25 25 25 24 24 24 24 24 24 24 24 24 25 24 24 25 25 25 24 25 24 29 30 29 30 31 30 31 27 26 25 24 24 24 24 23 23 22
25 25 25 25 24 24 24 23 23 23 22 22 22 23 24 24 23 23 23 24 24 24 24 24 22 27 28 29 29 30 30 27 24 24 24 23 23 22 22 22 21 21
25 24 24 23 23 22 22 22 22 22 22 22 23 22 22 22 22 21 23 22 23 23 23 21 21 26 27 27 28 29 29 27 24 23 22 22 22 21 21 21 21 22
24 24 23 22 22 21 21 21 21 21 21 22 21 22 21 21 21 21 21 21 21 20 20 20 20 25 26 27 27 28 27 24 23 22 22 21 21 21 21 22 22 22
23 22 22 21 21 20 20 20 20 20 20 20 20 20 20 21 22 21 21 20 20 19 20 20 19 22 24 26 26 27 27 23 22 22 21 21 21 21 22 22 22 22
22 22 21 20 20 20 20 20 19 18 19 19 20 19 20 21 22 22 21 19 18 19 21 20 17 20 23 25 26 27 26 23 22 21 20 20 21 21 22 21 22 23
22 21 20 20 19 19 18 18 17 17 18 18 19 19 21 22 21 20 18 18 18 19 20 16 14 18 23 24 25 26 25 21 21 20 20 20 22 22 22 22 21 22
21 20 19 18 18 17 17 18 17 17 18 17 19 19 19 18 16 17 16 16 15 12 13 13 14 15 19 23 24 25 26 23 19 20 21 22 22 22 21 21 21 21

ECMWFNIL_sfc_dewp_105.txt.gz
Dewpoint
55 55 55 54 54 53 52 50 50 48 46 46 48 46 47 44 43 44 43 43 43 44 43 44 44 44 44 45 45 46 45 46 46 46 46 46 46 46 46 45 45 45
53 52 51 52 50 49 49 49 48 48 45 45 45 44 42 43 41 42 42 42 42 42 42 42 42 42 43 44 44 45 45 46 46 47 46 45 45 45 44 44 44 44
51 51 51 51 50 49 48 48 47 46 45 43 42 42 41 40 41 41 41 41 40 40 40 40 40 40 40 41 43 43 43 42 42 42 42 41 41 42 42 42 40 39
49 50 50 48 48 47 46 46 45 45 44 42 40 40 40 39 40 39 39 38 39 39 38 38 38 38 38 38 39 39 40 40 41 40 40 41 41 41 41 40 40 38
47 46 46 46 45 45 45 45 44 43 41 40 39 39 39 39 38 37 36 35 36 35 35 36 36 36 36 36 36 37 38 38 38 37 37 37 38 39 38 37 36 35
43 43 43 44 44 44 43 42 40 40 39 39 38 37 37 36 36 35 34 34 33 33 33 33 34 33 33 33 33 33 32 33 33 33 34 34 33 31 33 32 32 33
43 42 42 42 42 41 40 39 38 38 38 36 35 35 34 34 34 34 33 33 33 33 33 33 33 33 31 31 32 33 32 32 31 31 31 31 30 30 30 30 31 33
40 40 40 39 38 38 37 36 35 35 34 34 34 31 33 34 33 32 32 33 33 33 32 32 32 32 30 32 32 32 32 31 30 30 30 30 29 31 30 30 30 31
37 36 36 35 35 34 34 33 33 33 32 34 33 32 31 32 32 32 32 32 31 31 31 31 31 31 31 31 30 30 30 30 30 30 30 30 30 29 29 29 29 29
35 34 34 34 34 34 33 32 32 32 32 32 32 32 32 31 31 31 31 31 31 31 31 31 31 31 31 31 30 30 29 29 28 30 30 30 30 29 29 29 29 29
33 34 34 33 33 33 32 32 32 32 31 32 32 31 31 31 30 30 30 30 31 30 30 30 30 30 30 30 29 29 28 28 28 29 28 28 28 29 29 28 28 28
33 33 33 32 32 32 31 31 31 31 31 31 31 30 29 30 29 28 29 30 30 30 30 29 29 29 29 28 28 28 29 29 28 28 28 28 28 28 28 28 28 28
32 32 32 32 32 31 31 31 30 30 30 29 29 29 29 29 28 29 29 29 29 29 29 29 28 28 29 28 28 28 28 28 29 29 28 28 28 28 28 28 27 27
32 31 31 31 31 30 30 30 30 29 29 28 28 28 28 28 28 28 28 28 28 28 28 28 27 27 28 28 28 28 28 28 28 28 28 28 28 27 27 27 27 27
31 31 30 30 30 29 29 28 28 28 28 28 27 28 28 28 27 27 26 26 26 27 26 26 26 26 27 29 29 29 29 28 28 28 28 27 27 27 27 26 26 26
30 30 29 29 28 28 27 27 27 27 27 26 26 27 26 26 26 26 26 25 25 25 25 25 25 26 30 32 33 30 29 28 28 27 26 26 26 26 25 25 25 25
29 29 28 27 27 27 26 26 26 26 25 25 25 25 25 25 24 24 25 25 25 24 24 24 24 27 31 31 32 32 30 28 27 27 26 25 25 24 24 24 24 24
28 27 27 26 26 26 25 25 25 25 24 24 24 24 24 24 24 24 24 24 24 24 23 23 22 30 30 30 31 31 31 26 25 24 24 24 24 23 23 22 22 22
26 26 25 25 25 25 24 24 24 24 24 23 24 24 23 23 23 23 23 23 23 22 22 22 21 29 29 29 30 30 29 26 23 23 23 22 22 21 21 21 21 21
25 25 24 24 24 24 24 23 23 23 24 24 23 22 22 22 22 22 22 22 22 22 21 20 20 27 28 29 29 29 28 25 22 22 22 21 21 21 21 21 21 21
24 24 24 24 23 23 23 23 23 23 22 22 22 22 21 21 21 20 21 21 21 21 19 18 19 26 27 28 29 29 28 25 22 22 21 20 21 20 20 20 21 21
23 23 23 22 22 22 22 21 21 22 21 21 21 21 21 21 21 21 20 20 20 20 19 17 17 25 26 27 28 29 27 21 21 21 20 20 20 20 20 21 21 21
22 22 22 21 22 21 21 21 21 20 20 20 19 20 20 20 20 20 20 19 19 19 19 18 17 21 25 27 27 28 26 19 19 18 19 20 21 21 21 21 21 21
22 21 22 21 20 20 20 20 20 19 19 18 19 19 19 19 19 19 19 19 18 18 20 18 19 20 24 26 27 27 26 21 20 20 20 21 21 20 20 20 20 22
22 21 21 20 20 20 19 19 19 19 19 19 18 18 18 18 18 18 17 17 18 19 20 18 18 18 22 25 26 26 25 23 21 21 21 21 21 20 19 19 19 19
21 20 20 20 19 19 19 19 18 18 17 17 16 17 17 17 17 16 16 18 19 19 17 17 17 17 19 23 25 25 26 24 22 21 21 21 20 20 20 19 19 18

ECMWFNIL_sfc_dewp_108.txt.gz
Dewpoint
57 56 57 57 57 57 56 55 54 54 53 51 51 49 49 45 46 47 46 45 44 43 42 43 43 44 45 45 45 46 46 45 45 45 45 44 44 43 43 43 42 42
56 55 55 56 54 53 53 54 53 52 50 50 49 47 45 45 45 45 44 42 41 41 41 42 43 44 44 44 44 44 44 43 42 42 42 41 41 41 39 39 39 40
55 55 55 54 53 52 51 51 50 49 49 47 46 46 44 43 43 41 41 40 40 39 39 40 40 41 42 42 42 41 41 40 39 39 39 39 40 39 38 39 38 37
53 54 54 53 52 50 49 49 48 46 46 45 45 44 43 41 40 39 39 38 39 38 37 37 37 38 38 39 39 39 39 38 39 39 38 38 38 38 38 37 37 36
52 51 51 51 50 49 49 48 47 46 45 44 41 41 40 39 39 37 36 35 36 35 36 36 36 36 36 37 37 37 37 36 36 36 36 36 37 37 36 33 32 31
49 50 49 49 48 48 48 47 46 45 43 42 41 39 39 38 37 35 35 35 34 35 35 34 33 33 34 34 34 34 33 32 32 34 33 32 30 29 31 31 31 31
47 47 47 47 47 47 46 45 44 43 42 40 38 37 36 35 35 35 35 34 34 34 34 34 33 31 32 33 33 32 32 31 30 30 29 28 28 29 29 29 29 29
46 46 45 45 45 44 43 42 41 40 38 36 35 33 35 35 34 34 33 34 34 34 34 33 32 32 31 32 32 31 30 30 30 30 29 29 29 28 28 28 28 27
43 43 43 42 42 40 39 38 37 36 35 35 34 33 33 34 33 33 33 33 33 32 32 32 32 31 31 31 30 30 29 29 29 29 28 28 27 27 27 27 28 27
41 40 40 40 39 38 37 36 35 34 34 34 33 33 33 32 32 32 32 32 32 31 31 30 30 30 30 30 29 29 29 28 28 29 28 28 27 27 27 27 26 26
38 39 39 38 37 37 35 34 34 34 34 33 33 32 32 31 31 31 31 31 31 30 30 29 29 29 29 29 29 29 28 27 28 28 28 28 28 28 28 27 27 26
38 38 38 37 36 35 34 34 33 33 33 33 32 31 31 31 30 30 30 30 29 29 29 28 28 28 28 29 29 29 29 29 29 29 29 28 28 28 27 27 27 26
37 37 36 35 34 33 33 33 32 32 32 31 31 30 29 29 29 29 29 28 28 28 28 28 28 29 29 29 29 29 29 29 29 28 28 28 27 27 27 27 26 25
36 34 33 33 33 32 32 31 31 31 30 30 29 28 28 28 27 27 27 27 27 27 27 28 29 29 29 29 29 29 29 28 28 28 27 27 27 27 26 26 25 25
33 32 32 32 31 31 30 30 29 29 28 28 27 27 27 27 26 26 25 25 25 25 26 27 29 29 29 29 30 29 29 28 27 27 27 26 26 26 25 24 24 24
32 31 31 30 30 30 29 28 28 27 27 26 26 26 26 25 24 24 23 23 23 23 25 27 28 30 32 33 32 28 27 27 27 27 26 26 25 24 24 24 24 23
31 30 30 29 29 28 27 27 26 26 25 25 24 24 24 24 23 23 22 22 22 23 25 27 29 30 33 33 30 28 26 26 25 25 25 25 24 23 23 22 22 22
30 29 28 28 27 27 26 25 25 24 24 23 23 23 23 23 22 22 22 22 22 22 24 27 29 32 32 32 30 28 26 24 25 24 24 24 24 23 22 22 21 21
29 28 27 26 26 25 25 24 24 23 23 23 23 23 22 22 22 22 21 21 20 21 23 25 28 31 32 31 29 27 26 24 23 24 22 23 22 22 21 21 21 21
28 27 26 25 25 25 24 23 23 22 22 22 23 22 21 21 21 21 21 19 19 21 23 25 27 30 31 30 29 27 26 24 23 22 22 21 21 21 21 21 21 20
27 26 25 25 24 24 24 23 22 23 22 23 22 21 21 21 20 20 20 20 19 19 22 24 27 30 30 30 29 27 26 24 22 22 21 21 21 21 21 21 21 21
26 24 24 23 23 23 23 22 22 22 22 22 22 21 21 21 20 20 20 19 19 18 20 22 25 29 29 29 28 27 25 22 21 20 20 20 20 20 20 21 21 20
24 24 24 23 23 22 22 22 22 21 21 21 21 21 20 19 19 19 19 19 18 17 18 19 22 27 28 28 28 26 23 22 21 21 21 20 20 19 19 19 20 20
24 23 24 23 23 22 22 22 21 21 20 20 20 19 19 19 19 18 18 18 17 16 16 18 18 25 27 27 27 26 23 21 21 22 22 21 20 19 19 19 19 20
24 24 24 23 22 22 22 21 20 20 19 19 19 19 19 18 18 17 16 16 16 17 19 17 17 22 26 26 27 26 23 22 22 22 21 20 19 19 18 18 18 20
24 24 23 23 22 21 21 20 19 18 18 18 18 18 17 17 16 16 15 15 15 15 16 16 17 18 23 25 26 26 25 22 22 21 21 19 19 19 18 18 17 18

ECMWFNIL_sfc_dewp_111.txt.gz
Dewpoint
60 59 59 59 59 59 58 58 57 57 57 56 56 55 54 51 50 49 48 48 48 47 47 46 47 47 47 46 47 46 46 46 45 45 43 41 42 41 41 40 40 39
59 58 58 58 58 57 58 58 57 57 56 55 55 52 49 48 48 48 47 46 45 45 45 46 46 46 46 46 45 45 44 44 43 42 40 40 39 39 38 38 38 39
58 57 57 57 57 57 57 57 57 56 55 54 51 50 48 47 47 46 46 45 44 44 44 45 45 45 45 44 43 42 41 40 39 38 38 38 38 37 37 37 37 37
57 57 57 57 57 56 55 54 53 52 50 50 49 48 47 46 45 44 43 42 42 42 42 43 42 42 42 41 40 39 38 38 38 38 38 38 37 37 36 35 34 34
57 57 57 56 56 55 53 53 51 50 50 49 46 45 44 44 43 42 41 41 41 40 40 40 40 39 39 38 38 38 37 37 37 37 37 36 36 35 33 33 32 33
55 56 55 55 53 53 52 51 50 49 47 46 45 45 45 44 43 41 39 39 38 38 37 37 37 37 37 37 37 35 35 34 35 34 33 33 31 31 32 33 33 32
53 53 53 53 52 52 52 50 49 47 47 46 44 43 42 41 40 39 38 38 37 36 35 35 35 35 36 35 34 33 32 32 32 32 32 32 32 31 32 32 32 30
51 51 51 51 51 50 49 48 47 47 45 43 43 40 41 40 38 38 38 37 37 36 35 35 35 34 34 33 32 32 32 31 31 32 31 32 31 31 31 32 31 30
49 49 49 48 48 47 46 45 45 43 42 42 40 39 38 38 37 37 37 37 36 35 34 34 33 33 33 33 32 31 31 31 32 31 31 30 30 30 30 31 30 30
46 46 46 46 46 44 43 41 41 40 40 40 39 38 37 37 37 36 36 36 35 34 33 33 32 32 32 32 32 31 31 31 31 31 31 30 30 30 30 29 29 28
44 44 45 44 43 41 40 39 39 39 39 38 37 37 36 36 35 35 35 35 34 32 31 31 31 31 31 31 31 32 31 31 30 30 30 30 30 30 29 29 28 28
42 42 42 42 40 40 39 39 38 38 37 37 37 35 35 35 34 34 33 33 32 31 30 30 31 30 30 30 30 31 31 31 31 30 30 29 29 29 28 28 28 27
40 41 40 40 39 39 38 37 37 37 36 36 35 34 34 33 33 32 31 30 30 29 30 30 30 31 30 31 31 30 30 30 30 29 29 29 28 28 27 27 27 27
39 39 39 38 38 37 37 36 36 35 35 34 33 33 32 31 30 29 28 28 28 28 29 29 30 30 31 31 31 31 30 29 29 29 28 27 27 27 27 26 26 26
37 37 37 36 36 36 35 35 34 33 32 32 31 30 30 29 28 27 27 27 27 28 29 30 30 30 31 31 30 30 29 28 28 28 27 26 25 25 25 25 25 25
36 35 35 35 35 34 33 32 31 31 30 29 29 28 27 26 25 25 25 26 27 28 29 30 31 31 30 30 29 29 28 28 28 27 26 25 24 23 23 24 24 23
35 34 34 34 33 32 31 31 30 29 28 27 26 26 25 24 23 23 24 25 27 28 30 31 31 31 32 31 30 29 27 26 25 25 26 25 24 23 21 21 21 22
34 33 33 32 31 31 30 29 28 27 26 25 25 24 24 22 21 21 23 25 27 29 30 31 32 31 31 31 30 29 27 25 25 25 24 23 23 22 21 20 20 20
33 32 31 30 30 29 28 27 26 27 26 25 25 23 22 21 20 21 23 25 27 28 30 31 31 31 30 30 30 29 28 25 23 23 22 21 21 20 20 20 20 19
32 31 30 29 28 28 26 26 26 25 25 24 24 23 22 21 22 21 23 25 27 28 29 30 31 31 30 30 29 29 28 25 23 22 21 21 20 20 20 20 19 18
31 30 29 28 27 26 26 26 24 23 24 24 24 23 23 22 21 22 23 25 26 28 28 29 30 31 30 29 29 29 27 25 22 21 21 20 20 20 20 19 19 18
30 29 28 27 26 26 25 25 24 24 24 23 23 22 22 22 21 22 24 25 26 27 28 29 30 31 30 29 29 28 26 22 21 21 20 20 19 19 19 19 18 18
29 28 27 26 26 25 25 24 24 24 23 23 22 22 21 21 21 22 23 24 25 26 27 28 29 30 29 29 28 27 24 22 22 22 21 19 18 18 18 18 18 18
28 28 27 27 26 26 25 24 24 23 23 23 22 21 21 21 20 21 21 22 23 25 26 27 27 29 29 28 27 26 24 23 23 22 21 20 19 18 18 17 18 20
28 28 28 27 26 26 25 24 24 23 22 22 21 21 20 20 19 19 19 19 20 22 24 25 26 28 29 28 26 26 24 23 23 22 21 20 20 19 17 17 17 19
28 28 27 27 26 25 25 24 23 21 21 21 20 19 19 18 18 18 17 17 19 20 22 23 25 26 28 28 27 26 25 23 23 21 20 20 20 19 18 18 17 17

ECMWFNIL_sfc_dewp_114.txt.gz
Dewpoint
60 60 60 60 60 60 60 60 61 61 60 60 59 59 58 58 57 57 57 56 55 54 53 52 52 52 52 52 53 52 50 49 48 48 47 46 44 44 43 43 42 39
60 60 59 60 60 60 60 61 61 60 60 59 59 58 58 57 56 57 55 55 52 52 52 51 51 51 52 51 51 49 48 47 45 45 43 43 42 43 42 42 40 39
60 60 60 60 60 60 60 60 61 60 60 59 59 58 57 55 54 54 54 51 51 51 51 51 51 51 50 49 48 47 46 45 42 42 41 40 39 39 39 39 39 40
60 60 60 60 60 60 60 60 60 60 60 58 58 56 54 54 52 52 52 48 50 49 49 49 48 48 48 47 47 46 44 41 40 40 39 38 39 38 38 37 37 35
60 60 60 60 60 60 60 60 59 59 58 57 55 53 53 51 50 49 48 48 48 47 47 46 46 46 46 45 43 41 39 37 38 38 37 36 37 37 36 35 34 34
60 60 60 60 60 60 59 59 59 57 56 55 53 51 51 50 49 48 47 46 45 45 45 45 44 43 44 40 39 38 37 37 37 37 36 35 34 34 36 34 33 32
59 59 59 59 60 59 58 58 57 55 55 52 51 50 50 49 48 47 46 45 44 43 43 43 42 40 39 38 37 36 36 36 37 36 34 32 32 33 35 33 31 31
58 58 58 59 59 58 58 57 55 54 53 52 51 49 49 49 46 46 45 44 44 42 41 41 39 38 37 36 35 35 36 37 35 34 32 32 31 31 32 34 31 29
57 57 57 57 57 56 56 54 53 52 50 50 49 47 46 46 45 44 43 42 41 41 41 39 37 36 36 35 34 34 33 34 34 32 31 30 29 29 30 31 30 29
54 54 54 54 54 54 53 52 50 49 48 48 47 46 44 42 42 43 42 42 41 40 38 37 36 35 34 33 33 32 31 31 32 32 31 30 29 29 29 29 28 27
51 51 52 52 52 50 50 48 47 46 46 45 44 44 43 41 41 41 42 41 39 37 36 35 34 33 32 32 33 32 31 31 30 30 30 29 29 30 30 29 28 27
49 49 50 50 48 47 45 44 43 43 43 42 43 42 41 41 41 41 40 39 37 36 34 33 32 31 31 30 30 31 31 30 30 30 29 29 28 28 28 28 27 27
47 48 48 47 45 44 42 42 42 41 41 42 42 42 41 40 40 39 38 36 35 33 32 32 31 31 31 30 30 30 30 29 29 28 28 27 27 27 27 27 27 27
45 43 43 43 42 41 41 41 41 41 41 41 40 40 40 39 39 38 35 33 32 31 31 30 30 30 31 30 30 30 29 29 28 27 27 27 26 26 26 26 26 26
42 41 41 41 40 40 39 39 40 40 39 40 40 39 38 38 36 32 31 31 30 30 29 30 31 31 31 30 30 29 29 29 28 27 26 25 25 24 24 24 25 25
40 39 39 39 39 39 39 38 38 38 38 37 39 38 35 32 30 30 29 29 28 28 29 31 31 32 30 31 31 29 29 30 29 26 25 24 23 22 22 23 24 24
39 38 38 38 39 38 38 37 36 36 36 36 35 33 31 30 29 28 28 28 28 28 28 31 31 31 31 32 32 32 29 27 27 26 25 23 21 21 20 20 21 21
38 37 37 37 37 36 36 36 35 35 35 33 32 31 30 28 27 26 27 27 28 28 28 29 29 31 32 32 32 32 30 27 27 26 25 23 20 20 20 20 19 19
37 37 36 36 36 35 34 34 34 33 32 32 31 28 26 26 25 25 25 27 27 28 28 28 28 32 33 33 32 31 30 27 25 25 23 22 20 19 19 18 19 18
36 36 35 35 34 34 33 33 33 32 32 31 30 27 25 25 25 26 26 27 28 28 28 28 28 32 33 32 32 31 29 27 24 22 21 20 19 19 19 18 18 18
36 35 35 34 33 32 32 32 32 31 30 29 28 27 27 27 27 28 27 29 29 30 29 28 28 32 33 32 31 30 29 26 22 22 20 19 19 19 18 18 18 18
35 35 34 33 32 32 32 31 31 30 29 27 27 25 25 26 26 28 30 31 30 31 29 28 29 32 32 32 32 30 28 24 22 20 20 19 19 19 18 18 17 18
35 35 34 33 32 31 32 31 30 29 28 27 28 26 26 25 27 28 29 30 31 31 30 29 29 31 31 31 31 30 26 24 24 23 21 19 18 19 18 17 17 18
35 34 33 32 32 32 32 31 30 29 28 27 27 25 26 26 27 27 29 30 31 31 31 30 30 30 31 31 31 28 26 25 24 23 22 21 19 18 18 17 18 22
34 34 33 32 32 32 31 30 29 28 27 27 26 26 25 25 26 27 28 29 30 31 30 30 30 30 31 31 29 28 25 25 24 23 22 21 20 19 17 17 19 22
33 33 33 32 32 32 31 30 28 27 26 26 26 24 24 23 24 26 27 27 28 29 30 30 29 29 29 30 29 28 26 25 24 22 22 22 21 20 19 19 19 19

ECMWFNIL_sfc_dewp_117.txt.gz
Dewpoint
59 60 60 60 60 60 60 61 60 60 60 61 61 61 61 61 61 61 61 61 60 59 59 58 57 56 56 56 55 55 54 54 52 52 52 50 49 49 48 47 44 41
59 59 59 60 60 60 59 60 60 60 60 61 61 61 61 60 60 60 60 59 58 57 57 57 56 55 55 55 55 54 52 51 50 50 50 49 47 47 46 44 42 40
59 59 59 59 59 60 60 60 60 60 60 61 61 61 61 60 60 60 59 57 55 55 55 55 54 54 54 54 54 51 50 49 49 49 48 47 45 44 44 43 40 40
59 59 59 59 60 60 60 60 60 60 60 61 61 61 60 60 59 59 58 54 55 53 53 53 52 53 53 52 51 49 49 49 48 45 44 43 42 42 41 39 39 38
59 58 59 59 60 60 60 60 60 60 60 61 60 60 59 58 58 57 55 54 53 53 52 52 53 52 52 50 49 49 49 46 43 43 41 39 39 39 39 38 37 35
58 58 58 59 59 59 60 60 60 60 61 60 60 59 58 57 56 55 53 52 52 51 50 51 51 51 50 49 49 48 45 41 41 40 38 38 38 38 38 37 36 34
59 59 59 59 59 60 60 60 60 60 60 60 58 58 57 55 54 53 52 51 50 49 49 49 49 49 48 47 45 42 39 39 39 38 37 35 35 36 36 35 34 32
59 59 60 60 60 60 60 60 60 60 59 58 57 56 55 54 53 52 50 49 49 48 47 47 48 47 43 42 40 39 38 39 38 36 33 33 33 33 34 35 33 31
59 59 59 59 59 60 59 59 59 58 57 57 55 54 53 53 52 51 49 48 47 46 46 44 43 41 40 39 38 38 37 38 36 33 31 30 31 32 33 32 30 30
58 58 58 58 58 58 57 57 56 56 56 55 54 53 52 51 51 50 48 47 46 45 44 42 40 39 38 38 37 36 36 35 33 32 31 30 30 31 32 30 29 29
55 56 56 56 57 57 55 54 53 53 52 52 50 50 50 49 48 47 47 47 46 45 44 40 39 38 37 36 36 35 34 33 32 30 29 29 29 30 31 30 29 28
52 53 54 55 55 54 53 52 50 50 50 48 49 49 46 46 46 45 45 45 45 44 42 40 37 36 35 34 33 32 32 31 31 30 30 30 29 29 30 29 29 28
50 50 51 51 51 50 49 48 48 46 46 46 45 45 44 44 42 43 43 44 43 41 40 38 36 35 34 33 31 30 29 29 29 29 29 28 28 29 29 29 28 28
48 47 47 47 46 44 44 43 43 43 44 43 43 43 43 43 43 43 42 42 40 39 38 36 34 33 31 31 30 29 29 28 28 28 28 28 28 28 28 28 28 28
45 43 43 42 41 42 41 41 41 41 41 41 41 42 42 42 42 42 41 40 38 38 37 34 33 32 31 29 29 29 28 28 28 27 26 26 26 26 26 27 27 27
42 41 41 40 40 40 40 40 40 40 40 40 40 40 40 40 40 40 40 38 37 35 34 34 32 32 30 31 31 28 28 28 28 26 25 25 25 24 24 25 25 26
40 40 40 40 40 39 39 39 39 39 39 39 39 39 39 39 39 38 38 38 35 33 32 33 32 30 31 32 32 32 28 26 25 25 25 24 23 22 23 23 23 24
39 39 39 39 39 39 38 38 38 38 38 38 38 37 37 37 37 37 36 35 34 33 31 30 29 31 33 33 33 33 29 25 25 25 25 22 21 20 21 21 21 22
38 38 38 37 38 38 37 37 37 37 37 36 37 37 36 36 36 36 34 33 31 30 29 28 28 33 33 35 34 34 32 27 25 25 22 21 20 20 20 19 20 20
37 37 37 37 37 36 36 36 36 37 37 36 36 35 35 35 34 33 32 30 29 27 27 27 28 32 36 35 35 34 32 30 25 25 22 20 19 19 19 18 19 19
37 37 37 36 36 36 36 36 36 36 35 35 34 34 34 34 33 32 30 29 27 26 25 26 28 34 35 34 34 33 32 29 25 24 21 20 19 18 18 18 18 19
37 37 36 35 35 35 35 35 35 35 34 34 33 33 33 32 31 31 30 29 27 26 26 25 29 35 34 34 33 32 30 26 23 21 20 19 18 18 18 18 18 18
37 37 36 35 34 34 34 34 34 34 33 32 32 32 32 31 31 30 30 29 29 27 26 27 31 33 34 33 33 31 27 25 24 24 22 19 18 18 17 17 18 18
37 36 35 34 34 34 34 34 33 33 32 32 32 31 31 31 30 30 30 30 29 28 28 28 30 32 33 33 32 30 28 25 24 23 23 22 19 18 17 17 19 25
37 36 35 34 34 34 34 33 33 32 32 31 31 31 31 30 30 29 29 30 29 29 29 29 30 31 33 33 31 30 26 26 24 25 23 22 21 19 18 18 20 23
36 35 34 34 34 33 33 33 33 32 31 30 30 30 29 29 28 30 30 30 30 30 29 29 29 30 32 32 31 29 28 26 25 23 24 23 21 21 20 20 20 21

ECMWFNIL_sfc_dewp_120.txt.gz
Dewpoint
59 59 59 59 59 59 59 59 60 60 60 60 60 61 62 62 62 62 62 62 62 62 61 61 60 60 59 58 58 57 56 56 56 55 54 53 50 50 49 47 45 44
60 59 58 59 59 59 59 59 59 60 60 60 60 61 61 62 62 62 62 62 61 61 60 60 60 58 57 57 56 56 55 54 53 52 52 49 49 49 48 46 44 41
60 59 59 58 59 59 59 59 60 60 60 60 60 61 61 61 62 62 62 61 61 60 60 59 58 57 56 56 55 54 53 52 51 51 50 48 48 48 46 45 42 39
59 59 59 59 58 58 59 59 60 60 60 59 60 60 61 61 61 61 61 58 60 59 59 57 56 56 56 55 54 52 51 50 50 50 49 47 47 46 45 43 39 37
58 58 59 59 59 58 59 59 59 59 60 60 59 59 60 60 60 60 60 59 58 57 57 56 56 55 54 54 51 50 50 49 49 49 48 45 44 44 42 40 38 36
57 58 58 58 58 58 58 59 59 59 59 59 59 59 59 59 59 59 58 56 54 55 55 54 54 53 53 51 50 50 49 47 46 46 44 43 41 41 40 38 36 34
57 57 57 58 57 58 58 58 58 58 59 58 57 58 59 58 58 58 57 56 53 52 53 53 53 51 50 49 49 48 46 44 43 42 41 39 39 38 37 36 33 32
56 56 57 57 57 57 57 57 58 58 58 55 56 56 57 57 57 57 55 54 53 52 51 51 52 51 49 49 48 45 42 43 42 40 39 37 37 36 35 34 32 31
53 54 55 54 55 55 55 55 56 56 56 55 55 54 55 56 55 54 53 52 52 51 51 50 50 49 48 48 46 44 41 41 40 38 37 36 35 34 33 32 31 30
51 51 51 51 52 52 52 51 53 55 55 55 55 54 54 53 54 53 52 51 50 49 49 49 48 46 45 45 44 42 40 40 38 36 35 34 33 32 32 30 29 29
48 48 50 51 52 51 51 50 52 53 53 55 54 53 53 52 51 50 50 49 49 48 48 47 46 44 43 42 41 40 40 39 37 34 32 32 31 31 31 28 28 29
49 50 52 53 53 52 52 51 51 52 52 52 53 53 51 50 50 48 48 48 47 47 46 45 43 42 41 41 39 39 38 36 34 31 30 29 30 30 28 27 27 29
49 50 51 52 52 52 50 51 51 50 51 51 50 51 50 48 47 47 46 47 46 46 45 43 42 41 41 39 38 37 35 33 31 29 28 29 29 29 28 27 28 28
46 46 46 48 48 48 49 48 48 47 48 46 45 49 48 47 46 46 45 45 46 45 44 42 41 40 39 38 37 36 34 31 29 28 28 28 28 28 28 27 28 28
45 44 43 43 43 44 44 44 44 43 42 42 42 43 45 45 45 45 43 43 42 41 41 41 41 40 38 36 34 32 31 29 28 27 27 27 27 27 27 27 27 28
42 41 40 40 41 41 39 39 39 39 39 39 40 40 40 41 41 42 42 42 42 40 39 40 40 39 35 35 34 31 29 28 27 26 26 26 26 26 26 26 27 27
40 38 38 38 39 38 37 38 39 39 39 39 39 40 40 40 40 41 41 40 40 40 40 39 39 36 34 35 35 33 28 26 25 25 25 25 24 24 24 25 26 26
38 38 38 37 37 38 38 37 37 37 38 38 38 38 39 39 40 40 40 39 39 37 37 37 36 34 35 35 34 33 30 25 24 24 24 23 22 23 23 24 24 25
37 37 37 37 37 37 36 37 37 37 37 37 38 38 37 39 39 38 38 38 38 38 38 37 35 34 36 35 34 33 31 26 23 23 22 22 21 22 22 22 23 24
37 37 37 36 36 36 36 36 36 37 36 36 36 36 37 37 36 37 37 36 37 36 36 34 32 34 35 35 33 32 31 27 22 22 21 20 20 21 21 21 22 22
37 36 36 35 35 35 35 35 36 36 36 36 36 36 37 37 36 36 36 35 35 35 34 33 31 34 35 34 33 32 34 27 22 22 20 20 20 19 20 20 20 21
36 36 36 35 35 35 35 35 35 35 35 35 35 35 35 35 34 35 34 34 34 33 33 32 31 34 34 33 33 33 32 25 22 20 20 19 19 18 18 19 19 20
36 36 35 35 34 34 34 35 35 34 34 34 34 34 34 34 34 34 34 33 32 31 31 29 30 33 33 33 33 34 29 24 23 22 21 19 18 18 18 18 19 20
37 36 35 34 34 34 34 34 34 34 34 33 34 34 34 33 33 32 32 32 31 31 30 30 31 31 33 33 32 33 27 24 23 22 21 21 19 18 18 18 19 25
36 36 35 34 34 34 34 34 34 33 33 33 33 33 33 32 32 32 31 31 31 31 30 31 31 31 32 32 32 32 27 24 23 22 21 21 20 19 18 18 21 25
36 35 34 34 34 34 34 33 33 32 32 32 32 32 32 31 31 32 31 31 31 30 30 31 31 31 32 33 32 31 29 24 23 21 21 21 20 20 20 21 21 22

ECMWFNIL_sfc_dewp_123.txt.gz
Dewpoint
60 60 60 60 60 60 59 60 60 60 60 60 60 61 61 61 61 62 62 62 62 61 61 60 59 59 59 59 59 59 58 58 58 58 57 56 56 54 51 49 48 47
60 60 59 59 59 59 59 59 60 60 60 60 60 60 61 60 60 61 62 62 62 62 61 61 60 60 59 59 59 59 58 58 58 57 57 55 55 52 50 49 48 45
60 60 59 59 59 59 59 59 59 60 60 60 60 60 60 59 60 60 61 62 62 62 61 61 60 60 60 59 59 59 58 57 57 55 56 55 52 51 49 48 46 43
60 60 60 59 59 59 59 58 59 59 59 59 59 59 59 59 60 60 61 58 61 61 61 61 60 60 59 59 58 58 57 56 55 53 54 52 51 51 48 46 43 40
59 59 60 60 59 59 58 58 58 58 58 59 58 58 58 59 59 60 60 60 61 60 60 59 59 59 58 58 57 56 55 54 52 52 51 50 49 48 46 43 40 39
58 59 59 59 59 59 58 58 58 58 58 58 58 57 58 59 59 59 59 60 59 59 58 58 58 57 57 57 56 55 53 52 51 51 50 48 46 46 44 42 39 38
58 58 58 59 58 58 58 58 58 57 58 58 56 57 58 58 58 59 59 59 59 57 57 57 57 56 56 55 54 52 51 51 49 49 48 47 45 43 42 41 38 37
56 55 56 56 56 57 57 57 57 57 56 54 56 56 56 57 58 58 58 59 58 57 56 56 56 56 54 53 52 51 49 49 49 49 48 45 44 43 41 40 37 36
51 52 53 53 54 55 55 55 55 54 54 55 55 55 55 57 57 57 57 57 57 56 55 54 55 54 53 52 51 50 48 47 47 47 47 45 44 43 40 38 36 35
48 47 48 49 51 52 52 50 52 53 53 54 54 54 54 54 55 57 56 56 55 54 54 53 53 52 52 52 51 50 48 47 46 46 45 44 44 42 39 36 35 33
45 44 47 48 49 49 50 48 49 51 51 53 52 53 54 54 54 55 56 55 54 53 53 52 52 51 50 50 50 49 48 47 46 45 44 43 42 40 37 36 34 33
45 46 46 46 44 43 44 44 45 47 50 51 53 54 53 54 54 53 53 54 53 52 52 51 50 49 49 49 48 46 46 45 43 42 41 40 39 38 36 35 33 31
46 46 47 47 46 45 43 44 46 46 48 50 50 52 53 52 51 51 50 51 51 51 51 50 49 48 48 48 46 45 44 42 41 40 39 38 37 35 34 32 30 29
44 43 44 45 46 46 46 45 46 46 47 48 47 51 51 51 50 50 48 49 49 49 49 48 48 47 46 45 44 43 42 40 40 38 37 36 34 32 31 29 29 29
42 41 43 43 44 44 45 45 45 43 43 43 44 46 48 47 48 49 48 47 47 47 47 45 46 46 45 43 42 41 40 39 38 36 35 33 31 29 28 28 28 28
42 42 42 42 43 43 43 42 42 42 41 41 42 42 42 43 44 44 45 47 45 44 43 44 44 45 41 40 41 42 40 39 37 36 34 31 30 28 27 27 27 28
41 40 39 40 40 40 40 40 41 39 39 40 40 40 41 41 42 42 41 41 44 44 43 43 44 43 40 41 41 40 39 38 35 33 31 30 29 27 26 26 27 27
40 39 38 38 38 38 38 38 38 38 39 39 38 38 38 38 39 41 41 41 41 41 42 42 42 40 40 40 40 40 37 35 33 30 29 28 27 26 25 25 26 27
37 38 38 37 36 36 36 36 36 37 37 37 37 37 37 37 39 39 39 38 39 40 40 39 38 38 39 40 39 38 37 35 31 29 28 27 25 24 24 25 26 26
37 37 37 36 35 35 35 35 36 36 36 36 36 36 37 37 37 37 37 38 38 38 38 37 37 36 39 38 37 37 36 34 33 32 27 25 23 23 24 24 25 25
36 36 36 35 35 35 35 35 35 35 35 35 36 36 36 37 37 37 37 37 37 37 36 36 37 36 38 38 37 37 36 34 31 29 27 24 22 22 22 23 24 24
36 36 35 35 34 34 35 35 35 35 35 35 35 36 35 36 36 36 36 36 36 36 36 36 34 36 37 37 37 37 35 30 27 25 23 22 21 21 21 22 22 23
36 36 35 35 35 35 35 35 35 35 34 34 35 35 35 35 35 35 35 36 34 35 35 35 33 35 36 36 36 36 32 28 28 26 23 20 20 20 20 21 21 21
36 36 35 35 34 35 35 34 34 34 34 34 35 35 35 34 34 33 33 33 33 34 34 34 33 33 36 36 36 35 31 29 27 25 24 23 20 19 19 20 20 25
36 36 35 35 35 35 34 34 34 34 34 34 34 34 33 33 33 33 33 33 33 33 32 33 33 33 35 35 35 34 30 28 26 24 23 22 21 20 19 19 20 24
36 35 35 34 34 34 34 34 33 33 33 33 33 33 33 32 32 32 32 32 32 32 32 33 33 33 34 35 35 33 32 27 25 23 22 22 21 21 21 21 21 22